[[{"header":{"parameterUnit":"m.s-1","parameterCategory":1,"la1":30.6,"la2":28.766,"lo1":-90.7593,"lo2":-88.6598,"dx":0.0162,"dy":0.0183,"nx":116,"ny":114,"refTime":"2023-01-30T18:00:00:Z","depth":0,"parameterNumber":2,"parameterNumberName":"U-component_of_WINDS"},"data":[0.0,0.0,0.0,0.0,0.0,0.0,0.0,0.0,0.0,0.0,0.0,0.0,0.0,0.0,0.0,0.0,0.0,0.0,0.0,0.0,0.0,0.0,0.0,0.0,0.0,0.0,0.0,0.0,0.0,0.0,0.0,0.0,0.0,0.0,0.0,0.0,0.0,0.0,0.0,0.0,0.0,0.0,0.0,0.0,0.0,0.0,0.0,0.0,0.0,0.0,0.0,0.0,0.0,0.0,0.0,0.0,0.0,0.0,0.0,0.0,0.0,0.0,0.0,0.0,0.0,0.0,0.0,0.0,0.0,0.0,0.0,0.0,0.0,0.0,0.0,0.0,0.0,0.0,0.0,0.0,0.0,0.0,0.0,0.0,0.0,0.0,0.0,0.0,0.0,0.0,0.0,0.0,0.0,0.0,0.0,0.0,0.0,0.0,0.0,0.0,0.0,0.0,0.0,0.0,0.0,0.0,0.0,0.0,0.0,0.0,0.0,0.0,0.0,0.0,0.0,0.0,0.0,0.0,0.0,0.0,0.0,0.0,0.0,0.0,0.0,0.0,0.0,0.0,0.0,0.0,0.0,0.0,0.0,0.0,0.0,0.0,0.0,0.0,0.0,0.0,0.0,0.0,0.0,0.0,0.0,0.0,0.0,0.0,0.0,0.0,0.0,0.0,0.0,0.0,0.0,0.0,0.0,0.0,0.0,0.0,0.0,0.0,0.0,0.0,0.0,0.0,0.0,0.0,0.0,0.0,0.0,0.0,0.0,0.0,0.0,0.0,0.0,0.0,0.0,0.0,0.0,0.0,0.0,0.0,0.0,0.0,0.0,0.0,0.0,0.0,0.0,0.0,0.0,0.0,0.0,0.0,0.0,0.0,0.0,0.0,0.0,0.0,0.0,0.0,0.0,0.0,0.0,0.0,0.0,0.0,0.0,0.0,0.0,0.0,0.0,0.0,0.0,0.0,0.0,0.0,0.0,0.0,0.0,0.0,0.0,0.0,0.0,0.0,0.0,0.0,0.0,0.0,0.0,0.0,0.0,0.0,0.0,0.0,0.0,0.0,0.0,0.0,0.0,0.0,0.0,0.0,0.0,0.0,0.0,0.0,0.0,0.0,0.0,0.0,0.0,0.0,0.0,0.0,0.0,0.0,0.0,0.0,0.0,0.0,0.0,0.0,0.0,0.0,0.0,0.0,0.0,0.0,0.0,0.0,0.0,0.0,0.0,0.0,0.0,0.0,0.0,0.0,0.0,0.0,0.0,0.0,0.0,0.0,0.0,0.0,0.0,0.0,0.0,0.0,0.0,0.0,0.0,0.0,0.0,0.0,0.0,0.0,0.0,0.0,0.0,0.0,0.0,0.0,0.0,0.0,0.0,0.0,0.0,0.0,0.0,0.0,0.0,0.0,0.0,0.0,0.0,0.0,0.0,0.0,0.0,0.0,0.0,0.0,0.0,0.0,0.0,0.0,0.0,0.0,0.0,0.0,0.0,0.0,0.0,0.0,0.0,0.0,0.0,0.0,0.0,0.0,0.0,0.0,0.0,0.0,0.0,0.0,0.0,0.0,0.0,0.0,0.0,0.0,0.0,0.0,0.0,0.0,0.0,0.0,0.0,0.0,0.0,0.0,0.0,0.0,0.0,0.0,0.0,0.0,0.0,0.0,0.0,0.0,0.0,0.0,0.0,0.0,0.0,0.0,0.0,0.0,0.0,0.0,0.0,0.0,0.0,0.0,0.0,0.0,0.0,0.0,0.0,0.0,0.0,0.0,0.0,0.0,0.0,0.0,0.0,0.0,0.0,0.0,0.0,0.0,0.0,0.0,0.0,0.0,0.0,0.0,0.0,0.0,0.0,0.0,0.0,0.0,0.0,0.0,0.0,0.0,0.0,0.0,0.0,0.0,0.0,0.0,0.0,0.0,0.0,0.0,0.0,0.0,0.0,0.0,0.0,0.0,0.0,0.0,0.0,0.0,0.0,0.0,0.0,0.0,0.0,0.0,0.0,0.0,0.0,0.0,0.0,0.0,0.0,0.0,0.0,0.0,0.0,0.0,0.0,0.0,0.0,0.0,0.0,0.0,0.0,0.0,0.0,0.0,0.0,0.0,0.0,0.0,0.0,0.0,0.0,0.0,0.0,0.0,0.0,0.0,0.0,0.0,0.0,0.0,0.0,0.0,0.0,0.0,0.0,0.0,0.0,0.0,0.0,0.0,0.0,0.0,0.0,0.0,0.0,0.0,0.0,0.0,0.0,0.0,0.0,0.0,0.0,0.0,0.0,0.0,0.0,0.0,0.0,0.0,0.0,0.0,0.0,0.0,0.0,0.0,0.0,0.0,0.0,0.0,0.0,0.0,0.0,0.0,0.0,0.0,0.0,0.0,0.0,0.0,0.0,0.0,0.0,0.0,0.0,0.0,0.0,0.0,0.0,0.0,0.0,0.0,0.0,0.0,0.0,0.0,0.0,0.0,0.0,0.0,0.0,0.0,0.0,0.0,0.0,0.0,0.0,0.0,0.0,0.0,0.0,0.0,0.0,0.0,0.0,0.0,0.0,0.0,0.0,0.0,0.0,0.0,0.0,0.0,0.0,0.0,0.0,0.0,0.0,0.0,0.0,0.0,0.0,0.0,0.0,0.0,0.0,0.0,0.0,0.0,0.0,0.0,0.0,0.0,0.0,0.0,0.0,0.0,0.0,0.0,0.0,0.0,0.0,0.0,0.0,0.0,0.0,0.0,0.0,0.0,0.0,0.0,0.0,0.0,0.0,0.0,0.0,0.0,0.0,0.0,0.0,0.0,0.0,0.0,0.0,0.0,0.0,0.0,0.0,0.0,0.0,0.0,0.0,0.0,0.0,0.0,0.0,0.0,0.0,0.0,0.0,0.0,0.0,0.0,0.0,0.0,0.0,0.0,0.0,0.0,0.0,0.0,0.0,0.0,0.0,0.0,0.0,0.0,0.0,0.0,0.0,0.0,0.0,0.0,0.0,0.0,0.0,0.0,0.0,0.0,0.0,0.0,0.0,0.0,0.0,0.0,0.0,0.0,0.0,0.0,0.0,0.0,0.0,0.0,0.0,0.0,0.0,0.0,0.0,0.0,0.0,0.0,0.0,0.0,0.0,0.0,0.0,0.0,0.0,0.0,0.0,0.0,0.0,0.0,0.0,0.0,0.0,0.0,0.0,0.0,0.0,0.0,0.0,0.0,0.0,0.0,0.0,0.0,0.0,0.0,0.0,0.0,0.0,0.0,0.0,0.0,0.0,0.0,0.0,0.0,0.0,0.0,0.0,0.0,0.0,0.0,0.0,0.0,0.0,0.0,0.0,0.0,0.0,0.0,0.0,0.0,0.0,0.0,0.0,0.0,0.0,0.0,0.0,0.0,0.0,0.0,0.0,0.0,0.0,0.0,0.0,0.0,0.0,0.0,0.0,0.0,0.0,0.0,0.0,0.0,0.0,0.0,0.0,0.0,0.0,0.0,0.0,0.0,0.0,0.0,0.0,0.0,0.0,0.0,0.0,0.0,0.0,0.0,0.0,0.0,0.0,0.0,0.0,0.0,0.0,0.0,0.0,0.0,0.0,0.0,0.0,0.0,0.0,0.0,0.0,0.0,0.0,0.0,0.0,0.0,0.0,0.0,0.0,0.0,0.0,0.0,0.0,0.0,0.0,0.0,0.0,0.0,0.0,0.0,0.0,0.0,0.0,0.0,0.0,0.0,0.0,0.0,0.0,0.0,0.0,0.0,0.0,0.0,0.0,0.0,0.0,0.0,0.0,0.0,0.0,0.0,0.0,0.0,0.0,0.0,0.0,0.0,0.0,0.0,0.0,0.0,0.0,0.0,0.0,0.0,0.0,0.0,0.0,0.0,0.0,0.0,0.0,0.0,0.0,0.0,0.0,0.0,0.0,0.0,0.0,0.0,0.0,0.0,0.0,0.0,0.0,0.0,0.0,0.0,0.0,0.0,0.0,0.0,0.0,0.0,0.0,0.0,0.0,0.0,0.0,0.0,0.0,0.0,0.0,0.0,0.0,0.0,0.0,0.0,0.0,0.0,0.0,0.0,0.0,0.0,0.0,0.0,0.0,0.0,0.0,0.0,0.0,0.0,0.0,0.0,0.0,0.0,0.0,0.0,0.0,0.0,0.0,0.0,0.0,0.0,0.0,0.0,0.0,0.0,0.0,0.0,0.0,0.0,0.0,0.0,0.0,0.0,0.0,0.0,0.0,0.0,0.0,0.0,0.0,0.0,0.0,0.0,0.0,0.0,0.0,0.0,0.0,0.0,0.0,0.0,0.0,0.0,0.0,0.0,0.0,0.0,0.0,0.0,0.0,0.0,0.0,0.0,0.0,0.0,0.0,0.0,0.0,0.0,0.0,0.0,0.0,0.0,0.0,0.0,0.0,0.0,0.0,0.0,0.0,0.0,0.0,0.0,0.0,0.0,0.0,0.0,0.0,0.0,0.0,0.0,0.0,0.0,0.0,0.0,0.0,0.0,0.0,0.0,0.0,0.0,0.0,0.0,0.0,0.0,0.0,0.0,0.0,0.0,0.0,0.0,0.0,0.0,0.0,0.0,0.0,0.0,0.0,0.0,0.0,0.0,0.0,0.0,0.0,0.0,0.0,0.0,0.0,0.0,0.0,0.0,0.0,0.0,0.0,0.0,0.0,0.0,0.0,0.0,0.0,0.0,0.0,0.0,0.0,0.0,0.0,0.0,0.0,0.0,0.0,0.0,0.0,0.0,0.0,0.0,0.0,0.0,0.0,0.0,0.0,0.0,0.0,0.0,0.0,0.0,0.0,0.0,0.0,0.0,0.0,0.0,0.0,0.0,0.0,0.0,0.0,0.0,0.0,0.0,0.0,0.0,0.0,0.0,0.0,0.0,0.0,0.0,0.0,0.0,0.0,0.0,0.0,0.0,0.0,0.0,0.0,0.0,0.0,0.0,0.0,0.0,0.0,0.0,0.0,0.0,0.0,0.0,0.0,0.0,0.0,0.0,0.0,0.0,0.0,0.0,0.0,0.0,0.0,0.0,0.0,0.0,0.0,0.0,0.0,0.0,0.0,0.0,0.0,0.0,0.0,0.0,0.0,0.0,0.0,0.0,0.0,0.0,0.0,0.0,0.0,0.0,0.0,0.0,0.0,0.0,0.0,0.0,0.0,0.0,0.0,0.0,0.0,0.0,0.0,0.0,0.0,0.0,0.0,0.0,0.0,0.0,0.0,0.0,0.0,0.0,0.0,0.0,0.0,0.0,0.0,0.0,0.0,0.0,0.0,0.0,0.0,0.0,0.0,0.0,0.0,0.0,0.0,0.0,0.0,0.0,0.0,0.0,0.0,0.0,0.0,0.0,0.0,0.0,0.0,0.0,0.0,0.0,0.0,0.0,0.0,0.0,0.0,0.0,0.0,0.0,0.0,0.0,0.0,0.0,0.0,0.0,0.0,0.0,0.0,0.0,0.0,0.0,0.0,0.0,0.0,0.0,0.0,0.0,0.0,0.0,0.0,0.0,0.0,0.0,0.0,0.0,0.0,0.0,0.0,0.0,0.0,0.0,0.0,0.0,0.0,0.0,0.0,0.0,0.0,0.0,0.0,0.0,0.0,0.0,0.0,0.0,0.0,0.0,0.0,0.0,0.0,0.0,0.0,0.0,0.0,0.0,0.0,0.0,0.0,0.0,0.0,0.0,0.0,0.0,0.0,0.0,0.0,0.0,0.0,0.0,0.0,0.0,0.0,0.0,0.0,0.0,0.0,0.0,0.0,0.0,0.0,0.0,0.0,0.0,0.0,0.0,0.0,0.0,0.0,0.0,0.0,0.0,0.0,0.0,0.0,0.0,0.0,0.0,0.0,0.0,0.0,0.0,0.0,0.0,0.0,0.0,0.0,0.0,0.0,0.0,0.0,0.0,0.0,0.0,0.0,0.0,0.0,0.0,0.0,0.0,0.0,0.0,0.0,0.0,0.0,0.0,0.0,0.0,0.0,0.0,0.0,0.0,0.0,0.0,0.0,0.0,0.0,0.0,0.0,0.0,0.0,0.0,0.0,0.0,0.0,0.0,0.0,0.0,0.0,0.0,0.0,0.0,0.0,0.0,0.0,0.0,6.1392,0.0,0.0,0.0,0.0,0.0,0.0,0.0,0.0,0.0,0.0,0.0,0.0,0.0,0.0,0.0,0.0,0.0,0.0,0.0,0.0,0.0,0.0,0.0,0.0,0.0,0.0,0.0,0.0,0.0,0.0,0.0,0.0,0.0,0.0,0.0,0.0,0.0,0.0,0.0,0.0,0.0,0.0,0.0,0.0,0.0,0.0,0.0,0.0,0.0,0.0,0.0,0.0,0.0,0.0,0.0,0.0,0.0,0.0,0.0,0.0,0.0,0.0,0.0,0.0,0.0,0.0,0.0,0.0,0.0,0.0,0.0,0.0,0.0,0.0,0.0,0.0,0.0,0.0,0.0,0.0,0.0,0.0,0.0,0.0,0.0,0.0,0.0,0.0,0.0,0.0,0.0,0.0,0.0,0.0,0.0,0.0,0.0,0.0,0.0,0.0,0.0,0.0,0.0,0.0,0.0,0.0,0.0,0.0,0.0,0.0,0.0,0.0,0.0,0.0,0.0,0.0,6.1869,0.0,0.0,0.0,0.0,0.0,0.0,0.0,0.0,0.0,0.0,0.0,0.0,0.0,0.0,0.0,0.0,0.0,0.0,0.0,0.0,0.0,0.0,0.0,0.0,0.0,0.0,0.0,0.0,0.0,0.0,0.0,0.0,0.0,0.0,0.0,0.0,0.0,0.0,0.0,0.0,0.0,0.0,0.0,0.0,0.0,0.0,0.0,0.0,0.0,0.0,0.0,0.0,0.0,0.0,0.0,0.0,0.0,0.0,0.0,0.0,0.0,0.0,0.0,0.0,0.0,0.0,0.0,0.0,0.0,0.0,0.0,0.0,0.0,0.0,0.0,0.0,0.0,0.0,0.0,0.0,0.0,0.0,0.0,0.0,0.0,0.0,0.0,0.0,0.0,0.0,0.0,0.0,0.0,0.0,0.0,0.0,0.0,0.0,0.0,0.0,0.0,0.0,0.0,0.0,0.0,0.0,0.0,0.0,6.14,6.1298,6.1335,6.2062,6.2184,6.1826,6.1815,6.1677,6.1458,6.1802,0.0,0.0,0.0,0.0,0.0,0.0,0.0,0.0,0.0,0.0,0.0,0.0,0.0,0.0,0.0,0.0,0.0,0.0,0.0,0.0,0.0,0.0,0.0,0.0,0.0,0.0,0.0,0.0,0.0,0.0,0.0,0.0,0.0,0.0,0.0,0.0,0.0,0.0,0.0,0.0,0.0,0.0,0.0,0.0,0.0,0.0,0.0,0.0,0.0,0.0,0.0,0.0,0.0,0.0,0.0,0.0,0.0,0.0,0.0,0.0,0.0,0.0,0.0,0.0,0.0,0.0,0.0,0.0,0.0,0.0,0.0,0.0,0.0,0.0,0.0,0.0,0.0,0.0,0.0,0.0,0.0,0.0,0.0,0.0,0.0,0.0,5.6775,5.7186,0.0,0.0,0.0,0.0,0.0,0.0,0.0,0.0,0.0,0.0,0.0,0.0,0.0,6.0397,6.0566,6.1206,6.1543,6.1603,6.2267,6.2561,6.2561,6.2678,6.2714,6.2652,6.2635,0.0,6.3167,6.3223,0.0,0.0,0.0,0.0,0.0,0.0,0.0,0.0,0.0,0.0,0.0,0.0,0.0,0.0,0.0,0.0,0.0,0.0,0.0,0.0,0.0,0.0,0.0,0.0,0.0,0.0,0.0,0.0,0.0,0.0,0.0,0.0,0.0,0.0,0.0,0.0,0.0,0.0,0.0,0.0,0.0,0.0,0.0,0.0,0.0,0.0,0.0,0.0,0.0,0.0,0.0,0.0,0.0,0.0,0.0,0.0,0.0,0.0,0.0,0.0,0.0,0.0,0.0,0.0,0.0,0.0,0.0,0.0,0.0,0.0,0.0,0.0,0.0,0.0,0.0,0.0,0.0,0.0,0.0,0.0,0.0,0.0,0.0,0.0,0.0,5.6878,5.699,5.7605,5.7694,5.7847,0.0,0.0,0.0,0.0,0.0,0.0,0.0,0.0,0.0,6.1049,6.108,6.1294,6.1734,6.2101,6.2285,6.2285,6.2646,6.2793,6.2793,6.2793,6.2793,6.2793,6.2793,6.2929,6.311,6.311,6.3197,6.3351,0.0,0.0,0.0,0.0,6.3351,6.3351,0.0,0.0,0.0,0.0,0.0,0.0,0.0,0.0,0.0,0.0,0.0,0.0,0.0,0.0,0.0,0.0,0.0,0.0,0.0,0.0,0.0,0.0,0.0,0.0,0.0,0.0,0.0,0.0,0.0,0.0,0.0,0.0,0.0,0.0,0.0,0.0,0.0,0.0,0.0,0.0,0.0,0.0,0.0,0.0,0.0,0.0,0.0,0.0,0.0,0.0,0.0,0.0,0.0,0.0,0.0,0.0,0.0,0.0,0.0,0.0,0.0,0.0,0.0,0.0,0.0,0.0,0.0,0.0,0.0,0.0,0.0,0.0,0.0,0.0,0.0,0.0,0.0,5.7434,5.733,5.7923,5.8002,5.8076,0.0,0.0,0.0,0.0,0.0,0.0,6.067,6.0713,6.108,6.1887,6.1924,6.2175,6.2793,6.2793,6.2793,6.2793,6.2793,6.2793,6.2793,6.2793,6.2793,6.2793,6.2793,6.2793,6.2793,6.2793,6.2793,6.2793,6.2793,6.2793,6.2793,6.2793,6.2793,6.2793,0.0,0.0,0.0,0.0,0.0,0.0,0.0,0.0,0.0,0.0,0.0,0.0,0.0,0.0,0.0,0.0,0.0,0.0,0.0,0.0,0.0,0.0,0.0,0.0,0.0,0.0,0.0,0.0,0.0,0.0,0.0,0.0,0.0,0.0,0.0,0.0,0.0,0.0,0.0,0.0,0.0,0.0,0.0,0.0,0.0,0.0,0.0,0.0,0.0,0.0,0.0,0.0,0.0,0.0,0.0,0.0,0.0,0.0,0.0,0.0,0.0,0.0,0.0,0.0,0.0,0.0,0.0,0.0,0.0,0.0,0.0,0.0,0.0,0.0,0.0,0.0,0.0,0.0,0.0,5.8002,5.8002,0.0,0.0,0.0,0.0,6.0266,6.034,6.067,6.149,6.1526,6.1924,6.2719,6.2756,6.2756,6.2793,6.2793,6.2793,6.2793,6.2793,6.2793,6.2793,6.2793,6.2793,6.2793,6.2793,6.2793,6.2793,6.2793,6.2793,6.2793,6.2793,6.2793,6.2793,6.2793,6.2793,6.2793,0.0,0.0,0.0,0.0,0.0,0.0,0.0,0.0,0.0,0.0,0.0,0.0,0.0,0.0,0.0,0.0,0.0,0.0,0.0,0.0,0.0,0.0,0.0,0.0,0.0,0.0,0.0,0.0,0.0,0.0,0.0,0.0,0.0,0.0,0.0,0.0,0.0,0.0,0.0,0.0,0.0,0.0,0.0,0.0,0.0,0.0,0.0,0.0,0.0,0.0,0.0,0.0,0.0,0.0,0.0,0.0,0.0,0.0,0.0,0.0,0.0,0.0,0.0,0.0,0.0,0.0,0.0,0.0,0.0,0.0,0.0,0.0,0.0,0.0,0.0,0.0,0.0,0.0,0.0,5.8719,5.8756,0.0,5.9893,5.9967,6.0303,6.1117,6.1153,6.152,6.2322,6.2284,6.2418,6.2793,6.2711,6.2673,6.2673,6.2749,6.2749,6.2673,6.2755,6.2793,6.2793,6.2793,6.3092,6.3649,6.3649,6.3937,6.4407,6.4407,6.3783,6.2793,6.2793,6.2793,6.2866,6.3429,6.3649,6.3723,0.0,0.0,0.0,0.0,0.0,0.0,0.0,0.0,0.0,0.0,0.0,0.0,0.0,0.0,0.0,0.0,0.0,0.0,0.0,0.0,0.0,0.0,0.0,0.0,0.0,0.0,0.0,0.0,0.0,0.0,0.0,0.0,0.0,0.0,0.0,0.0,0.0,0.0,0.0,0.0,0.0,0.0,5.2872,0.0,0.0,0.0,0.0,0.0,0.0,0.0,0.0,0.0,0.0,0.0,0.0,0.0,0.0,0.0,0.0,0.0,0.0,0.0,0.0,0.0,0.0,0.0,0.0,0.0,0.0,0.0,0.0,0.0,0.0,0.0,0.0,0.0,0.0,5.8385,5.8615,5.9159,5.9453,5.993,6.075,6.0786,6.1135,6.1862,6.1973,6.2211,6.2624,6.2622,6.2622,6.2654,6.2571,6.2552,6.2603,6.2898,6.3044,6.2999,6.3331,6.346,6.346,6.346,6.3796,6.4358,6.4358,6.4671,6.5186,6.5186,6.4589,6.3637,6.3637,6.3637,6.371,6.4273,6.4494,6.4567,0.0,0.0,0.0,0.0,0.0,0.0,0.0,0.0,0.0,0.0,0.0,0.0,0.0,0.0,0.0,0.0,0.0,0.0,0.0,0.0,0.0,0.0,0.0,0.0,0.0,0.0,0.0,0.0,0.0,0.0,0.0,0.0,0.0,0.0,0.0,0.0,0.0,0.0,0.0,0.0,0.0,0.0,5.2607,0.0,0.0,0.0,0.0,0.0,0.0,0.0,0.0,0.0,0.0,0.0,0.0,0.0,0.0,0.0,0.0,0.0,0.0,0.0,0.0,0.0,0.0,0.0,0.0,0.0,0.0,0.0,0.0,0.0,0.0,0.0,0.0,0.0,5.8143,5.8719,5.9221,5.9264,5.9961,6.0737,6.1557,6.163,6.1905,6.2536,6.2711,6.266,6.2397,6.2513,6.2526,6.242,6.2413,6.2515,6.2664,6.3301,6.3703,6.3815,6.4493,6.4797,6.4797,6.4797,6.479,6.4833,6.4833,6.4914,6.5085,6.5085,6.5201,6.5355,6.5325,6.5288,6.5288,6.5325,6.5362,6.5368,0.0,0.0,0.0,0.0,0.0,0.0,0.0,0.0,0.0,0.0,0.0,0.0,0.0,0.0,0.0,0.0,0.0,0.0,0.0,0.0,0.0,0.0,0.0,0.0,0.0,0.0,0.0,0.0,0.0,0.0,0.0,0.0,0.0,0.0,0.0,0.0,0.0,0.0,0.0,0.0,0.0,0.0,5.2602,0.0,0.0,0.0,0.0,0.0,0.0,0.0,0.0,0.0,0.0,0.0,0.0,0.0,0.0,0.0,0.0,0.0,0.0,0.0,0.0,0.0,0.0,0.0,0.0,0.0,0.0,0.0,0.0,0.0,0.0,0.0,5.9569,5.9783,5.8976,5.9486,6.0164,6.0848,6.1062,6.144,6.2258,6.2331,6.2347,6.2455,6.2475,6.2498,6.2384,6.2331,6.2586,6.3229,6.3165,6.3416,6.4032,6.4325,6.4435,6.4396,6.4653,6.4797,6.4797,6.4797,6.5118,6.5658,6.5658,6.6021,6.6609,6.6609,6.6699,6.6776,6.5733,6.5288,6.5368,6.5955,6.6549,6.7033,0.0,0.0,0.0,0.0,0.0,0.0,0.0,0.0,0.0,0.0,0.0,0.0,0.0,0.0,0.0,0.0,0.0,0.0,0.0,0.0,0.0,0.0,0.0,0.0,0.0,0.0,0.0,0.0,0.0,0.0,0.0,0.0,0.0,0.0,0.0,0.0,0.0,0.0,0.0,0.0,0.0,0.0,5.3563,5.3563,5.3639,5.3784,5.4303,5.4588,5.4779,5.5311,0.0,0.0,0.0,0.0,0.0,0.0,0.0,0.0,0.0,0.0,0.0,0.0,0.0,0.0,0.0,0.0,0.0,0.0,0.0,0.0,0.0,0.0,0.0,0.0,6.0328,6.0677,6.0254,6.0488,6.0908,6.1465,6.1712,6.1995,6.247,6.2513,6.2455,6.2348,6.2685,6.2848,6.2728,6.3028,6.3428,6.3928,6.3845,6.4079,6.4599,6.5281,6.5616,6.5624,6.6306,6.6648,6.6648,6.6648,6.6902,6.7339,6.7339,6.7629,6.8124,6.8124,6.8217,0.0,0.0,0.0,0.0,0.0,6.729,6.7737,0.0,0.0,0.0,0.0,0.0,0.0,0.0,0.0,0.0,0.0,0.0,0.0,0.0,0.0,0.0,0.0,0.0,0.0,0.0,0.0,0.0,0.0,0.0,0.0,0.0,0.0,0.0,0.0,0.0,0.0,0.0,0.0,0.0,0.0,0.0,0.0,0.0,0.0,0.0,0.0,0.0,0.0,5.49,5.49,5.4931,5.5008,5.5234,5.5399,5.5525,5.5758,0.0,0.0,0.0,0.0,0.0,0.0,0.0,0.0,0.0,0.0,0.0,0.0,0.0,0.0,0.0,0.0,0.0,0.0,0.0,0.0,0.0,0.0,0.0,0.0,6.108,6.1548,6.1679,6.1573,6.1492,6.153,6.2017,6.2394,6.2394,6.2467,6.245,6.2317,6.3159,6.3591,6.3337,0.0,0.0,0.0,0.0,6.4822,6.5123,6.641,6.7149,6.7244,6.8571,6.9199,6.9199,6.9199,6.9199,6.9199,6.9199,6.9268,6.9373,6.9373,6.9462,6.9479,6.8248,6.7858,6.7937,6.7987,6.7958,6.8068,0.0,0.0,0.0,0.0,0.0,0.0,0.0,0.0,0.0,0.0,0.0,0.0,0.0,0.0,0.0,0.0,0.0,0.0,0.0,0.0,0.0,0.0,0.0,0.0,0.0,0.0,0.0,0.0,0.0,0.0,0.0,0.0,0.0,0.0,0.0,0.0,0.0,0.0,0.0,0.0,0.0,0.0,5.49,5.49,5.4913,5.5015,5.5626,5.5946,5.6145,5.6962,5.7293,5.7393,5.7491,0.0,0.0,0.0,0.0,0.0,0.0,0.0,0.0,0.0,0.0,0.0,0.0,0.0,0.0,0.0,0.0,0.0,0.0,0.0,0.0,6.1146,6.1783,6.221,6.2243,6.2132,6.2132,6.2358,6.2304,6.2225,6.2225,6.2837,6.3139,6.3009,6.3784,6.4213,6.4185,6.4359,6.5004,6.6315,6.6351,6.6982,6.8295,6.8591,6.8736,6.8766,0.0,0.0,6.9199,6.9199,6.9199,6.9199,6.9199,6.9214,6.9237,6.9237,6.932,6.9433,6.9448,6.9437,6.9479,6.9598,6.9639,6.9676,0.0,0.0,0.0,0.0,0.0,0.0,0.0,0.0,0.0,0.0,0.0,0.0,0.0,0.0,0.0,0.0,0.0,0.0,0.0,0.0,0.0,0.0,0.0,0.0,0.0,0.0,0.0,0.0,0.0,0.0,0.0,0.0,0.0,0.0,0.0,0.0,0.0,0.0,0.0,0.0,0.0,0.0,5.6066,5.6066,5.6066,5.6108,5.6544,5.6721,5.6873,5.7431,5.7709,5.7822,5.7886,5.795,5.8002,0.0,0.0,0.0,0.0,0.0,0.0,0.0,0.0,0.0,0.0,0.0,0.0,0.0,0.0,5.995,6.0756,0.0,6.1435,6.183,6.2115,6.2305,6.237,6.2242,6.2188,6.237,6.2575,6.2701,6.2701,6.342,6.3864,6.3794,6.4548,6.52,6.5591,6.5989,6.675,6.7953,6.7989,6.8387,6.9192,6.959,6.9808,6.9808,7.0561,7.0959,7.0959,7.1357,7.1531,7.1531,7.1531,7.1531,7.1531,7.1531,7.157,7.1664,7.1962,7.1172,6.9906,6.9984,7.0054,7.0153,0.0,0.0,0.0,0.0,0.0,0.0,0.0,0.0,0.0,0.0,0.0,0.0,0.0,0.0,0.0,0.0,0.0,0.0,0.0,0.0,0.0,0.0,0.0,0.0,0.0,0.0,0.0,0.0,0.0,0.0,0.0,0.0,0.0,0.0,0.0,0.0,0.0,0.0,0.0,0.0,0.0,0.0,5.7195,5.7195,5.7195,5.7207,5.7313,5.7351,5.7369,5.7504,5.7619,5.7714,5.7798,5.7869,5.7939,5.7985,5.7979,0.0,0.0,0.0,0.0,0.0,0.0,0.0,0.0,5.9393,5.9637,6.0444,6.0573,6.0781,6.1474,6.1551,6.1706,6.2284,6.2268,6.2251,6.251,6.2359,6.2329,6.2604,6.2957,6.3244,6.3432,6.4149,6.4693,6.4837,6.5591,6.6424,6.7221,6.7873,6.8597,6.9409,6.9445,6.959,6.988,7.0524,7.0923,7.1104,7.2319,7.2935,7.2971,7.3615,7.3905,7.3905,7.3905,7.3905,7.3905,7.3905,7.3905,7.3921,7.4075,7.2748,7.0756,7.0748,7.0857,7.1088,0.0,0.0,0.0,0.0,0.0,0.0,0.0,0.0,0.0,0.0,0.0,0.0,0.0,0.0,0.0,0.0,0.0,0.0,0.0,0.0,0.0,0.0,0.0,0.0,0.0,0.0,0.0,0.0,0.0,0.0,0.0,0.0,0.0,0.0,0.0,0.0,0.0,0.0,0.0,0.0,0.0,0.0,5.7195,5.7195,5.7195,5.7195,5.7207,5.7213,5.7239,5.7369,5.7425,5.748,5.7703,5.7745,5.7673,5.7939,0.0,5.7857,5.7968,5.8002,5.818,5.8902,5.8961,5.9133,0.0,6.0176,6.0317,6.1116,6.1204,6.1335,6.2154,6.2089,6.1992,6.2185,6.2114,6.2279,6.3002,6.3083,6.3323,6.4062,6.3584,6.3461,6.4185,6.4975,6.5772,6.6496,6.7286,6.809,6.8902,6.9018,6.9445,7.0242,7.0278,7.0923,7.2283,7.2392,7.279,7.3515,7.3687,7.3768,7.376,7.3868,7.3905,7.3905,7.3905,7.3905,7.3905,7.3905,7.3905,7.3913,7.3929,7.3849,7.3712,7.3853,7.4015,7.4173,0.0,0.0,0.0,0.0,0.0,0.0,0.0,0.0,0.0,0.0,0.0,0.0,0.0,0.0,0.0,0.0,0.0,0.0,0.0,0.0,0.0,0.0,0.0,0.0,0.0,0.0,0.0,0.0,0.0,0.0,0.0,0.0,0.0,0.0,0.0,0.0,0.0,0.0,0.0,0.0,0.0,0.0,5.7195,5.7195,5.7195,5.7195,5.7195,5.7195,0.0,0.0,5.7326,5.7412,5.7522,5.7655,5.7757,5.7863,5.791,0.0,5.8478,5.8966,5.9447,5.9736,5.9749,5.9902,6.0799,6.0951,6.1108,6.183,6.1983,6.2067,6.2262,6.2208,6.2114,6.2094,6.2438,6.2809,6.3142,6.3606,6.4185,6.5019,6.5192,6.5229,6.512,6.6243,6.7141,6.7467,6.8235,6.9039,6.9844,6.988,7.046,7.1712,7.1748,7.2291,7.3398,7.3406,7.3579,7.3905,7.4375,7.4593,7.4629,7.5072,7.5297,7.5297,7.5297,7.5297,7.5297,7.5297,7.5297,7.5297,7.5297,7.5405,7.5495,7.4622,7.4462,7.4662,0.0,0.0,0.0,0.0,0.0,0.0,0.0,0.0,0.0,0.0,0.0,0.0,0.0,0.0,0.0,0.0,0.0,0.0,0.0,5.1821,0.0,0.0,0.0,0.0,0.0,0.0,0.0,0.0,0.0,0.0,0.0,0.0,0.0,0.0,0.0,0.0,0.0,0.0,0.0,0.0,0.0,0.0,5.7195,5.7195,5.7195,5.7195,5.7195,5.7195,0.0,0.0,5.7257,5.7351,5.7425,5.7553,5.7764,5.809,5.8404,5.8775,5.9194,5.9816,6.0377,6.0506,6.0499,6.0638,6.1517,6.1656,6.1755,6.2235,6.2416,6.2416,6.2201,6.2154,6.2193,6.2302,6.2809,6.3359,6.3787,6.4367,6.512,6.6134,6.6786,6.7003,6.6612,6.7655,6.8416,6.8633,6.9184,6.9952,7.0995,7.1031,7.1639,7.3008,7.3044,7.3434,7.4231,7.4231,7.4339,7.4565,7.5144,7.5434,7.5462,7.6022,7.6284,7.6284,7.6284,7.6284,7.6284,7.6284,7.6284,7.6284,7.6284,7.6395,7.6394,7.5204,7.4953,7.521,0.0,0.0,0.0,0.0,0.0,0.0,0.0,0.0,0.0,0.0,0.0,0.0,0.0,0.0,0.0,0.0,0.0,0.0,0.0,5.2838,0.0,0.0,0.0,0.0,0.0,0.0,0.0,0.0,0.0,0.0,0.0,0.0,0.0,0.0,0.0,0.0,0.0,0.0,0.0,0.0,0.0,0.0,5.7195,5.7195,5.7195,5.7195,5.7195,0.0,0.0,0.0,5.7195,5.7245,5.7498,5.7498,0.0,5.8827,5.9704,0.0,6.0188,6.0194,6.0371,6.1164,6.118,6.1233,6.232,6.236,6.2199,6.2192,6.2192,6.2188,6.2026,6.1998,6.2252,6.3026,6.3178,6.3751,6.5301,6.5555,6.6134,6.7756,6.7938,6.8271,6.9018,6.9119,6.9489,7.0278,7.0351,7.1031,7.2537,7.2645,7.3008,7.3832,7.3868,7.4267,7.5063,7.5063,7.547,7.6211,7.6247,7.6247,7.6247,7.6284,7.6284,7.6284,7.6284,7.6284,7.6284,7.6284,7.6284,7.6284,7.6284,7.6292,7.6292,7.6256,7.6364,7.6525,0.0,0.0,0.0,0.0,0.0,0.0,0.0,0.0,0.0,0.0,0.0,0.0,0.0,0.0,0.0,0.0,0.0,0.0,0.0,5.2886,5.2576,0.0,0.0,0.0,0.0,0.0,0.0,0.0,0.0,0.0,0.0,0.0,0.0,0.0,0.0,0.0,0.0,0.0,0.0,0.0,0.0,0.0,5.7195,5.7195,5.7195,5.7195,0.0,0.0,0.0,0.0,0.0,0.0,5.7301,0.0,0.0,5.9663,0.0,0.0,6.0918,6.1327,6.1791,6.1897,6.1917,6.1984,6.2288,6.2324,6.2295,6.2107,6.2148,6.232,6.2721,6.2802,6.3056,6.3859,6.4439,6.5163,6.6243,6.6858,6.7583,6.8677,6.9257,6.9691,6.9952,6.9989,7.0315,7.106,7.1603,7.2392,7.3434,7.3515,7.3868,7.4665,7.4701,7.5072,7.5877,7.5913,7.6022,7.6284,7.6284,7.6284,7.6284,7.6284,7.6284,7.6284,7.6284,7.6284,7.6356,7.6863,7.6791,7.6356,7.6899,7.6754,7.6284,7.6284,7.6362,7.6395,0.0,0.0,0.0,0.0,0.0,0.0,0.0,0.0,0.0,0.0,0.0,0.0,0.0,0.0,0.0,0.0,0.0,0.0,0.0,0.0,5.2621,5.2491,0.0,0.0,0.0,0.0,0.0,0.0,0.0,0.0,0.0,0.0,0.0,0.0,0.0,0.0,0.0,0.0,0.0,0.0,0.0,0.0,5.7195,5.7195,5.7195,0.0,0.0,0.0,0.0,0.0,0.0,0.0,0.0,0.0,0.0,0.0,6.13,6.191,6.1631,6.1982,6.2416,6.2232,6.2242,6.2262,6.2192,6.2248,6.2215,6.2026,6.2291,6.2701,6.312,6.3425,6.3896,6.4693,6.5265,6.5989,6.7076,6.7684,6.8416,6.9481,7.0315,7.0923,7.1176,7.1494,7.1712,7.1921,7.2682,7.3478,7.4303,7.4339,7.4701,7.5506,7.5542,7.576,7.6284,7.6284,7.6428,7.6718,7.6718,7.6863,7.7153,7.7153,7.7153,7.7153,7.7153,7.7153,7.7189,7.7724,7.7615,7.7225,7.7732,7.7615,7.7153,7.7153,7.7153,7.7117,0.0,0.0,0.0,0.0,0.0,0.0,0.0,0.0,0.0,0.0,0.0,0.0,0.0,0.0,0.0,0.0,0.0,0.0,0.0,0.0,0.0,5.2503,5.3241,0.0,0.0,0.0,0.0,0.0,0.0,0.0,0.0,0.0,0.0,0.0,0.0,0.0,0.0,0.0,0.0,0.0,0.0,0.0,5.7195,5.7195,0.0,0.0,0.0,0.0,0.0,0.0,0.0,0.0,0.0,0.0,6.1376,6.1298,6.191,6.2546,6.2265,6.2228,6.2192,6.2178,6.2107,6.2039,6.2145,6.21,6.2035,6.2064,6.2657,6.3214,6.3323,6.3932,6.4722,6.5518,6.57,6.6279,6.7829,6.8119,6.8706,7.0351,7.114,7.1885,7.2682,7.3438,7.3566,7.2806,7.3526,7.4303,7.5136,7.5172,7.5506,7.6284,7.6284,7.632,7.6356,7.6392,7.6827,7.7543,7.7543,7.7941,7.8702,7.8702,7.8702,7.8702,7.8702,7.8702,7.8702,7.8738,7.8738,7.8702,7.8738,7.8738,7.8702,7.8702,7.8702,7.8593,0.0,0.0,0.0,0.0,0.0,0.0,0.0,0.0,0.0,0.0,0.0,0.0,0.0,0.0,0.0,0.0,0.0,0.0,0.0,0.0,0.0,0.0,0.0,0.0,0.0,0.0,0.0,0.0,0.0,0.0,0.0,0.0,0.0,0.0,0.0,0.0,0.0,0.0,0.0,0.0,0.0,0.0,5.7195,0.0,0.0,0.0,0.0,0.0,0.0,0.0,0.0,5.8264,5.9209,6.0244,6.1219,6.189,6.2341,6.2546,6.2265,6.2258,6.2315,6.21,6.2107,6.2141,6.2067,6.2107,6.2279,6.2787,6.3063,6.3577,6.4765,6.5163,6.5555,6.6351,6.7003,6.7728,6.8749,6.9409,7.0379,7.1929,7.2283,7.2718,7.3506,7.3791,7.3795,7.3615,7.4329,7.5136,7.5949,7.5985,7.6102,7.6284,7.6284,7.6573,7.7189,7.7796,7.8195,7.8376,7.8376,7.8484,7.8702,7.8702,7.8702,7.8702,7.8702,7.8702,7.8738,7.9354,7.9236,7.8774,7.9354,7.9245,7.8702,7.8702,7.8702,7.8774,0.0,0.0,0.0,0.0,0.0,0.0,0.0,0.0,0.0,0.0,0.0,0.0,0.0,0.0,0.0,0.0,0.0,0.0,0.0,0.0,0.0,0.0,0.0,0.0,0.0,0.0,0.0,0.0,0.0,0.0,0.0,0.0,0.0,0.0,0.0,0.0,0.0,0.0,0.0,0.0,0.0,0.0,0.0,0.0,0.0,0.0,0.0,0.0,0.0,5.7763,5.8371,5.9032,5.9679,6.0683,6.1709,6.2255,6.2488,6.2546,6.2265,6.2315,6.2348,6.206,6.2107,6.2254,6.2467,6.2574,6.2833,6.3591,6.4004,6.4511,6.5446,6.5881,6.6279,6.675,6.7467,6.8271,6.9083,7.0162,7.1313,7.2573,7.3325,7.379,7.3905,7.4522,7.4805,7.444,7.4832,7.5292,7.5732,7.6114,7.6465,7.6827,7.6827,7.7225,7.8014,7.8484,7.8883,7.9245,7.9245,7.9417,7.9743,7.9743,7.9743,7.9743,0.0,7.9743,7.978,8.025,8.0142,7.978,8.025,8.0142,7.9743,7.9743,7.9743,7.9816,0.0,0.0,0.0,0.0,0.0,0.0,0.0,0.0,0.0,0.0,0.0,0.0,0.0,0.0,0.0,0.0,0.0,0.0,0.0,0.0,0.0,0.0,0.0,0.0,0.0,0.0,0.0,0.0,0.0,0.0,0.0,0.0,0.0,0.0,0.0,0.0,0.0,0.0,0.0,0.0,0.0,0.0,0.0,0.0,0.0,0.0,0.0,0.0,0.0,0.0,5.9183,5.9713,6.003,6.1187,6.242,6.242,6.2488,6.2546,6.2265,6.2298,6.2374,6.2067,6.2107,6.237,6.3061,6.3214,6.3461,6.4367,6.512,6.5627,6.5736,6.6315,6.6779,6.6779,6.7539,6.8416,6.9083,7.0633,7.1957,7.2754,7.4194,7.4857,7.4261,7.5267,7.5726,7.5124,7.4976,7.5013,7.5215,7.594,7.6725,7.7615,7.7666,7.7975,7.8698,7.8807,7.9195,7.9891,7.9989,8.0431,8.1119,8.1119,8.1119,8.1119,8.1119,0.0,8.1119,8.1119,8.1119,8.1119,8.1119,8.1119,8.1119,8.1119,8.1119,8.1119,0.0,0.0,0.0,0.0,0.0,0.0,0.0,0.0,0.0,0.0,0.0,0.0,0.0,0.0,0.0,0.0,0.0,0.0,0.0,0.0,0.0,0.0,0.0,0.0,0.0,0.0,0.0,0.0,0.0,0.0,0.0,0.0,0.0,0.0,0.0,0.0,0.0,0.0,0.0,0.0,0.0,0.0,0.0,0.0,0.0,0.0,0.0,0.0,0.0,0.0,5.9389,6.0042,6.0779,6.1624,6.242,6.242,6.2488,6.2546,6.2265,6.2377,6.2468,6.2094,6.2107,6.237,6.3061,6.3214,6.3613,6.5084,6.5482,6.5808,6.646,6.6714,6.6779,6.6779,6.8025,6.9047,6.9199,7.1096,7.279,7.3587,7.452,7.5311,7.5817,7.4893,7.4451,7.4884,7.4329,7.4542,7.5925,7.6201,7.6949,7.8467,7.8449,7.8501,7.8609,7.9288,7.9691,7.9844,8.0559,8.0975,8.1119,8.1119,8.1119,8.1119,8.1119,0.0,8.1119,8.1119,8.1119,8.1119,8.1119,8.1119,8.1119,8.1119,8.1119,8.1119,0.0,0.0,0.0,0.0,0.0,0.0,0.0,0.0,0.0,0.0,0.0,0.0,0.0,0.0,0.0,0.0,0.0,0.0,0.0,0.0,0.0,0.0,0.0,0.0,0.0,0.0,5.5474,5.6579,0.0,0.0,0.0,0.0,0.0,0.0,0.0,0.0,0.0,0.0,0.0,0.0,0.0,0.0,0.0,0.0,0.0,0.0,0.0,0.0,0.0,0.0,5.995,6.0347,6.1152,6.19,6.2513,6.2578,6.2648,6.2641,6.2364,6.2494,6.2584,6.2121,6.2458,6.3082,6.3698,6.4149,6.4801,6.5989,6.6207,6.6351,6.675,6.7141,6.7431,6.7431,6.8786,6.9808,6.9808,7.1857,7.3304,7.3289,7.4361,7.4887,7.4381,7.4356,7.4527,7.4923,7.4959,7.5292,7.6125,7.7022,7.7839,7.8629,7.8546,7.8712,7.9221,7.9578,7.9968,8.0464,8.0912,8.1119,8.1119,8.1119,8.1119,8.1119,8.1119,0.0,8.1119,8.1119,8.1119,8.1119,8.1119,8.1119,8.1119,8.1119,8.1119,8.1119,0.0,0.0,0.0,0.0,0.0,0.0,0.0,0.0,0.0,0.0,0.0,0.0,0.0,0.0,0.0,0.0,0.0,0.0,0.0,0.0,0.0,0.0,0.0,0.0,0.0,0.0,0.0,5.6036,5.6664,0.0,0.0,0.0,0.0,0.0,5.7195,0.0,0.0,0.0,0.0,0.0,0.0,0.0,0.0,0.0,0.0,0.0,0.0,0.0,0.0,0.0,6.0413,6.056,6.1557,6.2217,6.2667,6.2761,6.2793,6.2743,6.25,6.261,6.2703,6.2393,6.2989,6.3815,6.451,6.5185,6.5852,6.6649,6.6779,6.6851,6.704,6.7575,6.8046,6.8227,6.9474,7.046,7.0597,7.2509,7.3735,7.3275,7.4324,7.4626,7.3424,7.4272,7.5018,7.5187,7.5911,7.6343,7.6372,7.7575,7.8372,7.8559,7.8453,7.875,7.9493,7.9634,8.0073,8.0804,8.1003,8.0994,8.0804,8.1003,8.0994,8.0849,8.1012,0.0,0.0,8.1119,8.1119,8.1119,8.1119,8.1119,8.1119,8.1119,8.1119,8.1119,0.0,0.0,0.0,0.0,0.0,0.0,0.0,0.0,0.0,0.0,0.0,0.0,0.0,0.0,0.0,0.0,0.0,0.0,0.0,0.0,0.0,0.0,0.0,0.0,0.0,0.0,0.0,5.6188,5.6121,0.0,0.0,0.0,0.0,0.0,0.0,5.7195,5.7195,0.0,0.0,0.0,0.0,0.0,0.0,0.0,0.0,0.0,0.0,0.0,5.8259,5.9863,6.0413,6.067,6.2212,6.2743,6.2774,6.2786,6.2793,6.2761,6.2622,6.2686,6.2875,6.3175,6.3537,6.4068,6.522,6.5626,6.5981,6.6663,6.6779,6.7032,6.7756,6.7938,6.8235,6.8974,6.9844,7.0633,7.1313,7.2826,7.4134,7.4791,7.5002,7.5303,7.582,7.5317,7.522,7.5779,7.6575,7.7073,7.7159,7.7211,7.7596,7.8397,7.8415,7.8451,7.8534,7.9384,7.9841,7.9927,8.0712,8.064,7.9856,8.0721,8.0666,7.9956,8.0749,8.1119,0.0,8.1119,8.1119,8.1119,8.1119,8.1119,8.1119,8.1119,8.1119,8.1119,0.0,0.0,0.0,0.0,0.0,0.0,0.0,0.0,0.0,0.0,0.0,0.0,0.0,0.0,0.0,0.0,0.0,0.0,0.0,0.0,0.0,0.0,0.0,0.0,0.0,0.0,0.0,5.4895,5.5178,0.0,0.0,0.0,0.0,0.0,0.0,5.7239,5.7313,0.0,0.0,0.0,0.0,0.0,0.0,0.0,0.0,0.0,0.0,0.0,5.8259,5.9863,6.0413,6.067,6.2279,6.2793,6.2793,6.2793,6.2793,6.2768,6.2641,6.2698,6.2937,6.3411,6.3958,6.4628,6.5537,6.6069,6.6497,6.6721,6.6779,6.704,6.7865,6.8416,6.9011,6.9771,7.0561,7.1313,7.2102,7.3189,7.4002,7.4326,7.4345,7.4408,7.4682,7.433,7.4808,7.65,7.6902,7.7114,7.7185,7.7124,7.7263,7.7602,7.7062,7.704,7.7613,7.798,7.8444,7.8978,7.9319,7.9601,7.9766,8.0092,8.0363,8.0611,8.0948,8.1119,0.0,8.1119,8.1119,8.1119,8.1119,8.1119,8.1119,8.1119,8.1119,8.1119,0.0,0.0,0.0,0.0,0.0,0.0,0.0,0.0,0.0,0.0,0.0,0.0,0.0,0.0,0.0,0.0,0.0,0.0,0.0,0.0,0.0,0.0,0.0,0.0,0.0,0.0,0.0,0.0,0.0,5.5087,0.0,0.0,5.6436,5.6974,0.0,0.0,0.0,0.0,0.0,0.0,0.0,0.0,0.0,0.0,0.0,0.0,0.0,0.0,0.0,0.0,0.0,6.067,6.2279,0.0,0.0,0.0,6.2793,6.2774,6.2686,6.2913,6.3329,6.3872,6.4642,6.5448,6.6022,6.6605,6.6954,6.6844,6.704,6.7454,6.8206,6.9003,6.9808,7.0604,7.1168,7.1849,7.2899,7.3543,7.4085,7.4554,7.4563,7.4506,7.4368,7.424,7.499,7.6949,7.685,7.6691,7.6691,7.6691,7.6691,7.6691,7.63,7.6427,7.7074,7.7363,7.7808,7.8384,7.8678,7.9029,7.9414,7.9901,8.0326,8.0721,8.0985,8.1119,0.0,8.1119,8.1119,8.1119,8.1119,8.1119,8.1119,8.1119,8.1119,8.1119,0.0,0.0,0.0,0.0,0.0,0.0,0.0,0.0,0.0,0.0,0.0,0.0,0.0,0.0,0.0,0.0,0.0,0.0,0.0,0.0,0.0,0.0,0.0,0.0,0.0,0.0,0.0,0.0,0.0,0.0,0.0,0.0,5.6398,5.6429,0.0,0.0,0.0,0.0,0.0,0.0,0.0,0.0,0.0,0.0,0.0,0.0,0.0,0.0,0.0,0.0,0.0,0.0,0.0,0.0,0.0,0.0,6.2793,6.2793,6.2793,6.3423,6.4248,6.4832,6.5747,6.6576,6.6901,6.7261,6.7345,6.6881,6.7556,6.8385,6.9077,6.9844,7.0641,7.1386,7.1487,7.2066,7.3651,7.3905,7.4492,7.6094,7.6266,7.6207,7.6001,7.5787,7.6067,7.7041,7.6253,7.5687,7.5687,7.5687,7.5687,7.5687,7.6611,7.7074,7.7085,7.7945,7.8409,7.8419,7.9319,7.9289,7.8492,8.026,8.062,7.986,8.0721,8.1119,0.0,8.1119,8.1119,8.1119,8.1119,8.1119,8.1119,8.1119,8.1119,8.1119,0.0,0.0,0.0,0.0,0.0,0.0,0.0,0.0,0.0,0.0,0.0,0.0,0.0,0.0,0.0,0.0,0.0,0.0,0.0,0.0,0.0,0.0,0.0,0.0,0.0,0.0,0.0,0.0,0.0,0.0,0.0,0.0,0.0,5.6398,5.6659,5.715,0.0,0.0,0.0,0.0,0.0,0.0,0.0,0.0,0.0,0.0,0.0,0.0,0.0,0.0,0.0,0.0,0.0,0.0,0.0,0.0,0.0,6.2939,6.3539,6.3876,6.442,6.5689,6.6143,6.6445,6.7007,6.7133,6.7236,6.7555,6.7874,6.8469,6.9779,7.0242,7.0633,7.1386,7.1487,7.2066,7.3687,7.3437,7.3668,7.5272,7.5368,7.5201,7.5057,7.5453,7.5806,7.6124,7.5854,7.5709,7.5709,7.5709,7.5709,7.5709,7.5995,7.6148,7.6148,7.6439,7.6894,7.7504,7.7797,7.8118,7.843,7.8983,7.9084,7.8882,7.9795,8.022,0.0,8.0867,8.1119,8.1119,8.1119,8.1119,8.1119,8.1119,8.1119,8.1119,0.0,0.0,0.0,0.0,0.0,0.0,0.0,0.0,0.0,0.0,0.0,0.0,0.0,0.0,0.0,0.0,0.0,0.0,0.0,0.0,0.0,0.0,0.0,0.0,0.0,0.0,0.0,0.0,0.0,0.0,0.0,0.0,0.0,0.0,0.0,0.0,0.0,0.0,0.0,0.0,0.0,0.0,5.8002,0.0,0.0,0.0,0.0,0.0,0.0,0.0,0.0,0.0,0.0,0.0,0.0,0.0,0.0,0.0,0.0,6.4316,6.4867,6.6182,6.663,6.6852,6.722,6.7261,6.7352,6.7963,6.8317,6.8919,7.0177,7.0641,7.0959,7.1422,7.1487,7.2066,7.3687,7.3479,7.3839,7.5725,7.5271,7.4983,7.5481,7.5629,7.5709,7.5709,7.5709,7.5709,7.5709,7.5709,7.5709,7.5709,7.5709,7.5709,7.5709,7.5709,7.5995,7.6576,7.694,7.7396,7.7913,7.8262,7.8409,7.844,7.9029,0.0,0.0,8.0249,8.0575,8.0603,8.0967,8.1119,8.1119,8.1119,8.1119,8.1119,0.0,0.0,0.0,0.0,0.0,0.0,0.0,0.0,0.0,0.0,0.0,0.0,0.0,0.0,0.0,0.0,0.0,0.0,0.0,0.0,0.0,0.0,0.0,0.0,0.0,0.0,0.0,0.0,0.0,0.0,0.0,0.0,0.0,0.0,0.0,0.0,0.0,0.0,0.0,0.0,0.0,0.0,0.0,0.0,0.0,0.0,0.0,0.0,0.0,0.0,0.0,0.0,0.0,0.0,0.0,0.0,0.0,0.0,0.0,0.0,6.5515,6.6366,6.7143,6.766,6.7518,6.7476,0.0,6.816,6.8887,6.9597,7.0338,7.1031,7.1487,7.1487,7.1559,7.2138,7.3687,7.3923,7.4769,7.6951,7.5777,7.5356,7.6881,7.6195,7.5709,7.5709,7.5709,7.5709,7.5709,7.5709,7.5709,7.5709,7.5709,7.5709,7.5709,7.5709,7.5745,7.5794,7.6691,7.7085,7.7119,7.7934,7.8283,0.0,7.8283,0.0,0.0,7.9394,7.9757,7.9798,8.074,8.1119,8.1119,8.1119,8.1119,8.1119,0.0,0.0,0.0,0.0,0.0,0.0,0.0,0.0,0.0,0.0,0.0,0.0,0.0,0.0,0.0,0.0,0.0,0.0,0.0,0.0,0.0,0.0,0.0,0.0,0.0,0.0,0.0,0.0,0.0,0.0,0.0,0.0,0.0,0.0,0.0,0.0,0.0,0.0,0.0,0.0,0.0,0.0,0.0,0.0,0.0,0.0,5.8002,5.8002,0.0,0.0,0.0,0.0,0.0,0.0,0.0,0.0,6.3276,0.0,0.0,0.0,6.5625,6.707,6.7554,0.0,0.0,0.0,0.0,0.0,0.0,6.9665,7.0995,7.1386,7.1487,7.1487,7.203,7.2754,7.376,7.4351,7.4834,7.5339,7.4953,7.5022,7.5929,7.5818,7.5709,7.5709,7.5709,7.5709,7.5709,7.5709,7.5709,7.5709,7.5709,7.5709,7.5709,7.5709,7.6066,7.6782,7.6973,7.7085,7.712,7.7319,7.7018,7.6358,0.0,0.0,7.7515,7.9145,7.9802,7.9844,8.0749,8.1119,8.1119,8.1119,8.1119,8.1119,0.0,0.0,0.0,0.0,0.0,0.0,0.0,0.0,0.0,0.0,0.0,0.0,0.0,0.0,0.0,0.0,0.0,0.0,0.0,0.0,0.0,0.0,0.0,0.0,0.0,0.0,0.0,0.0,0.0,0.0,0.0,0.0,0.0,0.0,0.0,0.0,0.0,0.0,0.0,0.0,5.8002,0.0,0.0,0.0,0.0,0.0,5.8002,5.8002,0.0,5.9863,6.0413,6.067,0.0,0.0,0.0,0.0,6.3429,0.0,0.0,0.0,0.0,0.0,0.0,0.0,0.0,0.0,0.0,0.0,0.0,7.0097,7.1277,7.1487,7.1487,7.1487,7.2175,7.2967,7.3789,7.4487,7.4885,7.4794,7.4685,7.4886,7.5642,7.5709,7.5709,7.5709,7.5709,7.5709,7.5709,7.5709,7.5709,7.5709,7.5709,7.5709,7.5709,7.5709,7.5948,7.645,7.645,7.645,7.645,7.645,7.6194,7.5745,0.0,0.0,7.6576,7.7969,7.8785,7.924,8.0137,8.074,8.1119,8.1119,8.1119,8.1119,0.0,0.0,0.0,0.0,0.0,0.0,0.0,0.0,0.0,0.0,0.0,0.0,0.0,0.0,0.0,0.0,0.0,0.0,0.0,0.0,0.0,0.0,0.0,0.0,0.0,0.0,0.0,0.0,0.0,0.0,0.0,0.0,0.0,0.0,0.0,0.0,0.0,0.0,0.0,0.0,5.8002,0.0,0.0,0.0,0.0,0.0,0.0,0.0,0.0,5.9905,6.0487,6.0854,6.2316,0.0,0.0,0.0,0.0,0.0,0.0,0.0,0.0,0.0,0.0,0.0,0.0,0.0,0.0,0.0,0.0,7.0641,7.135,7.1487,7.1523,7.1668,7.2464,7.3305,7.3976,7.4646,7.5015,7.4829,7.4787,7.5021,7.5642,7.5709,7.5709,7.5709,7.5709,7.5709,7.5709,7.5709,7.5709,7.5709,7.5709,7.5709,7.5709,7.5709,7.5709,7.5709,7.5709,7.5709,7.5709,7.5709,7.5709,7.5709,0.0,0.0,7.5759,7.6713,7.7613,7.8503,7.9444,8.0258,8.0912,8.0903,8.0794,8.0694,0.0,0.0,0.0,0.0,0.0,0.0,0.0,0.0,0.0,0.0,0.0,0.0,0.0,0.0,0.0,0.0,0.0,0.0,0.0,0.0,0.0,0.0,0.0,0.0,0.0,0.0,0.0,0.0,0.0,0.0,0.0,0.0,0.0,0.0,0.0,0.0,0.0,0.0,0.0,0.0,5.8002,0.0,0.0,0.0,0.0,0.0,0.0,0.0,0.0,6.0083,6.086,6.16,6.2505,0.0,0.0,0.0,0.0,0.0,6.5251,0.0,0.0,0.0,0.0,0.0,0.0,0.0,0.0,0.0,6.9958,7.0641,7.135,7.1487,7.1704,7.2428,7.376,7.4776,7.4914,7.544,7.5578,7.4863,7.5241,7.5574,7.5676,7.5709,7.5709,7.5709,7.5709,7.5709,7.5709,7.5709,7.5709,7.5709,7.5709,7.5709,7.5709,7.5709,7.5709,7.5709,7.5709,7.5709,7.5709,7.5709,7.5709,7.5709,0.0,7.5709,7.5759,7.6713,7.7613,7.8503,7.9444,7.9879,7.9985,7.994,7.9467,7.8917,0.0,0.0,0.0,0.0,0.0,0.0,0.0,0.0,0.0,0.0,0.0,0.0,0.0,0.0,0.0,0.0,0.0,0.0,0.0,0.0,0.0,0.0,0.0,0.0,0.0,0.0,0.0,0.0,0.0,0.0,0.0,0.0,0.0,0.0,0.0,0.0,0.0,0.0,0.0,0.0,0.0,0.0,0.0,0.0,0.0,0.0,0.0,0.0,0.0,0.0,6.0933,6.1747,6.2542,0.0,0.0,0.0,0.0,0.0,6.5288,6.6476,0.0,0.0,0.0,0.0,0.0,0.0,0.0,0.0,0.0,7.1096,7.1458,7.1487,7.1757,7.2581,7.368,7.4431,7.436,7.4916,7.5174,7.473,7.5303,7.5709,7.5709,7.5709,7.5709,7.5709,7.5709,7.5709,7.5709,7.5709,7.5709,7.5709,7.5709,7.5709,7.5709,7.5709,7.5709,7.5709,7.5709,7.5709,7.5709,7.5709,7.5709,7.5709,0.0,7.5709,7.5745,7.6183,7.6883,7.7743,7.8171,7.8631,7.9084,7.9443,7.9354,7.915,0.0,0.0,0.0,0.0,0.0,0.0,0.0,0.0,0.0,0.0,0.0,0.0,0.0,0.0,0.0,0.0,0.0,0.0,0.0,0.0,0.0,0.0,0.0,0.0,0.0,0.0,0.0,0.0,0.0,0.0,0.0,0.0,0.0,0.0,0.0,0.0,0.0,0.0,0.0,0.0,0.0,0.0,0.0,0.0,0.0,0.0,0.0,0.0,0.0,0.0,0.0,0.0,0.0,0.0,0.0,0.0,6.415,6.5331,6.5515,6.6623,0.0,0.0,0.0,0.0,0.0,0.0,0.0,0.0,0.0,7.1487,7.1487,7.1812,7.2323,7.3121,7.3788,7.4121,7.399,7.4457,7.4758,7.4631,7.5258,7.5709,7.5709,7.5709,7.5709,7.5709,7.5709,7.5709,7.5709,7.5709,7.5709,7.5709,7.5709,7.5709,7.5709,7.5709,7.5709,7.5709,7.5709,7.5709,7.5709,7.5709,7.5709,7.5709,7.5709,7.5709,7.5709,7.5709,7.6242,7.7085,7.7085,7.7597,7.8411,7.8757,7.9111,7.9588,0.0,0.0,0.0,0.0,0.0,0.0,0.0,0.0,0.0,0.0,0.0,0.0,0.0,0.0,0.0,0.0,0.0,0.0,0.0,0.0,0.0,0.0,0.0,0.0,0.0,0.0,0.0,0.0,0.0,0.0,0.0,0.0,0.0,0.0,0.0,0.0,0.0,0.0,0.0,0.0,0.0,0.0,0.0,0.0,0.0,0.0,0.0,0.0,0.0,0.0,0.0,0.0,0.0,0.0,0.0,0.0,0.0,6.5478,6.6219,6.7033,0.0,0.0,0.0,0.0,0.0,0.0,0.0,6.9237,0.0,0.0,7.1487,7.2718,7.3997,7.4816,7.4965,7.4965,7.4827,7.4816,7.4758,7.4631,7.5258,7.5709,7.5709,7.5709,7.5709,7.5709,7.5709,7.5709,7.5709,7.5709,7.5709,7.5709,7.5709,7.5709,7.5709,7.5709,7.5709,7.5709,7.5709,7.5709,7.5709,7.5709,7.5709,7.5709,7.5709,7.5709,7.5709,7.5709,7.6242,7.7085,7.7085,7.7567,7.8109,7.7354,7.7946,7.9121,0.0,0.0,0.0,0.0,0.0,0.0,0.0,0.0,0.0,0.0,0.0,0.0,0.0,0.0,0.0,0.0,0.0,0.0,0.0,0.0,0.0,0.0,0.0,0.0,0.0,0.0,0.0,0.0,0.0,0.0,0.0,0.0,0.0,0.0,0.0,0.0,0.0,0.0,0.0,0.0,0.0,0.0,0.0,0.0,0.0,0.0,0.0,0.0,0.0,0.0,0.0,0.0,0.0,0.0,0.0,0.0,0.0,6.5478,6.6292,6.7106,0.0,0.0,0.0,0.0,0.0,0.0,0.0,6.9859,7.0778,0.0,7.2138,7.3153,7.3997,7.4293,7.3864,7.3806,7.4709,7.4366,7.432,7.517,7.554,7.5709,7.5709,7.5709,7.5709,7.5709,7.5709,7.5709,7.5709,7.5709,7.5709,7.5709,7.5709,7.5709,7.5709,7.5709,7.5709,7.5709,7.5709,7.5709,7.5709,7.5709,7.5709,7.5709,7.5709,7.5709,7.5709,7.5709,7.5901,7.6241,7.6241,7.6718,7.7421,7.7547,7.8247,7.9247,0.0,0.0,0.0,0.0,0.0,0.0,0.0,0.0,0.0,0.0,0.0,0.0,0.0,0.0,0.0,0.0,0.0,0.0,0.0,0.0,0.0,0.0,0.0,0.0,0.0,0.0,0.0,0.0,0.0,0.0,0.0,0.0,0.0,0.0,0.0,0.0,0.0,0.0,0.0,0.0,0.0,0.0,0.0,0.0,0.0,0.0,0.0,0.0,0.0,0.0,0.0,0.0,0.0,0.0,0.0,0.0,0.0,0.0,6.6586,6.729,6.7687,0.0,0.0,0.0,0.0,0.0,0.0,7.0242,7.1176,7.2211,7.3261,7.3688,7.4056,7.4591,7.3448,7.3124,7.4935,7.4193,7.4063,7.5506,7.5709,7.5709,7.5709,7.5709,7.5709,7.5709,7.5709,7.5709,7.5709,7.5709,7.5709,7.5709,7.5709,7.5709,7.5709,7.5709,7.5709,7.5709,7.5709,7.5709,7.5709,7.5709,7.5709,7.5709,7.5709,7.5709,7.5709,7.5709,7.5709,7.5709,7.5709,7.6318,7.7312,7.7819,7.8619,7.9598,0.0,0.0,0.0,0.0,0.0,0.0,0.0,0.0,0.0,0.0,0.0,0.0,0.0,0.0,0.0,0.0,0.0,0.0,0.0,0.0,0.0,0.0,0.0,0.0,0.0,0.0,0.0,0.0,0.0,0.0,0.0,0.0,0.0,0.0,0.0,0.0,0.0,0.0,0.0,0.0,0.0,0.0,0.0,0.0,0.0,0.0,0.0,0.0,0.0,0.0,0.0,0.0,0.0,0.0,0.0,0.0,6.5295,6.5662,6.7253,6.77,6.7667,0.0,0.0,0.0,0.0,0.0,0.0,7.0242,7.1639,7.3225,7.481,7.4443,7.444,7.6012,7.4178,7.3334,7.5658,7.4547,7.4063,7.554,7.5709,7.5709,7.5709,7.5709,7.5709,7.5709,7.5709,7.5709,7.5709,7.5709,7.5709,7.5709,7.5709,7.5709,7.5709,7.5709,7.5709,7.5709,7.5709,7.5709,7.5709,7.5709,7.5709,7.5709,7.5709,7.5709,7.5709,7.5709,7.5709,7.5709,7.5709,7.6657,7.7988,7.8022,7.8936,8.0209,0.0,0.0,0.0,0.0,0.0,0.0,0.0,0.0,0.0,0.0,0.0,0.0,0.0,0.0,0.0,0.0,0.0,0.0,0.0,0.0,0.0,0.0,0.0,0.0,0.0,0.0,0.0,0.0,0.0,0.0,0.0,0.0,0.0,0.0,0.0,0.0,0.0,0.0,0.0,0.0,0.0,0.0,0.0,0.0,0.0,0.0,0.0,0.0,0.0,0.0,0.0,0.0,0.0,0.0,0.0,0.0,6.5698,6.6366,6.74,6.7626,6.7538,6.749,6.7895,0.0,0.0,6.9726,0.0,0.0,7.3297,7.452,7.5027,7.491,7.4887,7.5362,7.4256,7.378,7.4983,7.465,7.4627,7.5574,7.5709,7.5709,7.5709,7.5709,7.5709,7.5709,7.5709,7.5709,7.5709,7.5709,7.5709,7.5709,7.5709,7.5709,7.5709,7.5709,7.5709,7.5709,7.5709,7.5709,7.5709,7.5709,7.5709,7.5709,7.5709,7.5709,7.5709,7.5709,7.5709,7.5743,7.6318,7.7142,7.8056,7.8585,7.9397,8.0288,0.0,0.0,0.0,0.0,0.0,0.0,0.0,0.0,0.0,0.0,0.0,0.0,0.0,0.0,0.0,0.0,0.0,0.0,0.0,0.0,0.0,0.0,0.0,0.0,0.0,0.0,0.0,0.0,0.0,0.0,0.0,0.0,0.0,0.0,0.0,0.0,0.0,0.0,0.0,0.0,0.0,0.0,0.0,0.0,0.0,0.0,0.0,0.0,0.0,0.0,0.0,0.0,0.0,0.0,0.0,6.5448,6.6109,6.6653,6.7406,6.7545,6.7522,6.7726,6.824,6.9017,7.0409,7.1014,7.1675,7.2935,7.4194,7.5089,7.509,7.4824,7.4584,7.4584,7.3815,7.3548,7.4642,7.4673,7.4852,7.5608,7.5709,7.5709,7.5709,7.5709,7.5709,7.5709,7.5709,7.5709,7.5709,7.5709,7.5709,7.5709,7.5709,7.5709,7.5709,7.5709,7.5709,7.5709,7.5709,7.5709,7.5709,7.5709,7.5709,7.5709,7.5709,7.5709,7.5709,7.5709,7.5709,7.5777,7.6589,7.7333,7.809,7.8809,7.9566,8.0276,0.0,0.0,0.0,0.0,0.0,0.0,0.0,0.0,0.0,0.0,0.0,0.0,0.0,0.0,0.0,0.0,0.0,0.0,0.0,0.0,0.0,0.0,0.0,0.0,0.0,0.0,0.0,0.0,0.0,0.0,0.0,0.0,0.0,0.0,0.0,0.0,0.0,0.0,0.0,0.0,0.0,0.0,0.0,0.0,0.0,0.0,0.0,0.0,0.0,0.0,0.0,0.0,0.0,0.0,6.45,6.6042,6.6543,6.6723,6.7334,6.7463,6.7585,6.8066,6.8843,7.0061,7.2206,7.2754,7.3044,7.3832,7.4665,7.5224,7.5219,7.4508,7.3887,7.3809,7.314,7.3096,7.4502,7.4684,7.4953,7.5608,7.5709,7.5709,7.5709,7.5709,7.5709,7.5709,7.5709,7.5709,7.5709,7.5709,7.5709,7.5709,7.5709,7.5709,7.5709,7.5709,7.5709,7.5709,7.5709,7.5709,7.5709,7.5709,7.5709,7.5709,7.5709,7.5709,7.5709,7.5709,7.5709,7.5777,7.6657,7.7401,7.809,7.8911,7.9621,8.0209,0.0,0.0,0.0,0.0,0.0,0.0,0.0,0.0,0.0,0.0,0.0,0.0,0.0,0.0,0.0,0.0,0.0,0.0,0.0,0.0,0.0,0.0,0.0,0.0,0.0,0.0,0.0,0.0,0.0,0.0,0.0,0.0,0.0,0.0,0.0,0.0,0.0,0.0,0.0,0.0,0.0,0.0,0.0,0.0,0.0,0.0,0.0,0.0,0.0,0.0,0.0,0.0,6.3839,6.453,6.5221,6.6219,6.688,6.7334,6.7454,6.7303,6.728,6.8008,6.9211,7.0636,7.2327,7.3189,7.3868,7.4665,7.547,7.6052,7.6044,7.5371,7.4593,7.3907,7.4062,7.4156,7.3833,7.4756,7.5506,7.5676,7.5709,7.5709,7.5709,7.5709,7.5709,7.5709,7.5709,7.5709,7.5709,7.5709,7.5709,7.5709,7.5709,7.5709,7.5709,7.5709,7.5709,0.0,7.5709,7.5709,7.5709,7.5709,7.5709,7.5709,7.5709,7.5709,7.5709,7.5709,7.5709,7.5845,7.721,7.7853,7.8157,7.9464,8.0073,8.0209,0.0,0.0,0.0,0.0,0.0,0.0,0.0,0.0,0.0,0.0,0.0,0.0,0.0,0.0,0.0,0.0,0.0,0.0,0.0,0.0,0.0,0.0,0.0,0.0,0.0,0.0,0.0,0.0,0.0,0.0,0.0,0.0,0.0,0.0,0.0,0.0,0.0,0.0,0.0,0.0,0.0,0.0,0.0,0.0,0.0,0.0,0.0,0.0,0.0,0.0,0.0,0.0,0.0,0.0,6.6035,6.6849,6.731,6.7552,6.7407,6.7502,6.792,6.8972,7.0115,7.1357,7.2935,7.3587,7.4239,7.5434,7.5706,7.5611,7.5173,7.4416,7.3572,7.2721,7.3476,7.4014,7.3558,7.4774,7.5709,7.5709,7.5709,7.5709,7.5709,7.5709,7.5709,7.5709,7.5709,7.5709,7.5709,7.5709,7.5709,7.5709,7.5709,7.5709,7.5709,7.5709,7.5709,7.5709,7.5709,7.5709,7.5709,7.5709,7.5709,7.5709,7.5709,7.5709,7.5709,7.5709,7.5912,7.6386,7.7548,7.8225,7.8653,7.9803,8.0209,8.0209,0.0,0.0,0.0,0.0,0.0,0.0,0.0,0.0,0.0,0.0,0.0,0.0,0.0,0.0,0.0,0.0,0.0,0.0,0.0,0.0,0.0,0.0,0.0,0.0,0.0,0.0,0.0,0.0,0.0,0.0,0.0,0.0,0.0,0.0,0.0,0.0,0.0,0.0,0.0,0.0,0.0,0.0,0.0,0.0,0.0,0.0,0.0,0.0,0.0,0.0,0.0,0.0,0.0,0.0,6.6666,6.748,6.768,6.7643,6.7498,6.8115,6.9019,7.013,7.0959,7.1921,7.3543,7.3905,7.4347,7.5958,7.5768,7.5054,7.4168,7.3312,7.2448,7.1622,7.2643,7.3488,7.3488,7.4774,7.5709,7.5709,7.5709,7.5709,7.5709,7.5709,7.5709,7.5709,7.5709,7.5709,7.5709,7.5709,7.5709,7.5709,7.5709,7.5709,7.5709,7.5709,7.5709,7.5709,7.5709,7.5709,7.5709,7.5709,7.5709,7.5709,7.5709,7.5709,7.5709,7.5709,7.6183,7.6961,7.7718,7.845,7.9181,7.9938,8.0209,8.0209,0.0,0.0,0.0,0.0,0.0,0.0,0.0,0.0,0.0,0.0,0.0,0.0,0.0,0.0,0.0,0.0,0.0,0.0,0.0,0.0,0.0,0.0,0.0,0.0,0.0,0.0,0.0,0.0,0.0,0.0,0.0,0.0,0.0,0.0,0.0,0.0,0.0,0.0,0.0,0.0,0.0,0.0,0.0,0.0,0.0,0.0,0.0,0.0,0.0,0.0,6.3986,0.0,0.0,0.0,6.6666,6.748,6.7613,6.768,6.8327,6.9398,7.0319,7.039,7.0959,7.1921,7.3543,7.3905,7.4347,7.5958,7.6208,7.5881,7.5082,7.4197,7.3342,7.248,7.2992,7.3488,7.3488,7.4774,7.5709,7.5709,7.5709,7.5709,7.5709,7.5709,7.5709,7.5709,7.5709,7.5709,7.5709,7.5709,7.5709,7.5709,7.5709,7.5709,7.5709,7.5709,7.5709,7.5709,7.5709,7.5709,7.5709,7.5709,7.5709,7.5709,7.5709,7.5709,7.5709,7.5709,7.6183,7.6961,7.7718,7.845,7.9181,7.9938,8.0209,8.0209,0.0,0.0,0.0,0.0,0.0,0.0,0.0,0.0,0.0,0.0,0.0,0.0,0.0,0.0,0.0,0.0,0.0,0.0,0.0,0.0,0.0,0.0,0.0,0.0,0.0,0.0,0.0,0.0,0.0,0.0,0.0,5.8002,5.8002,0.0,0.0,0.0,0.0,0.0,0.0,0.0,0.0,0.0,0.0,0.0,0.0,0.0,0.0,0.0,0.0,0.0,0.0,6.5565,6.6292,0.0,0.0,0.0,6.7977,6.8511,6.9572,7.0244,7.0652,7.0962,7.1277,7.1812,7.2971,7.3579,7.4231,7.5398,7.5985,7.5898,7.4612,7.3661,7.2815,7.1971,7.2768,7.3488,7.3488,7.4774,7.5709,7.5709,7.5709,7.5709,7.5709,7.5709,7.5709,7.5709,7.5709,7.5709,7.5709,7.5709,7.5709,7.5709,7.5709,7.5709,7.5709,7.5709,7.5709,7.5709,7.5709,7.5709,7.5709,7.5709,7.5709,7.5709,7.5709,7.5709,7.5709,7.5709,7.642,7.7548,7.7887,7.8699,7.9769,8.0073,8.0209,8.0209,0.0,0.0,0.0,0.0,0.0,0.0,0.0,0.0,0.0,0.0,0.0,0.0,0.0,0.0,0.0,0.0,0.0,0.0,0.0,0.0,0.0,0.0,0.0,0.0,0.0,0.0,0.0,0.0,0.0,0.0,5.8002,5.8002,5.8107,0.0,5.8284,0.0,0.0,0.0,0.0,0.0,0.0,0.0,0.0,0.0,0.0,0.0,0.0,0.0,0.0,0.0,0.0,0.0,6.6739,6.7217,0.0,0.0,0.0,6.971,7.0617,7.0914,7.1047,7.1451,7.1526,7.1704,7.2537,7.3325,7.4073,7.4685,7.5606,7.5706,7.3829,7.3119,7.249,7.1457,7.2529,7.3488,7.3488,7.4774,7.5709,7.5709,7.5709,7.5709,7.5709,7.5709,7.5709,7.5709,7.5709,7.5709,7.5709,7.5709,7.5709,7.5709,7.5709,7.5709,7.5709,7.5709,7.5709,7.5709,7.5709,7.5709,7.5709,7.5709,7.5709,7.5709,7.5709,7.5709,7.5709,7.5912,7.6804,7.8022,7.8225,7.9058,8.0209,8.0209,8.0209,8.0209,0.0,0.0,0.0,0.0,0.0,0.0,0.0,0.0,0.0,0.0,0.0,0.0,0.0,0.0,0.0,0.0,0.0,0.0,0.0,0.0,0.0,0.0,0.0,0.0,0.0,0.0,0.0,0.0,0.0,0.0,5.8002,5.8002,5.8394,5.9159,5.9159,5.9153,5.93,0.0,0.0,0.0,0.0,0.0,0.0,0.0,0.0,0.0,0.0,0.0,0.0,0.0,0.0,0.0,0.0,0.0,6.7847,0.0,0.0,0.0,7.1114,7.1516,7.1906,7.1803,7.164,7.1704,7.2537,7.3325,7.3896,7.3966,7.522,7.5539,7.3037,7.32,7.3215,7.1568,7.2529,7.3488,7.3488,7.4774,7.5709,7.5709,7.5709,7.5709,7.5709,7.5709,7.5709,7.5709,7.5709,7.5709,7.5709,7.5709,7.5709,7.5709,7.5709,7.5709,7.5709,7.5709,7.5709,7.5709,7.5709,7.5709,7.5709,7.5709,7.5709,7.5709,7.5709,7.5709,7.5743,7.6521,7.7299,7.8056,7.8788,7.9532,8.0209,8.0209,8.0209,8.0209,0.0,0.0,0.0,0.0,0.0,0.0,0.0,0.0,0.0,0.0,0.0,0.0,0.0,0.0,0.0,0.0,0.0,0.0,0.0,0.0,0.0,0.0,0.0,0.0,0.0,0.0,0.0,0.0,0.0,5.8002,5.8002,5.8541,5.8902,5.919,5.919,5.9783,6.0786,6.138,0.0,0.0,0.0,0.0,0.0,0.0,0.0,0.0,0.0,0.0,0.0,0.0,0.0,0.0,0.0,0.0,0.0,0.0,7.0866,7.1381,7.1758,7.1932,7.1957,7.1819,7.1648,7.1567,7.1849,7.2537,7.313,7.3136,7.4421,7.4903,7.2862,7.3211,7.3231,7.1579,7.2157,7.2981,7.3421,7.4356,7.5168,7.5642,7.5709,7.5709,7.5709,7.5709,7.5709,7.5709,7.5709,7.5709,7.5709,7.5709,7.5709,7.5709,7.5709,7.5709,7.5709,7.5709,7.5709,7.5709,7.5709,7.5709,7.5709,7.5709,7.5709,7.5709,7.5709,7.5709,7.5743,7.6555,7.7333,7.8056,7.8809,7.9553,8.0209,8.0209,8.0209,8.0209,0.0,0.0,0.0,0.0,0.0,0.0,0.0,0.0,0.0,0.0,0.0,0.0,0.0,0.0,0.0,0.0,0.0,0.0,0.0,0.0,0.0,0.0,0.0,0.0,0.0,0.0,0.0,0.0,0.0,0.0,0.0,0.0,5.9484,6.0003,6.0003,0.0,0.0,0.0,0.0,6.2793,0.0,0.0,6.3313,0.0,0.0,0.0,0.0,0.0,0.0,0.0,0.0,0.0,0.0,0.0,0.0,0.0,0.0,7.1806,7.2263,7.2196,7.1973,7.1895,7.1695,7.1487,7.1487,7.2319,7.2947,7.2397,7.3988,7.4824,7.2503,7.3261,7.3572,7.1623,7.1909,7.2665,7.3387,7.4119,7.4852,7.5608,7.5709,7.5709,7.5709,7.5709,7.5709,7.5709,7.5709,0.0,7.5709,7.5709,7.5709,7.5709,7.5709,7.5709,7.5709,7.5709,7.5709,7.5709,7.5709,7.5709,7.5709,7.5709,7.5709,7.5709,7.5709,7.5709,7.5777,7.6826,7.7548,7.809,7.9092,7.9769,8.0209,8.0209,8.0209,8.0209,0.0,0.0,0.0,0.0,0.0,0.0,0.0,0.0,0.0,0.0,0.0,0.0,0.0,0.0,0.0,0.0,0.0,0.0,0.0,0.0,0.0,0.0,0.0,0.0,0.0,0.0,0.0,0.0,0.0,0.0,0.0,0.0,6.012,0.0,6.1637,6.1637,6.171,0.0,6.2793,6.2793,0.0,6.3349,6.4103,0.0,0.0,0.0,6.6256,6.6549,0.0,6.7444,0.0,0.0,0.0,0.0,0.0,0.0,0.0,0.0,0.0,0.0,0.0,7.2003,7.178,7.1531,7.1531,7.2754,7.3426,7.1819,7.4029,7.5263,7.1928,7.3377,7.4242,7.1732,7.1921,7.2631,7.3364,7.4086,7.4852,7.5574,7.5676,7.5709,7.5709,7.5709,7.5709,7.5709,7.5709,7.5709,7.5709,7.5709,7.5709,7.5709,7.5709,7.5709,7.5709,7.5709,7.5709,7.5709,7.5709,7.5709,7.5709,7.5709,7.5709,7.5709,7.5709,7.5709,7.5811,7.7345,7.7988,7.8157,7.96,8.0209,8.0209,8.0209,8.0209,8.0209,0.0,0.0,0.0,0.0,0.0,0.0,0.0,0.0,0.0,0.0,0.0,0.0,0.0,0.0,0.0,0.0,0.0,0.0,0.0,0.0,0.0,0.0,0.0,0.0,0.0,0.0,0.0,0.0,0.0,0.0,0.0,0.0,0.0,0.0,6.2218,6.2469,6.2462,6.2719,0.0,0.0,6.3503,6.3876,0.0,0.0,0.0,0.0,0.0,6.7363,6.7407,0.0,6.8098,6.8825,0.0,0.0,0.0,0.0,0.0,0.0,7.2488,0.0,0.0,0.0,0.0,0.0,7.2356,7.3152,7.3757,7.3306,7.4391,7.4761,7.2576,7.3251,7.3711,7.2409,7.2346,7.2518,7.2666,7.3341,7.4086,7.483,7.5371,7.5709,7.5709,7.5709,7.5709,0.0,7.5709,7.5709,7.5709,7.5709,7.5709,7.5709,7.5709,7.5709,7.5709,7.5709,7.5709,7.5709,7.5709,7.5709,7.5709,7.5709,7.5709,7.5709,7.5709,7.5709,7.5811,7.7345,7.7988,7.8157,7.96,8.0209,8.0209,8.0209,8.0209,8.0209,0.0,0.0,0.0,0.0,0.0,0.0,0.0,0.0,0.0,0.0,0.0,0.0,0.0,0.0,0.0,0.0,0.0,0.0,0.0,0.0,0.0,0.0,0.0,0.0,0.0,0.0,0.0,0.0,0.0,0.0,0.0,0.0,0.0,0.0,0.0,0.0,0.0,0.0,0.0,0.0,6.4273,0.0,0.0,6.6145,6.6703,0.0,0.0,0.0,6.7737,6.8098,6.8972,0.0,0.0,0.0,0.0,0.0,0.0,0.0,0.0,0.0,0.0,0.0,0.0,0.0,7.3108,7.3832,7.4321,7.3958,7.4825,7.5071,7.3348,7.375,7.3936,7.2686,7.2512,7.2596,7.2898,7.3298,7.3833,7.4527,7.4987,7.5371,7.5676,7.5709,7.5709,7.5709,7.5709,7.5865,7.6253,7.5913,7.5877,7.6253,7.5901,7.5709,7.5709,7.5709,7.5709,7.5709,7.5709,7.5709,7.5709,7.5709,7.5709,7.5709,7.5709,7.5709,7.5811,7.7345,7.7988,7.8157,7.96,8.0209,8.0209,8.0209,8.0209,8.0209,0.0,0.0,0.0,0.0,0.0,0.0,0.0,0.0,0.0,0.0,0.0,0.0,0.0,0.0,0.0,0.0,0.0,0.0,0.0,0.0,0.0,0.0,0.0,0.0,0.0,0.0,0.0,0.0,0.0,0.0,0.0,0.0,0.0,0.0,0.0,0.0,0.0,0.0,0.0,6.4427,6.5154,6.5845,0.0,0.0,6.707,6.77,6.77,6.7774,6.7951,6.8855,7.0132,0.0,0.0,0.0,0.0,0.0,7.2488,0.0,0.0,0.0,0.0,0.0,0.0,0.0,7.3877,7.4665,7.5033,7.4314,7.529,7.5821,7.4235,7.4584,7.4593,7.3037,7.2697,7.2869,7.3464,7.3626,7.3941,7.4547,7.4634,7.4915,7.566,7.5633,7.5655,7.5842,7.5842,7.6229,7.7075,7.6229,7.6136,7.7086,7.6206,7.5709,7.5709,7.5709,7.5709,7.5709,7.5709,7.5709,7.5709,7.5709,7.5709,7.5709,7.5709,7.5709,7.5811,7.7345,7.7988,7.8157,7.96,8.0209,8.0209,8.0209,8.0209,8.0209,0.0,0.0,0.0,0.0,0.0,0.0,0.0,0.0,0.0,0.0,0.0,0.0,0.0,0.0,0.0,0.0,0.0,0.0,0.0,0.0,0.0,0.0,0.0,0.0,0.0,0.0,0.0,0.0,0.0,0.0,0.0,0.0,0.0,0.0,0.0,0.0,0.0,0.0,0.0,6.6042,6.6219,0.0,6.6549,6.7217,6.7554,6.77,6.77,6.8134,6.8892,7.0353,7.105,7.1417,0.0,0.0,0.0,7.2488,0.0,0.0,0.0,0.0,0.0,0.0,0.0,0.0,7.4879,7.5506,7.6024,7.5853,7.6082,7.6021,7.5036,7.499,7.5,7.4649,7.3994,7.3371,7.2824,7.3281,7.3966,7.4743,7.4811,7.5042,7.5786,7.5239,7.5361,7.6747,7.6838,7.6918,7.7074,7.6229,7.6136,7.7086,7.6206,7.5709,7.5709,7.5709,7.5709,7.5709,7.5709,7.5709,7.5709,7.5709,7.5709,7.5709,7.5709,7.5709,7.5811,7.7345,7.7988,7.8157,7.96,8.0209,8.0209,8.0209,8.0209,8.0209,0.0,0.0,0.0,0.0,0.0,0.0,0.0,0.0,0.0,0.0,0.0,0.0,0.0,0.0,0.0,0.0,0.0,0.0,0.0,0.0,0.0,0.0,0.0,0.0,0.0,0.0,0.0,0.0,0.0,0.0,0.0,0.0,0.0,0.0,0.0,0.0,0.0,0.0,6.6733,6.7106,6.7106,0.0,6.7143,6.7554,6.77,6.7737,6.8134,6.9082,7.0206,7.1013,7.1564,0.0,0.0,7.2488,7.2488,0.0,7.2488,7.257,0.0,0.0,0.0,7.4068,0.0,0.0,0.0,7.6022,7.6284,7.6284,7.6284,7.6174,7.5768,7.5353,7.5091,7.5091,7.4385,7.3799,7.3789,7.3395,7.3416,7.4201,7.4272,7.4708,7.5852,7.5187,7.5207,7.6453,7.6878,7.7495,7.8381,7.6691,7.6335,7.7711,7.6427,7.5709,7.5709,7.5709,7.5709,7.5709,7.5709,7.5709,7.5709,7.5709,7.5709,7.5709,7.5709,7.5709,7.5777,7.6973,7.7684,7.8157,7.96,8.0209,8.0209,8.0209,8.0209,8.0209,0.0,0.0,0.0,0.0,0.0,0.0,0.0,0.0,0.0,0.0,0.0,0.0,0.0,0.0,0.0,0.0,0.0,0.0,0.0,0.0,0.0,0.0,0.0,6.045,0.0,0.0,0.0,0.0,0.0,0.0,0.0,0.0,0.0,0.0,0.0,0.0,0.0,0.0,0.0,6.77,0.0,6.7811,6.7914,6.7914,6.8024,6.8281,6.9082,7.0206,7.1307,7.149,7.1975,7.2488,7.2488,7.2488,0.0,0.0,0.0,0.0,0.0,0.0,0.0,0.0,0.0,7.5737,0.0,0.0,0.0,7.6284,7.6284,7.6284,7.6284,7.5768,7.5317,7.5317,7.4612,7.4309,7.5009,7.374,7.3116,7.4081,7.4072,7.4516,7.5901,7.5735,7.5724,7.6219,7.6924,7.799,7.9454,7.7262,7.6634,7.8104,7.6736,7.5877,7.5709,7.5709,7.5709,7.5709,7.5709,7.5709,7.5709,7.5709,7.5709,7.5709,7.5709,7.5709,7.5743,7.6555,7.7333,7.8124,7.9464,8.0073,8.0209,8.0209,8.0209,8.0209,0.0,0.0,0.0,0.0,0.0,0.0,0.0,0.0,0.0,0.0,0.0,0.0,0.0,0.0,0.0,0.0,0.0,0.0,6.0276,0.0,0.0,0.0,0.0,0.0,6.1453,0.0,0.0,0.0,0.0,0.0,0.0,0.0,0.0,0.0,6.5999,0.0,0.0,0.0,6.7627,0.0,6.77,6.8134,0.0,6.8745,6.9192,6.9933,7.0727,7.1123,7.1417,0.0,7.2415,7.2488,0.0,7.2488,7.2488,7.2488,0.0,0.0,0.0,0.0,0.0,0.0,7.596,0.0,0.0,0.0,7.6284,7.6284,0.0,7.6284,7.6284,0.0,0.0,7.6157,7.5469,7.499,7.5082,7.4245,7.4242,7.5824,7.5388,7.526,7.609,7.7395,7.787,7.7106,7.7821,7.8346,7.8554,7.7526,7.7029,7.7241,7.7029,7.6542,7.5721,7.5709,7.5709,7.5709,7.5709,7.5709,7.5709,7.5709,7.5709,7.5709,7.5709,7.5709,7.5743,7.6555,7.7333,7.809,7.8911,7.9621,8.0209,8.0209,8.0209,8.0209,0.0,0.0,0.0,0.0,0.0,0.0,0.0,0.0,0.0,0.0,0.0,0.0,0.0,0.0,0.0,0.0,0.0,6.023,0.0,0.0,0.0,0.0,0.0,0.0,0.0,0.0,0.0,0.0,6.3539,0.0,0.0,0.0,0.0,0.0,6.6849,0.0,6.7253,0.0,6.8385,0.0,0.0,0.0,0.0,6.9259,6.9699,7.0837,7.1197,7.16,7.2048,0.0,7.2488,0.0,0.0,0.0,0.0,7.3046,0.0,0.0,0.0,0.0,0.0,0.0,0.0,0.0,7.6362,0.0,7.6284,0.0,0.0,0.0,0.0,0.0,0.0,0.0,7.6029,7.5795,7.5795,7.5478,7.5344,7.5593,7.5299,7.5225,7.5527,7.702,7.779,7.736,7.8055,7.8946,7.9894,7.8606,7.8118,7.8641,7.7659,7.6929,7.6508,7.5972,7.5972,7.6508,7.596,7.5983,7.6485,7.5948,7.5709,7.5709,7.5709,7.5709,7.5743,7.6048,7.6906,7.8022,7.8348,7.916,8.0209,8.0209,8.0209,8.0209,0.0,0.0,0.0,0.0,0.0,0.0,0.0,0.0,0.0,0.0,0.0,0.0,5.9973,6.0221,0.0,0.0,6.075,6.108,0.0,0.0,6.2175,0.0,0.0,0.0,0.0,0.0,0.0,0.0,0.0,0.0,0.0,0.0,0.0,0.0,0.0,6.77,6.7737,0.0,6.8892,6.8965,6.9779,7.058,7.1197,7.025,7.0617,7.1637,7.1637,7.2011,7.2481,7.2445,7.2431,0.0,7.2387,0.0,0.0,0.0,0.0,0.0,7.5442,0.0,0.0,0.0,0.0,0.0,0.0,0.0,0.0,0.0,0.0,0.0,0.0,0.0,0.0,0.0,0.0,7.6284,7.6284,7.6284,7.6089,7.5513,7.5442,7.5442,7.5442,7.669,7.7472,7.7423,7.8176,7.9121,8.0342,7.937,7.8988,7.9414,7.8381,7.7735,7.7438,7.6554,7.6415,7.7074,7.6404,7.63,7.6702,7.6299,7.5936,7.5709,7.5709,7.5709,7.5709,7.5709,7.6601,7.7988,7.7988,7.8902,8.0209,8.0209,8.0209,8.0209,0.0,5.987,0.0,0.0,0.0,0.0,0.0,0.0,0.0,0.0,0.0,0.0,0.0,0.0,0.0,0.0,0.0,6.1887,6.2719,0.0,6.2756,0.0,0.0,6.3203,0.0,0.0,0.0,0.0,0.0,0.0,0.0,0.0,0.0,0.0,0.0,6.77,6.7737,6.8568,6.8892,6.8965,6.9779,7.058,7.138,0.0,7.2415,7.2452,7.2452,0.0,0.0,7.2365,7.2314,0.0,0.0,0.0,0.0,0.0,0.0,0.0,0.0,0.0,0.0,7.6606,0.0,0.0,0.0,0.0,7.6284,0.0,0.0,0.0,0.0,0.0,0.0,0.0,0.0,0.0,0.0,7.6284,7.6275,7.625,7.625,7.625,7.625,7.7027,7.7498,7.7517,7.8186,7.8624,7.8689,7.9354,7.9329,7.8482,7.9259,7.9295,7.8378,7.7482,7.7086,7.7085,7.7086,7.6599,7.5759,7.6656,7.6565,7.5709,7.5709,7.5709,7.5709,7.5709,7.6601,7.7988,7.7988,7.8902,8.0209,8.0209,8.0209,8.0209,0.0,0.0,0.0,0.0,0.0,0.0,0.0,5.9666,0.0,0.0,6.067,0.0,0.0,6.1661,6.2101,0.0,0.0,6.2505,6.2793,6.3349,0.0,0.0,0.0,6.4591,0.0,0.0,0.0,0.0,0.0,0.0,0.0,0.0,0.0,0.0,0.0,6.8788,0.0,0.0,0.0,0.0,0.0,7.1835,7.2121,0.0,0.0,7.2488,7.2488,7.2488,0.0,7.2431,7.2351,7.2372,7.2862,7.291,7.3074,7.4415,7.492,0.0,0.0,0.0,7.6404,7.6404,0.0,0.0,0.0,0.0,0.0,0.0,0.0,0.0,0.0,0.0,0.0,0.0,0.0,0.0,0.0,7.6284,7.6284,7.6284,7.6284,7.6284,7.6284,7.6537,7.6936,7.7479,7.7743,7.8351,7.9396,7.972,7.9961,8.0194,7.9937,7.963,7.9264,7.783,7.7407,7.7934,7.6747,7.6323,7.6622,7.63,7.6007,7.5709,7.5709,7.5709,7.5709,7.5709,7.6601,7.7988,7.7988,7.8902,8.0209,8.0209,8.0209,8.0209,5.9133,0.0,0.0,0.0,0.0,0.0,0.0,0.0,0.0,0.0,6.152,0.0,6.2034,0.0,6.2903,0.0,6.3276,6.3386,6.3673,6.42,0.0,6.453,6.5001,0.0,0.0,0.0,0.0,0.0,0.0,6.718,0.0,0.0,0.0,0.0,0.0,6.9596,7.0153,7.0947,7.1307,0.0,0.0,7.246,0.0,0.0,7.2666,7.2446,0.0,7.2768,7.2797,7.3031,7.3058,7.3033,7.3512,7.3564,7.3697,7.5035,7.5354,7.5462,7.6261,7.6404,0.0,7.6284,7.6284,0.0,7.6284,0.0,0.0,0.0,0.0,0.0,0.0,0.0,0.0,0.0,0.0,0.0,0.0,7.6284,7.6284,7.6284,7.6284,7.6284,7.6284,7.6284,7.6501,7.7036,7.7334,7.8086,7.939,7.9743,8.025,8.1083,8.0565,8.0222,8.0186,7.843,7.7827,7.8399,7.6883,7.6323,7.6588,7.6311,7.6019,7.5709,7.5709,7.5709,7.5709,7.5709,7.6601,7.7988,7.7988,7.8902,8.0209,8.0209,8.0209,8.0209,5.9117,0.0,0.0,0.0,6.0208,0.0,0.0,0.0,6.1673,0.0,6.2358,6.286,6.2853,6.289,6.3227,6.4077,6.4114,6.4481,6.5238,6.5305,0.0,0.0,6.5392,6.5765,6.6549,0.0,0.0,0.0,0.0,0.0,0.0,0.0,0.0,0.0,6.9816,0.0,7.0257,7.102,7.1373,7.141,7.2217,7.2468,7.2446,7.3228,7.3045,7.2482,7.3062,7.3264,7.335,7.3996,7.4195,7.4155,7.4014,7.3985,7.4122,7.4919,7.5172,7.5317,7.6102,7.6284,7.6284,7.6284,0.0,0.0,0.0,0.0,7.6284,0.0,0.0,0.0,0.0,0.0,0.0,0.0,0.0,0.0,0.0,7.6284,7.6284,7.6284,7.6284,7.6284,7.6284,7.6284,7.6284,7.6284,7.7008,7.7796,7.8593,7.939,8.0214,8.1011,8.1083,8.1119,8.1119,7.9309,7.8409,7.8409,7.746,7.6565,7.5745,7.6622,7.6542,7.5709,7.5709,7.5709,7.5709,7.5709,7.6601,7.7954,7.7988,7.8902,8.0209,8.0209,8.0209,8.0209,6.0046,6.056,6.1012,0.0,6.1201,6.13,0.0,0.0,0.0,0.0,6.3246,6.3721,6.357,6.4076,6.4476,6.4626,6.4619,0.0,0.0,0.0,0.0,6.5966,6.6572,6.7073,6.74,6.74,0.0,6.77,0.0,0.0,6.8605,0.0,0.0,0.0,0.0,7.1314,7.1908,7.2085,7.213,7.2109,7.2907,7.314,7.3062,0.0,7.3877,7.3747,7.3999,7.4095,7.4124,7.4303,7.4282,7.4288,7.4857,7.4925,7.4955,7.5768,7.5985,7.603,7.6247,7.6284,7.6284,7.6284,7.6284,7.6284,0.0,0.0,0.0,0.0,0.0,0.0,0.0,0.0,0.0,0.0,0.0,0.0,0.0,0.0,7.6284,7.6284,7.6284,7.6284,7.6284,7.6284,7.6284,7.6284,7.6501,7.6972,7.776,0.0,0.0,8.0178,8.0794,8.1119,8.1119,7.9309,7.8409,7.8399,7.6827,7.5925,7.5721,7.5948,7.5925,7.5709,7.5709,7.5709,7.5709,7.5709,7.6284,7.7244,7.7785,7.8902,8.0209,8.0209,8.0209,8.0209,6.086,6.1557,6.2101,6.2101,0.0,0.0,6.2101,6.2505,0.0,6.3313,6.3702,0.0,6.4286,6.4666,6.5031,6.5307,6.5337,0.0,6.5818,0.0,0.0,6.6628,6.7117,6.7414,6.7467,6.7467,0.0,6.8149,0.0,0.0,6.9449,0.0,0.0,0.0,0.0,7.2085,7.2488,7.2423,7.2563,7.2848,7.3205,7.3485,0.0,7.4437,7.4676,7.4655,7.5079,7.4994,7.4776,7.5112,7.5164,7.52,7.5635,7.5706,7.5696,7.6175,7.6284,7.6284,7.6284,7.6284,7.6284,7.6284,7.6284,7.6284,7.6284,7.6284,7.6284,0.0,0.0,0.0,0.0,0.0,0.0,0.0,0.0,0.0,0.0,0.0,0.0,7.6292,7.6387,7.6429,7.6429,7.6362,7.6284,7.6284,7.6284,7.6646,0.0,0.0,7.9064,7.9852,8.0685,8.1119,8.1119,7.9672,7.8791,7.8409,7.736,7.6679,7.63,7.63,7.63,7.6277,7.5865,7.5709,7.5709,7.5709,7.6183,7.6995,7.8077,7.9194,8.0209,8.0209,8.0209,8.0209,6.163,6.2322,0.0,0.0,0.0,0.0,0.0,6.2914,0.0,6.4082,0.0,6.4387,6.5184,6.5245,6.5558,6.6331,0.0,6.6739,6.7402,6.7475,6.7482,6.7503,6.7503,6.7524,6.753,6.7546,6.7945,0.0,0.0,0.0,0.0,0.0,0.0,0.0,0.0,7.2481,7.2452,7.2417,7.2803,7.3424,7.3469,7.3824,7.4409,7.52,7.5421,7.5353,7.6058,7.5841,7.5353,7.6058,7.6284,7.6284,7.6284,7.6284,7.6284,7.6284,7.6284,7.6284,7.6284,7.6284,7.6284,7.6284,7.6284,7.6284,7.6284,7.6284,7.6284,7.6284,7.6284,7.6284,0.0,0.0,0.0,0.0,0.0,0.0,0.0,0.0,0.0,0.0,7.6445,0.0,7.6597,7.642,7.6292,7.6353,7.63,0.0,0.0,0.0,7.9028,7.9707,8.0612,8.1119,8.1119,0.0,7.9264,7.8409,7.8294,7.7786,7.6929,7.6929,7.6929,7.6884,7.6054,7.5709,7.5709,7.5709,7.6217,7.7164,7.845,7.9464,8.0209,8.0209,8.0209,8.0209,6.2572,6.2683,0.0,0.0,0.0,6.3611,6.3611,6.3611,6.3864,6.4592,6.5209,6.587,6.6559,6.7215,6.7869,6.8593,6.8659,0.0,0.0,0.0,0.0,6.8996,6.9004,6.9136,6.941,6.9267,6.9412,0.0,0.0,0.0,0.0,0.0,0.0,0.0,7.2452,7.2423,7.2373,7.2831,0.0,7.3195,7.4481,7.4986,7.5041,7.5854,7.6128,7.6094,7.6247,7.6211,7.6094,7.6247,7.6284,7.6284,7.6284,7.6284,7.6284,7.6284,7.6284,7.6284,7.6284,7.6284,7.6284,7.6284,7.6284,7.6284,7.6284,7.6284,7.6284,7.6284,7.6284,7.6284,7.6284,0.0,0.0,0.0,0.0,0.0,0.0,0.0,0.0,0.0,0.0,7.642,0.0,0.0,7.6378,7.6512,7.6395,7.6356,0.0,0.0,7.8774,0.0,8.0323,0.0,0.0,0.0,7.9309,7.8409,7.7678,7.6838,7.5948,7.5948,7.5948,7.5936,7.5759,7.5709,7.5709,7.5709,7.6533,7.7819,7.809,7.9037,8.0209,8.0209,8.0209,8.0209,6.278,0.0,0.0,0.0,0.0,0.0,0.0,6.5177,6.5585,6.6,6.6331,6.6945,6.8102,6.8544,6.8832,6.9163,6.9199,6.9199,6.9199,6.9199,6.9222,6.929,6.929,6.941,6.9654,6.9537,6.9821,7.0455,0.0,0.0,0.0,0.0,0.0,7.2416,7.2416,7.2548,0.0,0.0,0.0,7.4308,7.4982,7.5436,7.5768,7.6139,7.6284,7.6284,7.6284,7.6284,7.6284,7.6284,7.6284,7.6284,7.6284,7.6284,7.6284,7.6284,7.6284,7.6284,7.6284,7.6012,7.5777,7.6191,7.5636,7.5119,7.5557,7.5681,7.5567,7.5092,7.568,7.6284,7.6284,7.6284,0.0,0.0,0.0,0.0,0.0,0.0,7.642,0.0,0.0,0.0,0.0,0.0,7.6487,7.6597,7.6412,7.6284,7.6284,0.0,7.8267,0.0,0.0,0.0,0.0,0.0,0.0,7.913,7.915,7.8465,7.7107,7.7107,7.6837,7.6392,7.5913,7.5709,7.5709,7.5709,7.6386,7.7481,7.7853,7.8653,7.9667,8.0073,8.0209,8.0209,6.3162,6.3641,0.0,0.0,6.4691,6.5436,6.5958,6.6874,6.7448,6.7388,6.744,6.8022,6.9459,6.9514,6.9525,6.9663,6.9699,6.9699,6.9699,6.9699,6.9699,6.9699,6.9699,6.9775,6.9898,6.986,7.0234,0.0,0.0,0.0,0.0,0.0,0.0,0.0,0.0,0.0,0.0,0.0,7.4188,7.5341,7.5347,7.5724,7.6284,7.6284,7.6284,7.6284,7.6284,7.6284,7.6284,7.6284,7.6284,7.6284,7.6284,7.6284,7.6258,7.6106,7.6165,7.625,7.6097,7.5815,7.5773,7.6393,7.5693,7.5033,7.5709,7.5881,7.5673,7.4969,7.5756,7.6501,7.632,7.6284,0.0,0.0,0.0,0.0,0.0,0.0,0.0,0.0,0.0,0.0,7.6597,0.0,7.6564,7.6597,7.6445,7.6362,7.6284,7.7217,7.805,0.0,0.0,8.0468,8.1083,0.0,8.0657,7.9766,8.0305,7.9689,7.8115,7.7923,7.746,7.677,7.6019,7.5709,7.5709,7.5709,7.6183,7.6961,7.7718,7.845,7.9181,7.9938,8.0209,8.0209,0.0,0.0,0.0,0.0,0.0,6.6815,6.6874,6.81,6.8743,6.8019,6.8562,6.9323,7.0221,7.0286,7.0561,7.1241,7.1277,7.1277,7.1277,7.1277,7.1277,7.1277,7.1277,7.1392,7.1554,7.1415,7.1493,0.0,0.0,0.0,0.0,0.0,0.0,0.0,0.0,0.0,0.0,7.4365,7.498,7.5197,7.5885,7.6247,7.6284,7.6284,7.6284,7.6284,7.6284,7.6284,7.6284,7.6284,7.6284,7.6284,7.6284,7.6284,7.6157,7.5442,7.5725,7.614,7.5389,7.6238,7.7285,7.7389,7.7802,7.8265,7.8327,7.8344,7.8327,7.8257,7.7774,7.7153,7.6428,7.6284,7.6284,0.0,0.0,0.0,0.0,0.0,7.6337,7.6284,0.0,0.0,7.6589,7.6437,7.6404,0.0,7.6589,7.6478,7.6292,7.776,7.8629,7.8702,0.0,8.1011,8.1119,8.1119,8.0621,7.9711,7.8994,7.8147,7.7186,7.6335,7.5913,7.5818,7.5757,7.5709,7.5709,7.5709,7.6183,7.6961,7.7718,7.845,7.9181,7.9938,8.0209,8.0209,0.0,0.0,0.0,0.0,0.0,0.0,0.0,6.923,6.9808,6.9474,6.9735,7.0206,7.0995,7.106,7.1168,7.145,7.1487,7.1487,7.1487,7.1487,7.1704,7.2211,7.174,7.1819,7.2491,7.1965,7.1741,0.0,0.0,0.0,0.0,0.0,0.0,0.0,0.0,7.3933,7.4292,7.4871,7.5398,7.5841,7.6175,7.6284,7.6284,7.6284,7.6284,7.6284,7.6284,7.6284,7.6284,7.6284,7.6284,7.6284,7.6284,7.6646,7.6949,7.662,7.7102,7.7664,7.7332,7.7362,7.7569,7.8091,7.7712,7.7317,7.7818,7.7927,7.779,7.7288,7.7319,7.7344,7.7068,7.7008,7.6863,0.0,0.0,0.0,0.0,0.0,0.0,7.6284,0.0,7.6345,7.6412,7.6454,7.6495,0.0,7.6478,7.6387,7.6292,7.737,0.0,7.8666,0.0,8.0612,8.1119,8.1119,8.093,8.0538,7.9669,7.8775,7.7838,7.6951,7.6219,7.5709,7.5709,7.5709,7.5709,7.5709,7.5879,7.6251,7.7029,7.7773,7.8517,7.9261,7.9837,8.0209,6.5992,0.0,6.7644,0.0,6.868,6.9554,6.9554,7.0416,7.1068,7.1068,7.1285,7.1538,7.1812,7.1849,7.1957,7.2175,7.2211,7.2211,7.2211,7.2211,7.2464,7.3044,7.2501,0.0,7.3248,7.2711,7.2421,7.2421,7.2484,0.0,0.0,0.0,0.0,0.0,7.4051,7.4716,7.5136,7.5353,7.576,7.6284,7.6284,7.6284,7.6284,7.6284,7.6284,7.6284,7.6284,7.6465,7.6646,7.6646,7.6827,7.6972,7.6718,7.7225,7.779,7.7545,7.7872,7.8332,7.8305,7.7841,7.7561,7.8459,7.7765,7.6987,7.7563,7.7699,7.7531,7.6994,7.7542,7.808,7.7883,7.7833,7.7651,7.7117,0.0,0.0,0.0,7.6646,0.0,7.632,7.6284,7.6284,7.6284,7.6429,7.6495,0.0,0.0,0.0,0.0,0.0,0.0,0.0,0.0,0.0,0.0,8.1119,8.1119,8.1102,7.9947,7.9049,7.8378,7.7196,7.6311,7.5709,7.5709,7.5709,7.5709,7.5709,7.5709,7.5777,7.6589,7.7333,7.809,7.8809,7.9566,8.0209,6.8837,6.9163,6.9163,6.9163,6.9844,7.0387,7.0387,7.1675,7.2682,7.2682,7.3362,7.3543,7.2754,7.2682,7.3008,7.3796,7.3868,7.3868,7.3868,7.3868,7.3868,0.0,0.0,7.3868,7.3868,7.3877,7.3877,7.3877,0.0,0.0,7.4187,0.0,7.4083,7.3905,7.4738,7.51,7.5136,7.5949,7.6284,7.6284,7.6284,7.6284,7.6284,7.6284,7.6284,7.6284,7.6284,7.6827,7.7479,7.7479,7.8014,7.8521,7.7724,7.805,7.8526,7.7662,7.742,7.7411,7.743,7.7329,7.7414,7.8377,7.8487,7.8384,7.8395,7.8395,7.8421,7.8539,7.9277,7.9626,7.8847,7.8702,7.8666,7.8666,0.0,0.0,0.0,0.0,0.0,7.6392,7.6284,7.6284,7.6284,7.6284,7.6292,0.0,0.0,0.0,0.0,0.0,0.0,7.8702,8.025,0.0,8.1119,8.1119,8.1119,8.1065,7.9289,7.8419,7.8357,7.6542,7.5721,7.5709,7.5709,7.5709,7.5709,7.5709,7.5709,7.5777,7.6589,7.7333,7.809,7.8809,7.9566,8.0209,6.9091,6.9634,7.0025,7.0025,7.1104,7.1965,7.1965,7.2863,7.3506,7.3506,7.3724,7.4013,7.4303,7.3832,7.3615,0.0,7.3905,7.3905,0.0,7.3905,7.4122,7.4701,7.4194,7.4158,7.4701,7.4194,7.3905,7.3905,0.0,0.0,0.0,7.4704,7.4918,7.4738,7.5551,7.5913,7.5913,7.6175,7.6284,7.6284,7.6284,7.6284,7.6284,7.6284,7.6284,7.6356,7.6936,7.7298,7.7588,7.8122,7.8467,7.8597,7.8346,7.8819,7.9349,7.8467,7.8579,7.8846,7.8241,7.8053,7.8074,7.8397,7.844,7.8409,7.8409,7.8872,7.9327,7.9387,8.0114,8.0468,7.968,7.9535,7.9345,7.8774,7.8702,0.0,0.0,0.0,7.8231,7.7977,7.7434,7.7117,7.7117,7.661,0.0,0.0,0.0,0.0,0.0,0.0,0.0,0.0,8.054,0.0,8.1119,8.1119,8.1119,8.1102,7.9927,7.8713,7.746,7.6253,7.5709,7.5709,7.5709,7.5709,7.5709,7.5709,7.5709,7.5709,7.598,7.6555,7.7333,7.8077,7.8822,7.952,7.0025,7.0705,7.1241,7.1241,7.2319,7.3144,7.3144,7.3832,7.4339,7.4339,7.4593,7.4999,7.5506,7.5108,0.0,7.4782,7.4782,7.4782,7.4782,7.4782,7.5035,7.5542,7.5072,7.5035,7.5542,0.0,0.0,7.4782,7.4782,7.4782,7.4826,7.5449,7.5659,7.5579,7.6094,7.6284,7.6284,7.6284,7.6284,7.6284,7.6284,7.6284,7.6284,7.6284,7.6501,7.6827,7.7334,7.7869,7.8441,7.8584,7.885,7.8995,7.8638,7.8892,7.9243,7.8687,7.863,7.8678,7.8471,7.7913,7.7469,7.7816,7.7644,7.7382,7.7382,7.8083,7.8821,7.919,7.9994,8.0559,8.0378,8.0359,8.0178,7.9671,7.9598,7.9499,7.92,0.0,7.9028,0.0,0.0,0.0,0.0,7.7507,7.7449,0.0,0.0,0.0,0.0,0.0,0.0,7.9888,8.0685,0.0,8.1119,8.1119,8.1119,8.1074,8.023,7.8836,7.7097,7.6485,7.603,7.5709,7.5709,7.5709,7.5709,7.5709,7.5709,7.5709,7.5709,7.6183,7.6995,7.7718,7.8483,7.9215,7.1458,7.2175,7.2718,0.0,7.3442,0.0,7.3977,7.4665,7.5172,7.5172,7.5841,7.6284,7.6284,7.6284,7.6267,7.6216,0.0,0.0,0.0,7.6284,7.6284,7.6284,7.6284,7.6284,7.6284,7.6284,7.6284,7.6284,7.6284,7.6284,7.6284,7.6284,7.6284,7.6284,7.6284,7.6284,7.6284,7.6284,7.6284,7.6284,7.6284,7.6284,7.632,7.6356,7.6863,7.7507,7.7624,7.8595,7.9702,7.8942,7.9073,7.9454,7.8585,7.8273,7.8241,7.8304,7.7743,7.7263,7.8009,7.6984,7.5901,7.6793,7.6335,7.5709,7.5709,7.6415,7.7352,7.822,7.915,8.0088,8.0939,8.1119,8.1119,8.1119,8.1119,8.083,8.0105,0.0,0.0,0.0,0.0,0.0,0.0,7.8738,7.8738,0.0,0.0,0.0,0.0,0.0,7.9961,7.9961,8.0721,8.1119,8.1119,8.1119,8.1119,8.1074,8.023,7.8932,7.7274,7.7141,7.6622,7.5783,7.5745,7.5709,7.5709,7.5709,7.5709,7.5709,7.5709,7.6149,7.6893,7.765,7.8382,7.9114,0.0,0.0,7.2899,7.3506,7.4267,7.481,7.481,7.5506,7.6022,7.6022,7.6175,7.6284,7.6284,7.6284,7.6063,7.5451,7.596,7.6284,7.6284,7.6284,7.6284,7.6284,7.6284,7.6284,7.6284,7.6284,7.6284,7.6284,7.6284,7.6284,7.6284,7.6284,7.6284,7.6284,7.6284,7.6284,7.6284,7.6284,7.6284,7.6284,7.6284,7.6284,7.6356,7.6972,7.7334,7.7651,7.8883,7.9162,7.8978,7.9315,7.868,7.7713,7.7495,7.6928,7.6473,7.7208,7.7263,7.6973,7.6462,7.6042,7.5735,7.5972,7.5854,7.5709,7.5709,7.6415,7.7352,7.822,7.915,8.0088,8.0939,8.1119,8.1119,8.1119,8.1119,8.1047,8.083,8.083,0.0,0.0,7.9997,7.9607,7.9607,7.9064,7.8955,0.0,0.0,0.0,0.0,8.083,8.083,8.083,8.1011,8.1119,8.1119,8.1119,8.1119,8.1074,8.023,7.9597,7.9125,7.7746,7.6996,7.6736,7.6019,7.5709,7.5709,7.5709,7.5709,7.5709,7.5709,7.5811,7.6082,7.686,7.7638,7.836,7.3152,7.3543,7.3806,7.3878,7.4855,7.5506,7.5165,7.5774,7.6165,7.5795,7.5751,7.562,7.5191,7.5155,7.4982,7.4546,7.5272,7.5566,7.5173,7.5155,7.5155,7.5155,7.5531,7.5751,7.5751,7.6114,7.6284,7.6284,7.6284,7.6284,7.6284,7.6284,7.6284,7.6284,7.6284,7.6284,7.6284,7.6284,7.6284,7.6284,7.6284,7.6537,7.6899,7.7334,7.7697,7.8108,7.8972,7.8962,7.8523,7.8506,7.7894,7.7041,7.6599,7.6124,7.5783,7.63,7.6462,7.6335,7.583,7.5709,7.5709,7.5709,7.5709,7.5794,7.623,7.6736,7.7484,7.8785,7.9454,8.0088,8.0939,8.1119,8.1119,8.1119,8.1119,8.1119,8.1119,8.1119,0.0,8.1119,8.0721,8.0468,8.0468,8.0033,7.9961,8.0431,8.0468,0.0,8.1083,8.1119,8.1119,8.1119,8.1119,8.1119,8.1119,8.1119,8.1119,8.1074,8.062,8.0156,7.9718,7.8304,7.746,7.7064,7.6124,7.5709,7.5709,7.5709,7.5709,7.5757,7.6183,7.6089,7.5837,7.7046,7.7506,7.7638,7.405,7.4538,7.4781,7.435,7.5274,7.5873,7.52,7.5681,7.5821,7.5018,7.4917,7.4621,7.3878,7.3799,7.374,7.3612,7.4299,7.4508,7.4014,7.3985,7.4043,7.4168,7.4872,7.5272,7.5272,7.5969,7.6284,7.6284,7.6284,7.6284,7.6284,7.6284,7.6284,7.6284,7.6284,7.6284,7.6284,7.6284,7.6225,7.6123,7.6259,7.6624,7.7133,7.7386,7.7827,7.8387,7.8529,7.8413,7.8083,7.7363,7.7019,7.6759,7.5948,7.5709,7.5709,7.5709,7.5709,7.5709,7.5709,7.5709,7.5709,7.5709,7.5709,7.5901,7.6713,7.7008,7.7582,7.9255,7.9715,8.0088,8.0939,8.1119,8.1119,8.1119,8.1119,8.1119,8.1119,0.0,8.1119,8.1119,8.1119,8.1119,8.1119,8.1119,8.1119,8.1119,8.1119,8.1119,8.1119,8.1119,8.1119,8.1119,8.1119,8.1119,8.1119,8.1119,8.1119,8.1119,8.1119,8.0667,7.9875,7.8872,7.7987,7.7241,7.6149,7.5709,7.5709,7.5709,7.5709,7.5793,7.6576,7.6392,7.5884,7.7319,7.7428,7.7096,7.4774,7.4474,7.4465,7.5704,7.5556,7.5236,7.5109,7.52,7.499,7.4101,7.3994,7.3946,7.3809,7.3799,7.3502,7.2759,7.2821,7.3472,7.4798,7.4917,7.52,7.5881,7.6055,7.6114,7.6114,7.6225,7.6284,7.6284,7.6284,7.6284,7.6284,7.6284,7.6284,7.6284,7.6284,7.6284,7.6284,7.6284,7.589,7.5344,7.5978,7.5856,7.5429,7.6749,7.7329,7.7499,7.8183,7.7925,7.7286,7.7141,7.6576,7.5889,7.5769,7.5709,7.5709,7.5709,7.5709,7.5709,7.5709,7.5709,7.5709,7.5709,7.5709,7.5757,7.5877,7.6531,7.7396,7.8399,7.924,8.0088,8.0939,8.1119,8.1119,8.1119,8.1119,8.1119,8.1119,0.0,8.1119,8.1119,8.1119,8.1119,8.1119,8.1119,8.1119,8.1119,8.1119,8.1119,8.1119,8.1119,8.1119,8.1119,8.1119,8.1119,8.1119,8.1119,8.1119,8.1119,8.1119,8.1021,8.0822,7.9144,7.8336,7.8104,7.6416,7.5709,7.5709,7.5709,7.5709,7.5687,7.5854,7.5818,7.5733,7.5989,7.6416,7.7029,7.5576,7.5107,7.4645,7.4902,7.5019,7.477,7.3838,7.4091,7.4072,7.3211,7.3099,7.2914,7.2504,7.2451,7.2281,7.1884,7.1841,7.2387,7.3612,7.3296,7.3392,7.4235,7.4238,7.4482,7.4955,7.4964,7.4964,7.4964,7.5415,7.5655,7.5663,7.6106,7.6284,7.6284,7.6284,7.6284,7.6258,7.5829,7.5657,7.5695,7.5564,7.5758,7.6216,7.6943,7.7167,7.7181,7.7561,7.713,7.6335,7.6335,7.6066,7.5709,7.5709,7.5709,7.5709,7.5709,7.5709,7.5709,7.5709,7.5709,7.5709,7.5709,7.5709,7.5818,7.6323,7.7129,7.8076,7.8968,7.9889,8.063,8.1021,8.1119,8.1119,8.1119,8.1119,0.0,0.0,8.1119,8.1119,8.1119,8.1119,8.1119,8.1119,8.1119,8.1119,8.1119,8.1119,8.1119,8.1119,8.1119,8.1119,8.1119,8.1119,8.1119,8.1119,8.1119,8.1119,8.1119,8.1119,8.1119,8.1029,7.924,7.8409,7.8315,7.6485,7.5709,7.5709,7.5709,7.5709,7.5735,7.6276,7.645,7.645,7.645,7.6689,7.7052,7.5847,7.5209,7.4423,7.4139,7.4338,7.4033,7.2686,7.3068,7.318,7.2311,7.2228,7.2004,7.1379,7.13,7.13,7.13,7.13,7.1633,7.2459,7.1754,7.1754,7.2749,7.279,7.3109,7.378,7.3799,7.3897,7.4091,7.4761,7.5191,7.5407,7.5812,7.6038,7.6029,7.5812,7.5734,7.5699,7.5242,7.5279,7.5588,7.5264,7.5715,7.6605,7.6769,7.6798,7.6782,7.6782,7.63,7.5709,7.5709,7.5709,7.5709,7.5709,7.5709,7.5709,7.5709,7.5709,7.5709,7.5709,7.5709,7.5709,7.5709,7.5709,7.5877,7.6611,7.746,7.8294,7.9009,8.0033,8.0812,8.0812,8.0967,8.1119,8.1119,0.0,0.0,0.0,8.1119,8.1119,8.1119,8.1119,8.1119,8.1119,8.1119,8.1119,8.1119,8.1119,8.1119,8.1119,8.1119,8.1119,8.1119,8.1119,8.1119,8.1119,8.1119,8.1119,8.1119,8.1119,8.0985,8.0731,7.9114,7.8294,7.8009,7.6381,7.5709,7.5709,7.5709,7.5709,7.5759,7.6485,7.6918,7.7052,7.6872,7.6929,7.7077,7.5027,7.3838,7.318,7.4724,7.3721,7.2634,7.2533,7.253,7.2324,7.149,7.1401,7.1379,7.13,7.13,7.13,7.13,7.13,7.1633,7.2459,7.1754,7.2014,7.3632,7.3701,7.373,7.3799,7.3799,7.4213,7.5009,7.5073,7.5496,7.6191,7.5522,7.5182,7.5146,7.4331,7.3985,7.401,7.4635,7.453,7.399,7.531,7.5411,7.4871,7.555,7.582,7.5794,7.5794,7.5769,7.5709,7.5709,7.5709,7.5709,7.5709,7.5709,7.5709,7.5709,7.5709,7.5709,7.5709,7.5709,7.5709,7.5709,7.5709,7.5733,7.5771,7.6531,7.7208,7.7274,7.8672,7.9889,7.9889,8.0565,8.1119,8.1119,0.0,0.0,8.1119,8.1119,8.1119,8.1119,8.1119,8.1119,8.1119,8.1119,8.1119,8.1119,8.1119,8.1119,8.1119,8.1119,8.1119,8.1119,8.1119,8.1119,8.1119,8.1119,8.1119,8.1119,8.1119,8.063,7.9779,7.8842,7.7945,7.713,7.6148,7.5709,7.5709,7.5709,7.5709,7.5721,7.5793,7.6323,7.6973,7.6136,7.6346,7.7077,7.4216,7.3322,7.2697,7.3372,7.2935,7.2321,7.1819,7.1765,7.1633,7.1345,7.13,7.13,7.13,7.13,7.13,7.13,7.13,7.1412,7.1743,7.1468,7.159,7.223,7.2262,7.2262,7.2262,7.2742,7.315,7.3492,7.4574,7.5,7.4735,7.5,7.4798,7.4299,7.3946,7.3799,7.383,7.4057,7.4245,7.4412,7.4889,7.518,7.5303,7.5574,7.5709,7.5709,7.5709,7.5709,7.5709,7.5709,7.5709,7.5709,7.5709,7.5709,7.5709,7.5709,7.5709,7.5709,7.5709,7.5709,7.5709,7.5709,7.5709,7.5709,7.5709,7.6415,7.7252,7.7773,7.8918,7.9956,8.0528,8.0885,8.1119,8.1119,0.0,8.1119,8.1119,8.1119,8.1119,8.1119,8.1119,8.1119,8.1119,8.1119,8.1119,8.1119,8.1119,8.1119,8.1119,8.1119,8.1119,8.1119,8.1119,8.1119,8.1119,8.1119,8.1119,8.1119,8.1119,8.0639,7.9737,7.8821,7.7913,7.7064,7.6124,7.5709,7.5709,7.5709,7.5709,7.5709,7.5709,7.6265,7.6996,7.6054,7.6277,7.702,7.3342,7.2711,7.2206,7.2459,7.2279,7.1939,7.139,7.13,7.13,7.13,7.13,7.13,7.13,7.13,7.13,7.13,7.13,7.13,7.13,7.13,7.13,7.13,7.13,7.13,7.13,7.183,7.226,7.2512,7.3701,7.4111,7.3799,7.412,7.3956,7.3382,7.3144,7.3125,7.3351,7.3568,7.4074,7.475,7.4884,7.5236,7.5709,7.5709,7.5709,7.5709,7.5709,7.5709,7.5709,7.5709,7.5709,7.5709,7.5709,7.5709,7.5709,7.5709,7.5709,7.5709,7.5709,7.5709,7.5709,7.5709,7.5709,7.5709,7.5709,7.6218,7.6906,7.7795,7.8734,7.963,8.0546,8.0921,8.1119,8.1119,8.1119,8.1119,8.1119,8.1119,8.1119,8.1119,8.1119,8.1119,8.1119,8.1119,8.1119,8.1119,8.1119,8.1119,8.1119,8.1119,8.1119,8.1119,8.1119,8.1119,8.1119,8.1119,8.1119,8.1119,8.1119,8.0473,7.9355,7.8688,7.7752,7.6622,7.5983,7.5709,7.5709,7.5709,7.5709,7.5709,7.5709,7.6265,7.6996,7.6054,7.6277,7.6985,7.2321,7.1841,7.1557,7.2342,7.1819,7.13,7.13,7.13,7.13,7.13,7.13,7.13,7.13,7.13,7.13,7.13,7.13,7.13,7.13,7.13,7.13,7.13,7.13,7.13,7.13,7.13,7.1699,7.2512,7.2522,7.2945,7.377,7.2894,7.2512,7.2459,7.1644,7.1706,7.2462,7.3184,7.3928,7.4649,7.5405,7.5709,7.5709,7.5709,7.5709,7.5709,7.5709,7.5709,7.5709,7.5709,7.5709,7.5709,7.5709,7.5709,7.5709,7.5709,7.5709,7.5709,7.5709,7.5709,7.5709,7.5709,7.5709,7.5709,7.5709,7.5709,7.5972,7.6929,7.7808,7.8688,7.9656,8.0537,8.1119,8.1119,8.1119,8.1119,8.1119,8.1119,8.1119,8.1119,8.1119,8.1119,8.1119,8.1119,8.1119,8.1119,8.1119,8.1119,8.1119,8.1119,8.1119,8.1119,8.1119,8.1119,8.1119,8.1119,8.1119,8.1119,8.1119,8.0156,7.8409,7.8409,7.7404,7.5709,7.5709,7.5709,7.5709,7.5709,7.5709,7.5709,7.5709,7.6253,7.6996,7.6042,7.6277,7.6974,7.1721,7.1457,7.139,7.1634,7.1457,7.13,7.13,7.13,7.13,7.13,7.13,7.13,7.13,7.13,7.13,7.13,7.13,7.13,7.13,7.13,7.13,7.13,7.13,7.13,7.13,7.1841,7.227,7.2512,7.3109,7.3231,7.2873,7.2603,7.2206,7.1667,7.1943,7.2191,7.2496,7.3747,7.4378,7.4649,7.5405,7.5709,7.5709,7.5709,7.5709,7.5709,7.5709,7.5709,7.5709,7.5709,7.5709,7.5709,7.5709,7.5709,7.5709,7.5709,7.5709,7.5709,7.5709,7.5709,7.5709,7.5709,7.5709,7.5709,7.5709,7.5709,7.6137,7.7676,7.822,7.8872,8.0427,8.093,8.1119,8.1119,8.1119,8.1119,8.1119,8.1119,8.1119,8.1119,8.1119,8.1119,8.1119,8.1119,8.1119,8.1119,8.1119,8.1119,8.1119,8.1119,8.1119,8.1119,8.1119,8.1119,8.1119,8.1119,8.1119,8.1119,8.1119,8.0156,7.8409,7.8409,7.7404,7.5709,7.5709,7.5709,7.5709,7.5709,7.5709,7.5709,7.5709,7.5865,7.6089,7.5794,7.5865,7.6089,7.1412,7.13,7.13,7.13,7.13,7.13,7.13,7.13,7.13,7.13,7.13,7.13,7.13,7.13,7.13,7.13,7.13,7.13,7.13,7.13,7.13,7.13,7.13,7.13,7.13,7.1787,7.2047,7.2047,7.2533,7.2557,7.2047,7.2047,7.1913,7.174,7.2191,7.2732,7.3341,7.4209,7.4784,7.5055,7.5506,7.5709,7.5709,7.5709,7.5709,7.5709,7.5709,7.5709,7.5709,7.5709,7.5709,7.5709,7.5709,7.5709,7.5709,7.5709,7.5709,7.5709,7.5709,7.5709,7.5709,7.5709,7.5709,7.5709,7.5709,7.5709,7.6219,7.8041,7.8409,7.8953,8.0758,8.1119,8.1119,8.1119,8.1119,8.1119,8.1119,8.1119,8.1119,8.1119,8.1119,8.1119,8.1119,8.1119,8.1119,8.1119,8.1119,8.1119,8.1119,8.1119,8.1119,8.1119,8.1119,8.1119,8.1119,8.1119,8.1119,8.1119,8.1119,8.0361,7.8933,7.8933,7.7955,7.6242,7.6242,7.6042,7.5709,7.5709,7.5709,7.5709,7.5709,7.5709,7.5709,7.5709,7.5709,7.5709,7.13,7.13,7.13,7.13,7.13,7.13,7.13,7.13,7.13,7.13,7.13,7.13,7.13,7.13,7.13,7.13,7.13,7.13,7.13,7.13,7.13,7.13,7.13,7.13,7.13,7.13,7.13,7.13,7.13,7.13,7.13,7.13,7.1672,7.2394,7.2462,7.3274,7.4615,7.4683,7.5089,7.5709,7.5709,7.5709,7.5709,7.5709,7.5709,7.5709,7.5709,7.5709,7.5709,7.5709,7.5709,7.5709,7.5709,7.5709,7.5709,7.5709,7.5709,7.5709,7.5709,7.5709,7.5709,7.5709,7.5709,7.5709,7.5709,7.5709,7.6219,7.8041,7.8409,7.8953,8.0758,8.1119,8.1119,8.1119,8.1119,8.1119,8.1119,8.1119,8.1119,8.1119,8.1119,8.1119,8.1119,8.1119,8.1119,8.1119,8.1119,8.1119,8.1119,8.1119,8.1119,8.1119,8.1119,8.1119,8.1119,8.1119,8.1119,8.1119,8.1119,8.0648,7.9802,7.9724,7.8723,7.7109,7.6996,7.6485,7.5709,7.5709,7.5709,7.5709,7.5709,7.5709,7.5709,7.5709,7.5709,7.5709,7.13,7.13,7.13,7.13,7.13,7.13,7.13,7.13,7.13,7.13,7.13,7.13,7.13,7.13,7.13,7.13,7.13,7.13,7.13,7.13,7.13,7.13,7.13,7.13,7.13,7.13,7.13,7.13,7.13,7.13,7.13,7.13,7.1672,7.2428,7.3015,7.3747,7.4649,7.5236,7.554,7.5709,7.5709,7.5709,7.5709,7.5709,7.5709,7.5709,7.5709,7.5709,7.5709,7.5709,7.5709,7.5709,7.5709,7.5709,7.5709,7.5709,7.5709,7.5709,7.5709,7.5709,7.5709,7.5709,7.5709,7.5709,7.5709,7.5709,7.6219,7.8041,7.8409,7.8953,8.0758,8.1119,8.1119,8.1119,8.1119,8.1119,8.1119,8.1119,8.1119,8.1119,8.1119,8.1119,8.1119,8.1119,8.1119,8.1119,8.1119,8.1119,8.1119,8.1119,8.1119,8.1119,8.1119,8.1119,8.1119,8.1119,8.1119,8.1119,8.1119,8.0648,7.9783,7.9049,7.8139,7.7075,7.6311,7.5877,7.5709,7.5709,7.5709,7.5709,7.5709,7.5709,7.5709,7.5709,7.5709,7.5709,7.13,7.13,7.13,7.13,7.13,7.13,7.13,7.13,7.13,7.13,7.13,7.13,7.13,7.13,7.13,7.13,7.13,7.13,7.13,7.13,7.13,7.13,7.13,7.13,7.13,7.13,7.13,7.13,7.13,7.13,7.13,7.13,7.1875,7.2935,7.3319,7.4097,7.5168,7.554,7.5709,7.5709,7.5709,7.5709,7.5709,7.5709,7.5709,7.5709,7.5709,7.5709,7.5709,7.5709,7.5709,7.5709,7.5709,7.5709,7.5709,7.5709,7.5709,7.5709,7.5709,7.5709,7.5709,7.5709,7.5709,7.5709,7.5709,7.6054,7.6747,7.8125,7.875,7.9467,8.0867,8.1119,8.1119,8.1119,8.1119,8.1119,8.1119,8.1119,8.1119,8.1119,8.1119,8.1119,8.1119,8.1119,8.1119,8.1119,8.1119,8.1119,8.1119,8.1119,8.1119,8.1119,8.1119,8.1119,8.1119,8.1119,8.1119,8.1119,8.1119,8.0648,7.9792,7.9279,7.836,7.7052,7.6576,7.6124,7.5709,7.5709,7.5709,7.5709,7.5709,7.5709,7.5709,7.5709,7.5709,7.5709,7.13,7.13,7.13,7.13,7.13,7.13,7.13,7.13,7.13,7.13,7.13,7.13,7.13,7.13,7.13,7.13,7.13,7.13,7.13,7.13,7.13,7.13,7.13,7.13,7.13,7.13,7.13,7.13,7.13,7.13,7.13,7.13,7.209,7.3488,7.3488,7.4334,7.5709,7.5709,7.5709,7.5709,7.5709,7.5709,7.5709,7.5709,7.5709,7.5709,7.5709,7.5709,7.5709,7.5709,7.5709,7.5709,7.5709,7.5709,7.5709,7.5709,7.5709,7.5709,7.5709,7.5709,7.5709,7.5709,7.5709,7.5709,7.5709,7.6415,7.7352,7.822,7.915,8.0088,8.0939,8.1119,8.1119,8.1119,8.1119,8.1119,8.1119,8.1119,8.1119,8.1119,8.1119,8.1119,8.1119,8.1119,8.1119,8.1119,8.1119,8.1119,8.1119,8.1119,8.1119,8.1119,8.1119,8.1119,8.1119,8.1119,8.1119,8.1119,8.1119,8.0648,7.9802,7.962,7.8651,7.7074,7.694,7.6415,7.5709,7.5709,7.5709,7.5709,7.5709,7.5709,7.5709,7.5709,7.5709,7.5709,7.13,7.13,7.13,7.13,7.13,7.13,7.13,7.13,7.13,7.13,7.13,7.13,7.13,7.13,7.13,7.13,7.13,7.13,7.13,7.13,7.13,7.13,7.13,7.13,7.13,7.13,7.13,7.13,7.13,7.13,7.13,7.13,7.209,7.3488,7.3488,7.4334,7.5709,7.5709,7.5709,7.5709,7.5709,7.5709,7.5709,7.5709,7.5709,7.5709,7.5709,7.5709,7.5709,7.5709,7.5709,7.5709,7.5709,7.5709,7.5709,7.5709,7.5709,7.5709,7.5709,7.5709,7.5709,7.5709,7.5709,7.5709,7.5709,7.6415,7.7352,7.822,7.915,8.0088,8.0939,8.1119,8.1119,8.1119,8.1119,8.1119,8.1119,8.1119,8.1119,8.1119,8.1119,8.1119,8.1119,8.1119,8.1119,8.1119,8.1119,8.1119,8.1119,8.1119,8.1119,8.1119,8.1119,8.1119,8.1119,8.1119,8.1119,8.1119,8.1119,8.0648,7.9783,7.8978,7.803,7.7029,7.6253,7.5806,7.5709,7.5709,7.5709,7.5709,7.5709,7.5709,7.5709,7.5709,7.5709,7.5709,7.13,7.13,7.13,7.13,7.13,7.13,7.13,7.13,7.13,7.13,7.13,7.13,7.13,7.13,7.13,7.13,7.13,7.13,7.13,7.13,7.13,7.13,7.13,7.13,7.13,7.13,7.13,7.13,7.13,7.13,7.13,7.1706,7.2462,7.3522,7.3928,7.4695,7.5709,7.5709,7.5709,7.5709,7.5709,7.5709,7.5709,7.5709,7.5709,7.5709,7.5709,7.5709,7.5709,7.5709,7.5709,7.5709,7.5709,7.5709,7.5709,7.5709,7.5709,7.5709,7.5709,7.5709,7.5709,7.5709,7.5709,7.583,7.6358,7.7162,7.7923,7.8336,7.9516,8.0648,8.1021,8.1119,8.1119,8.1119,8.1119,8.1119,8.1119,8.1119,8.1119,8.1119,8.1119,8.1119,8.1119,8.1119,8.1119,8.1119,8.1119,8.1119,8.1119,8.1119,8.1119,8.1119,8.1119,8.1119,8.1119,8.1119,8.1119,8.1119,8.1119,8.0603,7.9692,7.8811,7.7913,7.7064,7.6124,7.5709,7.5709,7.5709,7.5709,7.5709,7.5709,7.5709,7.5709,7.5709,7.5709,7.5709]},{"header":{"parameterUnit":"m.s-1","parameterCategory":1,"la1":30.6,"la2":28.766,"lo1":-90.7593,"lo2":-88.6598,"dx":0.0162,"dy":0.0183,"nx":116,"ny":114,"refTime":"2023-01-30T18:00:00:Z","depth":0,"parameterNumber":3,"parameterNumberName":"V-component_of_WINDS"},"data":[0.0,0.0,0.0,0.0,0.0,0.0,0.0,0.0,0.0,0.0,0.0,0.0,0.0,0.0,0.0,0.0,0.0,0.0,0.0,0.0,0.0,0.0,0.0,0.0,0.0,0.0,0.0,0.0,0.0,0.0,0.0,0.0,0.0,0.0,0.0,0.0,0.0,0.0,0.0,0.0,0.0,0.0,0.0,0.0,0.0,0.0,0.0,0.0,0.0,0.0,0.0,0.0,0.0,0.0,0.0,0.0,0.0,0.0,0.0,0.0,0.0,0.0,0.0,0.0,0.0,0.0,0.0,0.0,0.0,0.0,0.0,0.0,0.0,0.0,0.0,0.0,0.0,0.0,0.0,0.0,0.0,0.0,0.0,0.0,0.0,0.0,0.0,0.0,0.0,0.0,0.0,0.0,0.0,0.0,0.0,0.0,0.0,0.0,0.0,0.0,0.0,0.0,0.0,0.0,0.0,0.0,0.0,0.0,0.0,0.0,0.0,0.0,0.0,0.0,0.0,0.0,0.0,0.0,0.0,0.0,0.0,0.0,0.0,0.0,0.0,0.0,0.0,0.0,0.0,0.0,0.0,0.0,0.0,0.0,0.0,0.0,0.0,0.0,0.0,0.0,0.0,0.0,0.0,0.0,0.0,0.0,0.0,0.0,0.0,0.0,0.0,0.0,0.0,0.0,0.0,0.0,0.0,0.0,0.0,0.0,0.0,0.0,0.0,0.0,0.0,0.0,0.0,0.0,0.0,0.0,0.0,0.0,0.0,0.0,0.0,0.0,0.0,0.0,0.0,0.0,0.0,0.0,0.0,0.0,0.0,0.0,0.0,0.0,0.0,0.0,0.0,0.0,0.0,0.0,0.0,0.0,0.0,0.0,0.0,0.0,0.0,0.0,0.0,0.0,0.0,0.0,0.0,0.0,0.0,0.0,0.0,0.0,0.0,0.0,0.0,0.0,0.0,0.0,0.0,0.0,0.0,0.0,0.0,0.0,0.0,0.0,0.0,0.0,0.0,0.0,0.0,0.0,0.0,0.0,0.0,0.0,0.0,0.0,0.0,0.0,0.0,0.0,0.0,0.0,0.0,0.0,0.0,0.0,0.0,0.0,0.0,0.0,0.0,0.0,0.0,0.0,0.0,0.0,0.0,0.0,0.0,0.0,0.0,0.0,0.0,0.0,0.0,0.0,0.0,0.0,0.0,0.0,0.0,0.0,0.0,0.0,0.0,0.0,0.0,0.0,0.0,0.0,0.0,0.0,0.0,0.0,0.0,0.0,0.0,0.0,0.0,0.0,0.0,0.0,0.0,0.0,0.0,0.0,0.0,0.0,0.0,0.0,0.0,0.0,0.0,0.0,0.0,0.0,0.0,0.0,0.0,0.0,0.0,0.0,0.0,0.0,0.0,0.0,0.0,0.0,0.0,0.0,0.0,0.0,0.0,0.0,0.0,0.0,0.0,0.0,0.0,0.0,0.0,0.0,0.0,0.0,0.0,0.0,0.0,0.0,0.0,0.0,0.0,0.0,0.0,0.0,0.0,0.0,0.0,0.0,0.0,0.0,0.0,0.0,0.0,0.0,0.0,0.0,0.0,0.0,0.0,0.0,0.0,0.0,0.0,0.0,0.0,0.0,0.0,0.0,0.0,0.0,0.0,0.0,0.0,0.0,0.0,0.0,0.0,0.0,0.0,0.0,0.0,0.0,0.0,0.0,0.0,0.0,0.0,0.0,0.0,0.0,0.0,0.0,0.0,0.0,0.0,0.0,0.0,0.0,0.0,0.0,0.0,0.0,0.0,0.0,0.0,0.0,0.0,0.0,0.0,0.0,0.0,0.0,0.0,0.0,0.0,0.0,0.0,0.0,0.0,0.0,0.0,0.0,0.0,0.0,0.0,0.0,0.0,0.0,0.0,0.0,0.0,0.0,0.0,0.0,0.0,0.0,0.0,0.0,0.0,0.0,0.0,0.0,0.0,0.0,0.0,0.0,0.0,0.0,0.0,0.0,0.0,0.0,0.0,0.0,0.0,0.0,0.0,0.0,0.0,0.0,0.0,0.0,0.0,0.0,0.0,0.0,0.0,0.0,0.0,0.0,0.0,0.0,0.0,0.0,0.0,0.0,0.0,0.0,0.0,0.0,0.0,0.0,0.0,0.0,0.0,0.0,0.0,0.0,0.0,0.0,0.0,0.0,0.0,0.0,0.0,0.0,0.0,0.0,0.0,0.0,0.0,0.0,0.0,0.0,0.0,0.0,0.0,0.0,0.0,0.0,0.0,0.0,0.0,0.0,0.0,0.0,0.0,0.0,0.0,0.0,0.0,0.0,0.0,0.0,0.0,0.0,0.0,0.0,0.0,0.0,0.0,0.0,0.0,0.0,0.0,0.0,0.0,0.0,0.0,0.0,0.0,0.0,0.0,0.0,0.0,0.0,0.0,0.0,0.0,0.0,0.0,0.0,0.0,0.0,0.0,0.0,0.0,0.0,0.0,0.0,0.0,0.0,0.0,0.0,0.0,0.0,0.0,0.0,0.0,0.0,0.0,0.0,0.0,0.0,0.0,0.0,0.0,0.0,0.0,0.0,0.0,0.0,0.0,0.0,0.0,0.0,0.0,0.0,0.0,0.0,0.0,0.0,0.0,0.0,0.0,0.0,0.0,0.0,0.0,0.0,0.0,0.0,0.0,0.0,0.0,0.0,0.0,0.0,0.0,0.0,0.0,0.0,0.0,0.0,0.0,0.0,0.0,0.0,0.0,0.0,0.0,0.0,0.0,0.0,0.0,0.0,0.0,0.0,0.0,0.0,0.0,0.0,0.0,0.0,0.0,0.0,0.0,0.0,0.0,0.0,0.0,0.0,0.0,0.0,0.0,0.0,0.0,0.0,0.0,0.0,0.0,0.0,0.0,0.0,0.0,0.0,0.0,0.0,0.0,0.0,0.0,0.0,0.0,0.0,0.0,0.0,0.0,0.0,0.0,0.0,0.0,0.0,0.0,0.0,0.0,0.0,0.0,0.0,0.0,0.0,0.0,0.0,0.0,0.0,0.0,0.0,0.0,0.0,0.0,0.0,0.0,0.0,0.0,0.0,0.0,0.0,0.0,0.0,0.0,0.0,0.0,0.0,0.0,0.0,0.0,0.0,0.0,0.0,0.0,0.0,0.0,0.0,0.0,0.0,0.0,0.0,0.0,0.0,0.0,0.0,0.0,0.0,0.0,0.0,0.0,0.0,0.0,0.0,0.0,0.0,0.0,0.0,0.0,0.0,0.0,0.0,0.0,0.0,0.0,0.0,0.0,0.0,0.0,0.0,0.0,0.0,0.0,0.0,0.0,0.0,0.0,0.0,0.0,0.0,0.0,0.0,0.0,0.0,0.0,0.0,0.0,0.0,0.0,0.0,0.0,0.0,0.0,0.0,0.0,0.0,0.0,0.0,0.0,0.0,0.0,0.0,0.0,0.0,0.0,0.0,0.0,0.0,0.0,0.0,0.0,0.0,0.0,0.0,0.0,0.0,0.0,0.0,0.0,0.0,0.0,0.0,0.0,0.0,0.0,0.0,0.0,0.0,0.0,0.0,0.0,0.0,0.0,0.0,0.0,0.0,0.0,0.0,0.0,0.0,0.0,0.0,0.0,0.0,0.0,0.0,0.0,0.0,0.0,0.0,0.0,0.0,0.0,0.0,0.0,0.0,0.0,0.0,0.0,0.0,0.0,0.0,0.0,0.0,0.0,0.0,0.0,0.0,0.0,0.0,0.0,0.0,0.0,0.0,0.0,0.0,0.0,0.0,0.0,0.0,0.0,0.0,0.0,0.0,0.0,0.0,0.0,0.0,0.0,0.0,0.0,0.0,0.0,0.0,0.0,0.0,0.0,0.0,0.0,0.0,0.0,0.0,0.0,0.0,0.0,0.0,0.0,0.0,0.0,0.0,0.0,0.0,0.0,0.0,0.0,0.0,0.0,0.0,0.0,0.0,0.0,0.0,0.0,0.0,0.0,0.0,0.0,0.0,0.0,0.0,0.0,0.0,0.0,0.0,0.0,0.0,0.0,0.0,0.0,0.0,0.0,0.0,0.0,0.0,0.0,0.0,0.0,0.0,0.0,0.0,0.0,0.0,0.0,0.0,0.0,0.0,0.0,0.0,0.0,0.0,0.0,0.0,0.0,0.0,0.0,0.0,0.0,0.0,0.0,0.0,0.0,0.0,0.0,0.0,0.0,0.0,0.0,0.0,0.0,0.0,0.0,0.0,0.0,0.0,0.0,0.0,0.0,0.0,0.0,0.0,0.0,0.0,0.0,0.0,0.0,0.0,0.0,0.0,0.0,0.0,0.0,0.0,0.0,0.0,0.0,0.0,0.0,0.0,0.0,0.0,0.0,0.0,0.0,0.0,0.0,0.0,0.0,0.0,0.0,0.0,0.0,0.0,0.0,0.0,0.0,0.0,0.0,0.0,0.0,0.0,0.0,0.0,0.0,0.0,0.0,0.0,0.0,0.0,0.0,0.0,0.0,0.0,0.0,0.0,0.0,0.0,0.0,0.0,0.0,0.0,0.0,0.0,0.0,0.0,0.0,0.0,0.0,0.0,0.0,0.0,0.0,0.0,0.0,0.0,0.0,0.0,0.0,0.0,0.0,0.0,0.0,0.0,0.0,0.0,0.0,0.0,0.0,0.0,0.0,0.0,0.0,0.0,0.0,0.0,0.0,0.0,0.0,0.0,0.0,0.0,0.0,0.0,0.0,0.0,0.0,0.0,0.0,0.0,0.0,0.0,0.0,0.0,0.0,0.0,0.0,0.0,0.0,0.0,0.0,0.0,0.0,0.0,0.0,0.0,0.0,0.0,0.0,0.0,0.0,0.0,0.0,0.0,0.0,0.0,0.0,0.0,0.0,0.0,0.0,0.0,0.0,0.0,0.0,0.0,0.0,0.0,0.0,0.0,0.0,0.0,0.0,0.0,0.0,0.0,0.0,0.0,0.0,0.0,0.0,0.0,0.0,0.0,0.0,0.0,0.0,0.0,0.0,0.0,0.0,0.0,0.0,0.0,0.0,0.0,0.0,0.0,0.0,0.0,0.0,0.0,0.0,0.0,0.0,0.0,0.0,0.0,0.0,0.0,0.0,0.0,0.0,0.0,0.0,0.0,0.0,0.0,0.0,0.0,0.0,0.0,0.0,0.0,0.0,0.0,0.0,0.0,0.0,0.0,0.0,0.0,0.0,0.0,0.0,0.0,0.0,0.0,0.0,0.0,0.0,0.0,0.0,0.0,0.0,0.0,0.0,0.0,0.0,0.0,0.0,0.0,0.0,0.0,0.0,0.0,0.0,0.0,0.0,0.0,0.0,0.0,0.0,0.0,0.0,0.0,0.0,0.0,0.0,0.0,0.0,0.0,0.0,0.0,0.0,0.0,0.0,0.0,0.0,0.0,0.0,0.0,0.0,0.0,0.0,0.0,0.0,0.0,0.0,0.0,0.0,0.0,0.0,0.0,0.0,0.0,0.0,0.0,0.0,0.0,0.0,0.0,0.0,0.0,0.0,0.0,0.0,0.0,0.0,0.0,0.0,0.0,0.0,0.0,0.0,0.0,0.0,0.0,0.0,0.0,0.0,0.0,0.0,0.0,0.0,0.0,0.0,0.0,0.0,0.0,0.0,0.0,0.0,0.0,0.0,0.0,0.0,0.0,0.0,0.0,0.0,0.0,0.0,0.0,0.0,0.0,0.0,0.0,0.0,0.0,0.0,0.0,0.0,0.0,0.0,0.0,0.0,0.0,0.0,0.0,0.0,0.0,0.0,0.0,0.0,0.0,0.0,0.0,0.0,0.0,0.0,0.0,0.0,0.0,0.0,0.0,0.0,0.0,0.0,0.0,0.0,0.0,0.0,0.0,0.0,0.0,0.0,0.0,0.0,0.0,0.0,0.0,0.0,0.0,0.0,0.0,0.0,0.0,0.0,0.0,0.0,0.0,0.0,0.0,0.0,0.0,0.0,0.0,0.0,0.0,0.0,0.0,0.0,0.0,0.0,0.0,0.0,0.0,0.0,0.0,0.0,0.0,0.0,0.0,0.0,0.0,0.0,0.0,0.0,0.0,0.0,0.0,0.0,0.0,0.0,0.0,1.6737,0.0,0.0,0.0,0.0,0.0,0.0,0.0,0.0,0.0,0.0,0.0,0.0,0.0,0.0,0.0,0.0,0.0,0.0,0.0,0.0,0.0,0.0,0.0,0.0,0.0,0.0,0.0,0.0,0.0,0.0,0.0,0.0,0.0,0.0,0.0,0.0,0.0,0.0,0.0,0.0,0.0,0.0,0.0,0.0,0.0,0.0,0.0,0.0,0.0,0.0,0.0,0.0,0.0,0.0,0.0,0.0,0.0,0.0,0.0,0.0,0.0,0.0,0.0,0.0,0.0,0.0,0.0,0.0,0.0,0.0,0.0,0.0,0.0,0.0,0.0,0.0,0.0,0.0,0.0,0.0,0.0,0.0,0.0,0.0,0.0,0.0,0.0,0.0,0.0,0.0,0.0,0.0,0.0,0.0,0.0,0.0,0.0,0.0,0.0,0.0,0.0,0.0,0.0,0.0,0.0,0.0,0.0,0.0,0.0,0.0,0.0,0.0,0.0,0.0,0.0,0.0,1.7067,0.0,0.0,0.0,0.0,0.0,0.0,0.0,0.0,0.0,0.0,0.0,0.0,0.0,0.0,0.0,0.0,0.0,0.0,0.0,0.0,0.0,0.0,0.0,0.0,0.0,0.0,0.0,0.0,0.0,0.0,0.0,0.0,0.0,0.0,0.0,0.0,0.0,0.0,0.0,0.0,0.0,0.0,0.0,0.0,0.0,0.0,0.0,0.0,0.0,0.0,0.0,0.0,0.0,0.0,0.0,0.0,0.0,0.0,0.0,0.0,0.0,0.0,0.0,0.0,0.0,0.0,0.0,0.0,0.0,0.0,0.0,0.0,0.0,0.0,0.0,0.0,0.0,0.0,0.0,0.0,0.0,0.0,0.0,0.0,0.0,0.0,0.0,0.0,0.0,0.0,0.0,0.0,0.0,0.0,0.0,0.0,0.0,0.0,0.0,0.0,0.0,0.0,0.0,0.0,0.0,0.0,0.0,0.0,1.9858,2.0417,2.043,2.0596,2.1336,2.235,1.9843,1.9243,1.9932,1.8839,0.0,0.0,0.0,0.0,0.0,0.0,0.0,0.0,0.0,0.0,0.0,0.0,0.0,0.0,0.0,0.0,0.0,0.0,0.0,0.0,0.0,0.0,0.0,0.0,0.0,0.0,0.0,0.0,0.0,0.0,0.0,0.0,0.0,0.0,0.0,0.0,0.0,0.0,0.0,0.0,0.0,0.0,0.0,0.0,0.0,0.0,0.0,0.0,0.0,0.0,0.0,0.0,0.0,0.0,0.0,0.0,0.0,0.0,0.0,0.0,0.0,0.0,0.0,0.0,0.0,0.0,0.0,0.0,0.0,0.0,0.0,0.0,0.0,0.0,0.0,0.0,0.0,0.0,0.0,0.0,0.0,0.0,0.0,0.0,0.0,0.0,1.67,1.8288,0.0,0.0,0.0,0.0,0.0,0.0,0.0,0.0,0.0,0.0,0.0,0.0,0.0,2.1592,2.1466,2.1881,2.1983,2.1815,2.2279,2.25,2.25,2.2523,2.2652,2.2823,2.2411,0.0,2.0486,2.0314,0.0,0.0,0.0,0.0,0.0,0.0,0.0,0.0,0.0,0.0,0.0,0.0,0.0,0.0,0.0,0.0,0.0,0.0,0.0,0.0,0.0,0.0,0.0,0.0,0.0,0.0,0.0,0.0,0.0,0.0,0.0,0.0,0.0,0.0,0.0,0.0,0.0,0.0,0.0,0.0,0.0,0.0,0.0,0.0,0.0,0.0,0.0,0.0,0.0,0.0,0.0,0.0,0.0,0.0,0.0,0.0,0.0,0.0,0.0,0.0,0.0,0.0,0.0,0.0,0.0,0.0,0.0,0.0,0.0,0.0,0.0,0.0,0.0,0.0,0.0,0.0,0.0,0.0,0.0,0.0,0.0,0.0,0.0,0.0,0.0,1.744,1.9138,1.9993,2.0095,2.013,0.0,0.0,0.0,0.0,0.0,0.0,0.0,0.0,0.0,2.2201,2.2231,2.2328,2.2489,2.2622,2.2689,2.2689,2.284,2.2893,2.2893,2.2893,2.2893,2.2893,2.2893,2.2516,2.1885,2.1885,2.151,2.0928,0.0,0.0,0.0,0.0,2.0928,2.0928,0.0,0.0,0.0,0.0,0.0,0.0,0.0,0.0,0.0,0.0,0.0,0.0,0.0,0.0,0.0,0.0,0.0,0.0,0.0,0.0,0.0,0.0,0.0,0.0,0.0,0.0,0.0,0.0,0.0,0.0,0.0,0.0,0.0,0.0,0.0,0.0,0.0,0.0,0.0,0.0,0.0,0.0,0.0,0.0,0.0,0.0,0.0,0.0,0.0,0.0,0.0,0.0,0.0,0.0,0.0,0.0,0.0,0.0,0.0,0.0,0.0,0.0,0.0,0.0,0.0,0.0,0.0,0.0,0.0,0.0,0.0,0.0,0.0,0.0,0.0,0.0,0.0,1.9531,2.0884,2.1082,2.1093,2.112,0.0,0.0,0.0,0.0,0.0,0.0,2.2101,2.2098,2.2231,2.2525,2.2539,2.2649,2.2893,2.2893,2.2893,2.2893,2.2893,2.2893,2.2893,2.2893,2.2893,2.2893,2.2893,2.2893,2.2893,2.2893,2.2893,2.2893,2.2893,2.2893,2.2893,2.2893,2.2893,2.2893,0.0,0.0,0.0,0.0,0.0,0.0,0.0,0.0,0.0,0.0,0.0,0.0,0.0,0.0,0.0,0.0,0.0,0.0,0.0,0.0,0.0,0.0,0.0,0.0,0.0,0.0,0.0,0.0,0.0,0.0,0.0,0.0,0.0,0.0,0.0,0.0,0.0,0.0,0.0,0.0,0.0,0.0,0.0,0.0,0.0,0.0,0.0,0.0,0.0,0.0,0.0,0.0,0.0,0.0,0.0,0.0,0.0,0.0,0.0,0.0,0.0,0.0,0.0,0.0,0.0,0.0,0.0,0.0,0.0,0.0,0.0,0.0,0.0,0.0,0.0,0.0,0.0,0.0,0.0,2.1093,2.1093,0.0,0.0,0.0,0.0,2.1954,2.1981,2.2101,2.2361,2.2375,2.2539,2.2867,2.288,2.288,2.2893,2.2893,2.2893,2.2893,2.2893,2.2893,2.2893,2.2893,2.2893,2.2893,2.2893,2.2893,2.2893,2.2893,2.2893,2.2893,2.2893,2.2893,2.2893,2.2893,2.2893,2.2893,0.0,0.0,0.0,0.0,0.0,0.0,0.0,0.0,0.0,0.0,0.0,0.0,0.0,0.0,0.0,0.0,0.0,0.0,0.0,0.0,0.0,0.0,0.0,0.0,0.0,0.0,0.0,0.0,0.0,0.0,0.0,0.0,0.0,0.0,0.0,0.0,0.0,0.0,0.0,0.0,0.0,0.0,0.0,0.0,0.0,0.0,0.0,0.0,0.0,0.0,0.0,0.0,0.0,0.0,0.0,0.0,0.0,0.0,0.0,0.0,0.0,0.0,0.0,0.0,0.0,0.0,0.0,0.0,0.0,0.0,0.0,0.0,0.0,0.0,0.0,0.0,0.0,0.0,0.0,2.1408,2.1422,0.0,2.1836,2.1863,2.1967,2.2245,2.2258,2.2392,2.2702,2.292,2.3008,2.2893,2.3116,2.3218,2.3218,2.3013,2.3013,2.3218,2.2996,2.2893,2.2893,2.2893,2.2983,2.3166,2.3166,2.3291,2.3482,2.3482,2.3255,2.2893,2.2893,2.2893,2.292,2.3086,2.3166,2.3193,0.0,0.0,0.0,0.0,0.0,0.0,0.0,0.0,0.0,0.0,0.0,0.0,0.0,0.0,0.0,0.0,0.0,0.0,0.0,0.0,0.0,0.0,0.0,0.0,0.0,0.0,0.0,0.0,0.0,0.0,0.0,0.0,0.0,0.0,0.0,0.0,0.0,0.0,0.0,0.0,0.0,0.0,2.0097,0.0,0.0,0.0,0.0,0.0,0.0,0.0,0.0,0.0,0.0,0.0,0.0,0.0,0.0,0.0,0.0,0.0,0.0,0.0,0.0,0.0,0.0,0.0,0.0,0.0,0.0,0.0,0.0,0.0,0.0,0.0,0.0,0.0,0.0,2.0604,2.1352,2.1569,2.1676,2.185,2.2111,2.2124,2.2308,2.2707,2.2633,2.2778,2.3239,2.3355,2.3355,2.327,2.3492,2.3543,2.3406,2.3399,2.3454,2.3574,2.358,2.3569,2.3569,2.3569,2.3674,2.3843,2.3843,2.3898,2.3968,2.3968,2.3668,2.3201,2.3201,2.3201,2.3228,2.3394,2.3474,2.35,0.0,0.0,0.0,0.0,0.0,0.0,0.0,0.0,0.0,0.0,0.0,0.0,0.0,0.0,0.0,0.0,0.0,0.0,0.0,0.0,0.0,0.0,0.0,0.0,0.0,0.0,0.0,0.0,0.0,0.0,0.0,0.0,0.0,0.0,0.0,0.0,0.0,0.0,0.0,0.0,0.0,0.0,2.0673,0.0,0.0,0.0,0.0,0.0,0.0,0.0,0.0,0.0,0.0,0.0,0.0,0.0,0.0,0.0,0.0,0.0,0.0,0.0,0.0,0.0,0.0,0.0,0.0,0.0,0.0,0.0,0.0,0.0,0.0,0.0,0.0,0.0,2.1162,2.1408,2.1628,2.1625,2.188,2.2144,2.2405,2.2432,2.2704,2.3362,2.3116,2.3253,2.3952,2.3645,2.3611,2.4,2.4017,2.3861,2.3468,2.4101,2.4254,2.3959,2.4595,2.4893,2.4893,2.4893,2.4911,2.4907,2.4907,2.4695,2.4354,2.4354,2.4155,2.3848,2.3817,2.3803,2.3803,2.3817,2.383,2.3812,0.0,0.0,0.0,0.0,0.0,0.0,0.0,0.0,0.0,0.0,0.0,0.0,0.0,0.0,0.0,0.0,0.0,0.0,0.0,0.0,0.0,0.0,0.0,0.0,0.0,0.0,0.0,0.0,0.0,0.0,0.0,0.0,0.0,0.0,0.0,0.0,0.0,0.0,0.0,0.0,0.0,0.0,2.0687,0.0,0.0,0.0,0.0,0.0,0.0,0.0,0.0,0.0,0.0,0.0,0.0,0.0,0.0,0.0,0.0,0.0,0.0,0.0,0.0,0.0,0.0,0.0,0.0,0.0,0.0,0.0,0.0,0.0,0.0,0.0,2.17,2.1796,2.1502,2.1927,2.2233,2.2184,2.2508,2.2838,2.3103,2.313,2.3311,2.3799,2.3747,2.3795,2.3986,2.4122,2.4221,2.4291,2.4564,2.4781,2.4921,2.4813,2.4855,2.5063,2.494,2.4893,2.4893,2.4893,2.5037,2.5265,2.5265,2.5302,2.5402,2.5402,2.5166,2.4738,2.4067,2.3803,2.3812,2.4026,2.4222,2.4377,0.0,0.0,0.0,0.0,0.0,0.0,0.0,0.0,0.0,0.0,0.0,0.0,0.0,0.0,0.0,0.0,0.0,0.0,0.0,0.0,0.0,0.0,0.0,0.0,0.0,0.0,0.0,0.0,0.0,0.0,0.0,0.0,0.0,0.0,0.0,0.0,0.0,0.0,0.0,0.0,0.0,0.0,2.1336,2.1336,2.1146,2.0882,2.0947,2.075,2.0464,2.0491,0.0,0.0,0.0,0.0,0.0,0.0,0.0,0.0,0.0,0.0,0.0,0.0,0.0,0.0,0.0,0.0,0.0,0.0,0.0,0.0,0.0,0.0,0.0,0.0,2.2126,2.231,2.1987,2.2371,2.2697,2.2657,2.3112,2.3469,2.3648,2.3645,2.3799,2.4187,2.418,2.4302,2.461,2.4807,2.4965,2.5081,2.529,2.5443,2.5507,2.5694,2.5805,2.5891,2.6077,2.6169,2.6169,2.6169,2.6269,2.6441,2.6441,2.6448,2.647,2.647,2.6229,0.0,0.0,0.0,0.0,0.0,2.4471,2.4613,0.0,0.0,0.0,0.0,0.0,0.0,0.0,0.0,0.0,0.0,0.0,0.0,0.0,0.0,0.0,0.0,0.0,0.0,0.0,0.0,0.0,0.0,0.0,0.0,0.0,0.0,0.0,0.0,0.0,0.0,0.0,0.0,0.0,0.0,0.0,0.0,0.0,0.0,0.0,0.0,0.0,0.0,2.2199,2.2199,2.2019,2.172,2.1462,2.1144,2.0812,2.0519,0.0,0.0,0.0,0.0,0.0,0.0,0.0,0.0,0.0,0.0,0.0,0.0,0.0,0.0,0.0,0.0,0.0,0.0,0.0,0.0,0.0,0.0,0.0,0.0,2.2685,2.2993,2.264,2.2926,2.3144,2.3043,2.3632,2.4068,2.4068,2.4096,2.4246,2.4587,2.4581,2.4869,2.5509,0.0,0.0,0.0,0.0,2.6005,2.5776,2.6663,2.6917,2.6573,2.7465,2.7892,2.7892,2.7892,2.7892,2.7892,2.7892,2.7723,2.7458,2.7458,2.7231,2.6757,2.5708,2.5076,2.4748,2.4724,2.4693,2.4733,0.0,0.0,0.0,0.0,0.0,0.0,0.0,0.0,0.0,0.0,0.0,0.0,0.0,0.0,0.0,0.0,0.0,0.0,0.0,0.0,0.0,0.0,0.0,0.0,0.0,0.0,0.0,0.0,0.0,0.0,0.0,0.0,0.0,0.0,0.0,0.0,0.0,0.0,0.0,0.0,0.0,0.0,2.2199,2.2199,2.2169,2.2123,2.228,2.2108,2.1816,2.1759,2.1546,2.128,2.1014,0.0,0.0,0.0,0.0,0.0,0.0,0.0,0.0,0.0,0.0,0.0,0.0,0.0,0.0,0.0,0.0,0.0,0.0,0.0,0.0,2.2843,2.3369,2.3783,2.3698,2.3986,2.3986,2.3392,2.3975,2.4394,2.4394,2.4653,2.4951,2.5278,2.5548,2.574,2.5912,2.5901,2.6181,2.6793,2.6808,2.702,2.742,2.7626,2.7684,2.7609,0.0,0.0,2.7892,2.7892,2.7892,2.7892,2.7892,2.7855,2.7798,2.7798,2.759,2.7198,2.629,2.5875,2.5761,2.5439,2.5325,2.5339,0.0,0.0,0.0,0.0,0.0,0.0,0.0,0.0,0.0,0.0,0.0,0.0,0.0,0.0,0.0,0.0,0.0,0.0,0.0,0.0,0.0,0.0,0.0,0.0,0.0,0.0,0.0,0.0,0.0,0.0,0.0,0.0,0.0,0.0,0.0,0.0,0.0,0.0,0.0,0.0,0.0,0.0,2.2652,2.2652,2.2652,2.2651,2.2613,2.2486,2.2313,2.2172,2.1882,2.1583,2.1409,2.1235,2.1093,0.0,0.0,0.0,0.0,0.0,0.0,0.0,0.0,0.0,0.0,0.0,0.0,0.0,0.0,2.2135,2.2433,0.0,2.3295,2.3464,2.3922,2.419,2.402,2.4459,2.4595,2.402,2.457,2.4995,2.4995,2.5302,2.556,2.5734,2.6058,2.6322,2.65,2.6661,2.6969,2.7433,2.7448,2.7609,2.7911,2.8072,2.816,2.816,2.8486,2.8647,2.8647,2.8808,2.89,2.89,2.89,2.89,2.89,2.89,2.8803,2.8568,2.7917,2.7031,2.6072,2.5862,2.5671,2.5512,0.0,0.0,0.0,0.0,0.0,0.0,0.0,0.0,0.0,0.0,0.0,0.0,0.0,0.0,0.0,0.0,0.0,0.0,0.0,0.0,0.0,0.0,0.0,0.0,0.0,0.0,0.0,0.0,0.0,0.0,0.0,0.0,0.0,0.0,0.0,0.0,0.0,0.0,0.0,0.0,0.0,0.0,2.309,2.309,2.309,2.3059,2.2793,2.2699,2.2653,2.2308,2.201,2.1758,2.1646,2.1457,2.1267,2.1141,2.1156,0.0,0.0,0.0,0.0,0.0,0.0,0.0,0.0,2.1727,2.1854,2.2149,2.2253,2.248,2.308,2.3319,2.3571,2.4026,2.4391,2.4541,2.4309,2.48,2.5084,2.4818,2.5197,2.5532,2.5588,2.5898,2.6117,2.6175,2.65,2.6837,2.7159,2.7422,2.7715,2.7999,2.8014,2.8072,2.8189,2.8471,2.8632,2.8705,2.9242,2.9491,2.9505,2.9789,2.9906,2.9906,2.9906,2.9906,2.9906,2.9906,2.9906,2.9866,2.9483,2.8267,2.6697,2.6606,2.6316,2.6028,0.0,0.0,0.0,0.0,0.0,0.0,0.0,0.0,0.0,0.0,0.0,0.0,0.0,0.0,0.0,0.0,0.0,0.0,0.0,0.0,0.0,0.0,0.0,0.0,0.0,0.0,0.0,0.0,0.0,0.0,0.0,0.0,0.0,0.0,0.0,0.0,0.0,0.0,0.0,0.0,0.0,0.0,2.309,2.309,2.309,2.309,2.3059,2.3043,2.2981,2.2653,2.2512,2.2371,2.179,2.1788,2.1868,2.1267,0.0,2.1488,2.1188,2.1093,2.1176,2.1475,2.177,2.198,0.0,2.22,2.2495,2.2812,2.3131,2.3448,2.382,2.4419,2.4771,2.4495,2.4781,2.5103,2.5295,2.5407,2.5544,2.5801,2.5629,2.562,2.5912,2.6252,2.6574,2.6866,2.7207,2.751,2.7794,2.7819,2.8014,2.8335,2.835,2.8632,2.9227,2.9271,2.9432,2.9725,2.9818,2.9828,2.9848,2.9892,2.9906,2.9906,2.9906,2.9906,2.9906,2.9906,2.9906,2.9886,2.9846,2.9416,2.8804,2.8442,2.8019,2.7709,0.0,0.0,0.0,0.0,0.0,0.0,0.0,0.0,0.0,0.0,0.0,0.0,0.0,0.0,0.0,0.0,0.0,0.0,0.0,0.0,0.0,0.0,0.0,0.0,0.0,0.0,0.0,0.0,0.0,0.0,0.0,0.0,0.0,0.0,0.0,0.0,0.0,0.0,0.0,0.0,0.0,0.0,2.309,2.309,2.309,2.309,2.309,2.309,0.0,0.0,2.2762,2.2543,2.2261,2.2024,2.1756,2.1472,2.1346,0.0,2.161,2.1644,2.1692,2.2038,2.2228,2.2378,2.2543,2.2694,2.2943,2.3464,2.3502,2.3612,2.4193,2.4544,2.4781,2.4832,2.5128,2.5357,2.5471,2.5678,2.5912,2.6249,2.6339,2.6354,2.631,2.6764,2.7148,2.728,2.7569,2.7872,2.8174,2.8189,2.8423,2.8973,2.8988,2.9208,2.9701,2.9681,2.9774,2.9906,3.0097,3.0185,3.0199,3.0355,3.0422,3.0422,3.0422,3.0422,3.0422,3.0422,3.0422,3.0422,3.0422,3.0155,2.9715,2.916,2.849,2.7961,0.0,0.0,0.0,0.0,0.0,0.0,0.0,0.0,0.0,0.0,0.0,0.0,0.0,0.0,0.0,0.0,0.0,0.0,0.0,2.0217,0.0,0.0,0.0,0.0,0.0,0.0,0.0,0.0,0.0,0.0,0.0,0.0,0.0,0.0,0.0,0.0,0.0,0.0,0.0,0.0,0.0,0.0,2.309,2.309,2.309,2.309,2.309,2.309,0.0,0.0,2.2934,2.2699,2.2512,2.2182,2.1849,2.1647,2.1474,2.1483,2.204,2.216,2.2218,2.2547,2.2789,2.2974,2.3077,2.3263,2.3551,2.4046,2.3901,2.3901,2.4561,2.4679,2.4793,2.5152,2.5357,2.5559,2.5751,2.5985,2.631,2.672,2.6983,2.7071,2.6892,2.7335,2.7642,2.773,2.793,2.8218,2.8661,2.8676,2.8944,2.952,2.9535,2.9716,3.0038,3.0038,3.0082,3.015,3.0384,3.0501,3.0536,3.0715,3.0796,3.0796,3.0796,3.0796,3.0796,3.0796,3.0796,3.0796,3.0796,3.0624,3.0309,2.9813,2.9171,2.8612,0.0,0.0,0.0,0.0,0.0,0.0,0.0,0.0,0.0,0.0,0.0,0.0,0.0,0.0,0.0,0.0,0.0,0.0,0.0,1.9854,0.0,0.0,0.0,0.0,0.0,0.0,0.0,0.0,0.0,0.0,0.0,0.0,0.0,0.0,0.0,0.0,0.0,0.0,0.0,0.0,0.0,0.0,2.309,2.309,2.309,2.309,2.309,0.0,0.0,0.0,2.309,2.2965,2.2324,2.2324,0.0,2.1794,2.1786,0.0,2.2391,2.2487,2.2572,2.2906,2.3523,2.3928,2.3494,2.3938,2.4461,2.4478,2.4478,2.4595,2.5001,2.5069,2.5171,2.5444,2.5486,2.5737,2.6383,2.6486,2.672,2.7397,2.747,2.7583,2.7819,2.7882,2.8009,2.835,2.8379,2.8676,2.933,2.9374,2.952,2.9877,2.9892,3.0053,3.0375,3.0375,3.0516,3.0767,3.0782,3.0782,3.0782,3.0796,3.0796,3.0796,3.0796,3.0796,3.0796,3.0796,3.0796,3.0796,3.0796,3.0776,3.0776,3.0761,3.049,3.0192,0.0,0.0,0.0,0.0,0.0,0.0,0.0,0.0,0.0,0.0,0.0,0.0,0.0,0.0,0.0,0.0,0.0,0.0,0.0,1.9839,2.0859,0.0,0.0,0.0,0.0,0.0,0.0,0.0,0.0,0.0,0.0,0.0,0.0,0.0,0.0,0.0,0.0,0.0,0.0,0.0,0.0,0.0,2.309,2.309,2.309,2.309,0.0,0.0,0.0,0.0,0.0,0.0,2.2825,0.0,0.0,2.2011,0.0,0.0,2.3004,2.3139,2.3237,2.3837,2.4001,2.4046,2.4125,2.4139,2.4323,2.4798,2.4696,2.4686,2.5261,2.5374,2.5476,2.5781,2.6015,2.6307,2.6764,2.7013,2.7305,2.7726,2.7959,2.8135,2.8218,2.8233,2.8364,2.871,2.893,2.9271,2.9716,2.9725,2.9892,3.0214,3.0229,3.0355,3.0656,3.0671,3.0715,3.0796,3.0796,3.0796,3.0796,3.0796,3.0796,3.0796,3.0796,3.0796,3.0826,3.103,3.1001,3.0826,3.1045,3.0986,3.0796,3.0796,3.0707,3.0624,0.0,0.0,0.0,0.0,0.0,0.0,0.0,0.0,0.0,0.0,0.0,0.0,0.0,0.0,0.0,0.0,0.0,0.0,0.0,0.0,2.0745,2.1175,0.0,0.0,0.0,0.0,0.0,0.0,0.0,0.0,0.0,0.0,0.0,0.0,0.0,0.0,0.0,0.0,0.0,0.0,0.0,0.0,2.309,2.309,2.309,0.0,0.0,0.0,0.0,0.0,0.0,0.0,0.0,0.0,0.0,0.0,2.2653,2.2917,2.3658,2.3832,2.3901,2.4377,2.4459,2.4408,2.4478,2.4442,2.4527,2.5001,2.497,2.4995,2.5422,2.5605,2.5795,2.6117,2.6369,2.6661,2.71,2.7368,2.7642,2.8028,2.8364,2.8632,2.8735,2.8886,2.8973,2.9081,2.9388,2.971,3.0068,3.0082,3.0229,3.053,3.0545,3.0633,3.0796,3.0796,3.0855,3.0972,3.0972,3.103,3.1147,3.1147,3.1147,3.1147,3.1147,3.1147,3.1162,3.1402,3.1359,3.1177,3.1381,3.1359,3.1147,3.1147,3.1147,3.1133,0.0,0.0,0.0,0.0,0.0,0.0,0.0,0.0,0.0,0.0,0.0,0.0,0.0,0.0,0.0,0.0,0.0,0.0,0.0,0.0,0.0,2.1146,2.1511,0.0,0.0,0.0,0.0,0.0,0.0,0.0,0.0,0.0,0.0,0.0,0.0,0.0,0.0,0.0,0.0,0.0,0.0,0.0,2.309,2.309,0.0,0.0,0.0,0.0,0.0,0.0,0.0,0.0,0.0,0.0,2.3119,2.3434,2.3475,2.356,2.4292,2.4493,2.4478,2.4512,2.4798,2.4967,2.4597,2.4815,2.5083,2.5115,2.5315,2.55,2.5544,2.581,2.6149,2.6471,2.6544,2.6778,2.7426,2.7543,2.7759,2.8379,2.872,2.9066,2.9388,2.9811,2.991,2.9601,2.98,3.0068,3.0405,3.0419,3.053,3.0796,3.0796,3.0811,3.0826,3.084,3.1016,3.1329,3.1329,3.149,3.1798,3.1798,3.1798,3.1798,3.1798,3.1798,3.1798,3.1812,3.1812,3.1798,3.1812,3.1812,3.1798,3.1798,3.1798,3.1754,0.0,0.0,0.0,0.0,0.0,0.0,0.0,0.0,0.0,0.0,0.0,0.0,0.0,0.0,0.0,0.0,0.0,0.0,0.0,0.0,0.0,0.0,0.0,0.0,0.0,0.0,0.0,0.0,0.0,0.0,0.0,0.0,0.0,0.0,0.0,0.0,0.0,0.0,0.0,0.0,0.0,0.0,2.309,0.0,0.0,0.0,0.0,0.0,0.0,0.0,0.0,2.3466,2.3417,2.356,2.3749,2.3854,2.3658,2.356,2.4292,2.4309,2.4272,2.4815,2.4798,2.4713,2.4899,2.4798,2.4788,2.5308,2.5459,2.5646,2.6146,2.6307,2.6486,2.6808,2.7071,2.7364,2.7755,2.7999,2.8413,2.9061,2.9227,2.9403,2.9745,3.1204,3.2087,3.2009,3.0931,3.0405,3.0685,3.07,3.0723,3.0796,3.0796,3.0913,3.1162,3.1432,3.1593,3.1666,3.1666,3.171,3.1798,3.1798,3.1798,3.1798,3.1798,3.1798,3.1812,3.2061,3.2039,3.1827,3.2061,3.2017,3.1798,3.1798,3.1798,3.1827,0.0,0.0,0.0,0.0,0.0,0.0,0.0,0.0,0.0,0.0,0.0,0.0,0.0,0.0,0.0,0.0,0.0,0.0,0.0,0.0,0.0,0.0,0.0,0.0,0.0,0.0,0.0,0.0,0.0,0.0,0.0,0.0,0.0,0.0,0.0,0.0,0.0,0.0,0.0,0.0,0.0,0.0,0.0,0.0,0.0,0.0,0.0,0.0,0.0,2.2826,2.3306,2.3757,2.3396,2.3617,2.3997,2.3995,2.3713,2.356,2.4292,2.4272,2.4187,2.4916,2.4798,2.464,2.5159,2.5103,2.5088,2.5612,2.5839,2.6044,2.6442,2.6617,2.6778,2.6969,2.728,2.7583,2.7868,2.8325,2.8812,2.9344,2.9672,3.0188,3.1133,3.1681,3.2308,3.3046,3.2247,3.1766,3.1927,3.1212,3.0869,3.1016,3.1016,3.1177,3.152,3.171,3.1871,3.2017,3.2017,3.2112,3.2244,3.2244,3.2244,3.2244,0.0,3.2244,3.2258,3.2449,3.2405,3.2258,3.2449,3.2405,3.2244,3.2244,3.2244,3.2273,0.0,0.0,0.0,0.0,0.0,0.0,0.0,0.0,0.0,0.0,0.0,0.0,0.0,0.0,0.0,0.0,0.0,0.0,0.0,0.0,0.0,0.0,0.0,0.0,0.0,0.0,0.0,0.0,0.0,0.0,0.0,0.0,0.0,0.0,0.0,0.0,0.0,0.0,0.0,0.0,0.0,0.0,0.0,0.0,0.0,0.0,0.0,0.0,0.0,0.0,2.3164,2.3842,2.325,2.3507,2.4,2.4,2.3713,2.356,2.4292,2.4207,2.4119,2.4899,2.4798,2.4666,2.5358,2.55,2.562,2.5985,2.631,2.6515,2.6559,2.6793,2.7002,2.7002,2.7309,2.7642,2.7868,2.8515,2.9095,2.9418,3.0024,3.0983,3.2482,3.1925,3.2144,3.3718,3.4045,3.3963,3.3513,3.2039,3.1267,3.1359,3.165,3.1925,3.2221,3.2266,3.245,3.271,3.247,3.2522,3.28,3.28,3.28,3.28,3.28,0.0,3.28,3.28,3.28,3.28,3.28,3.28,3.28,3.28,3.28,3.28,0.0,0.0,0.0,0.0,0.0,0.0,0.0,0.0,0.0,0.0,0.0,0.0,0.0,0.0,0.0,0.0,0.0,0.0,0.0,0.0,0.0,0.0,0.0,0.0,0.0,0.0,0.0,0.0,0.0,0.0,0.0,0.0,0.0,0.0,0.0,0.0,0.0,0.0,0.0,0.0,0.0,0.0,0.0,0.0,0.0,0.0,0.0,0.0,0.0,0.0,2.263,2.3217,2.3369,2.3675,2.4,2.4,2.3713,2.356,2.4292,2.4003,2.3765,2.4832,2.4798,2.4666,2.5358,2.55,2.5661,2.6296,2.6457,2.6588,2.6852,2.6954,2.7002,2.7002,2.7462,2.7853,2.7892,2.8725,2.9432,2.9754,3.0155,3.0595,3.1114,3.3565,3.5362,3.5994,3.7389,3.6962,3.4127,3.3604,3.2861,3.1753,3.3426,3.4388,3.4435,3.4733,3.4884,3.4925,3.3446,3.2742,3.28,3.28,3.28,3.28,3.28,0.0,3.28,3.28,3.28,3.28,3.28,3.28,3.28,3.28,3.28,3.28,0.0,0.0,0.0,0.0,0.0,0.0,0.0,0.0,0.0,0.0,0.0,0.0,0.0,0.0,0.0,0.0,0.0,0.0,0.0,0.0,0.0,0.0,0.0,0.0,0.0,0.0,2.2237,2.2841,0.0,0.0,0.0,0.0,0.0,0.0,0.0,0.0,0.0,0.0,0.0,0.0,0.0,0.0,0.0,0.0,0.0,0.0,0.0,0.0,0.0,0.0,2.2247,2.2525,2.2826,2.3278,2.3645,2.3475,2.3287,2.3304,2.4037,2.3696,2.3458,2.4764,2.4761,2.467,2.5554,2.5898,2.6161,2.6661,2.6749,2.6808,2.6969,2.7148,2.7265,2.7265,2.7769,2.816,2.816,2.9032,3.0036,3.1086,3.166,3.2708,3.4684,3.574,3.6374,3.6542,3.7527,3.7385,3.5751,3.4924,3.4149,3.3502,3.5537,3.6208,3.5272,3.543,3.5031,3.4077,3.3205,3.28,3.28,3.28,3.28,3.28,3.28,0.0,3.28,3.28,3.28,3.28,3.28,3.28,3.28,3.28,3.28,3.28,0.0,0.0,0.0,0.0,0.0,0.0,0.0,0.0,0.0,0.0,0.0,0.0,0.0,0.0,0.0,0.0,0.0,0.0,0.0,0.0,0.0,0.0,0.0,0.0,0.0,0.0,0.0,2.2516,2.284,0.0,0.0,0.0,0.0,0.0,2.309,0.0,0.0,0.0,0.0,0.0,0.0,0.0,0.0,0.0,0.0,0.0,0.0,0.0,0.0,0.0,2.2007,2.2061,2.2405,2.2876,2.3236,2.2979,2.2893,2.303,2.3679,2.3389,2.3249,2.4715,2.4693,2.4616,2.5839,2.6254,2.6481,2.6907,2.7002,2.7031,2.7086,2.7324,2.7514,2.7587,2.8047,2.8423,2.8501,2.9295,3.0424,3.1813,3.2824,3.4527,3.7361,3.698,3.6792,3.7333,3.7719,3.7726,3.7224,3.6613,3.6104,3.5698,3.7315,3.7509,3.6096,3.569,3.4791,3.3367,3.2984,3.3006,3.3367,3.2984,3.3006,3.336,3.2962,0.0,0.0,3.28,3.28,3.28,3.28,3.28,3.28,3.28,3.28,3.28,0.0,0.0,0.0,0.0,0.0,0.0,0.0,0.0,0.0,0.0,0.0,0.0,0.0,0.0,0.0,0.0,0.0,0.0,0.0,0.0,0.0,0.0,0.0,0.0,0.0,0.0,0.0,2.2239,2.2514,0.0,0.0,0.0,0.0,0.0,0.0,2.309,2.309,0.0,0.0,0.0,0.0,0.0,0.0,0.0,0.0,0.0,0.0,0.0,2.1187,2.1807,2.2007,2.2101,2.2662,2.2914,2.2945,2.2911,2.2893,2.2979,2.3355,2.3184,2.3235,2.4647,2.4469,2.4393,2.6061,2.6203,2.6157,2.687,2.7002,2.7104,2.7397,2.747,2.7569,2.7824,2.8174,2.8515,2.8812,2.9447,3.007,3.0526,3.2248,3.37,3.4453,3.5723,3.7529,3.9948,4.0448,3.9748,3.7659,3.9394,3.967,3.7972,3.8114,3.8131,3.7959,3.6335,3.5417,3.5221,3.3587,3.366,3.5189,3.3565,3.3697,3.5156,3.3499,3.28,0.0,3.28,3.28,3.28,3.28,3.28,3.28,3.28,3.28,3.28,0.0,0.0,0.0,0.0,0.0,0.0,0.0,0.0,0.0,0.0,0.0,0.0,0.0,0.0,0.0,0.0,0.0,0.0,0.0,0.0,0.0,0.0,0.0,0.0,0.0,0.0,0.0,2.1365,2.2031,0.0,0.0,0.0,0.0,0.0,0.0,2.2981,2.2793,0.0,0.0,0.0,0.0,0.0,0.0,0.0,0.0,0.0,0.0,0.0,2.1187,2.1807,2.2007,2.2101,2.2706,2.2893,2.2893,2.2893,2.2893,2.2962,2.3304,2.315,2.318,2.4361,2.4571,2.4788,2.5898,2.6359,2.6656,2.6936,2.7002,2.7086,2.7441,2.7642,2.7838,2.8145,2.8486,2.8812,2.9154,2.9593,3.0393,3.1741,3.3734,3.5541,3.7032,3.8926,4.0275,4.0756,4.0916,4.0599,3.97,4.0496,4.065,3.9914,4.0948,4.099,3.9893,3.9172,3.8233,3.7117,3.6383,3.5858,3.5488,3.4747,3.4216,3.3829,3.3117,3.28,0.0,3.28,3.28,3.28,3.28,3.28,3.28,3.28,3.28,3.28,0.0,0.0,0.0,0.0,0.0,0.0,0.0,0.0,0.0,0.0,0.0,0.0,0.0,0.0,0.0,0.0,0.0,0.0,0.0,0.0,0.0,0.0,0.0,0.0,0.0,0.0,0.0,0.0,0.0,2.1838,0.0,0.0,2.2462,2.2694,0.0,0.0,0.0,0.0,0.0,0.0,0.0,0.0,0.0,0.0,0.0,0.0,0.0,0.0,0.0,0.0,0.0,2.2101,2.2706,0.0,0.0,0.0,2.2893,2.2945,2.3184,2.3132,2.3246,2.4139,2.4531,2.4939,2.584,2.6278,2.6564,2.6943,2.698,2.7103,2.7535,2.7857,2.816,2.8481,2.8754,2.9052,2.9476,2.976,3.0498,3.2103,3.4103,3.6238,3.843,4.1152,4.2292,4.1076,4.1509,4.1802,4.1802,4.1802,4.1802,4.1802,4.2512,4.2282,4.1008,4.046,3.9512,3.8178,3.7659,3.7009,3.627,3.5183,3.4303,3.3565,3.3029,3.28,0.0,3.28,3.28,3.28,3.28,3.28,3.28,3.28,3.28,3.28,0.0,0.0,0.0,0.0,0.0,0.0,0.0,0.0,0.0,0.0,0.0,0.0,0.0,0.0,0.0,0.0,0.0,0.0,0.0,0.0,0.0,0.0,0.0,0.0,0.0,0.0,0.0,0.0,0.0,0.0,0.0,0.0,2.1702,2.1732,0.0,0.0,0.0,0.0,0.0,0.0,0.0,0.0,0.0,0.0,0.0,0.0,0.0,0.0,0.0,0.0,0.0,0.0,0.0,0.0,0.0,0.0,2.2893,2.2893,2.2893,2.3104,2.3464,2.4139,2.4255,2.4602,2.6058,2.5777,2.5557,2.6746,2.6952,2.7088,2.7778,2.8174,2.8496,2.8842,2.8905,2.9139,2.9804,2.9906,3.012,3.0744,3.2668,3.483,3.7094,4.1176,4.2927,4.1152,4.2676,4.3671,4.3671,4.3671,4.3671,4.3671,4.1949,4.1008,4.0987,3.9154,3.8216,3.8195,3.6383,3.6448,3.8045,3.4456,3.3807,3.5373,3.3565,3.28,0.0,3.28,3.28,3.28,3.28,3.28,3.28,3.28,3.28,3.28,0.0,0.0,0.0,0.0,0.0,0.0,0.0,0.0,0.0,0.0,0.0,0.0,0.0,0.0,0.0,0.0,0.0,0.0,0.0,0.0,0.0,0.0,0.0,0.0,0.0,0.0,0.0,0.0,0.0,0.0,0.0,0.0,0.0,2.1702,2.1785,2.1813,0.0,0.0,0.0,0.0,0.0,0.0,0.0,0.0,0.0,0.0,0.0,0.0,0.0,0.0,0.0,0.0,0.0,0.0,0.0,0.0,0.0,2.2947,2.3126,2.3229,2.3447,2.4071,2.4422,2.4843,2.5784,2.6001,2.6273,2.7165,2.7315,2.7511,2.8126,2.8335,2.8515,2.8842,2.8905,2.9139,2.9818,3.0936,3.1888,3.251,3.5797,3.8861,4.1045,4.2743,4.3464,4.2905,4.3381,4.3711,4.3711,4.3711,4.3711,4.3711,4.3133,4.2863,4.2863,4.2262,4.1344,4.0105,3.9533,3.8895,3.8173,3.7014,3.6799,3.723,3.5423,3.4647,0.0,3.3315,3.28,3.28,3.28,3.28,3.28,3.28,3.28,3.28,0.0,0.0,0.0,0.0,0.0,0.0,0.0,0.0,0.0,0.0,0.0,0.0,0.0,0.0,0.0,0.0,0.0,0.0,0.0,0.0,0.0,0.0,0.0,0.0,0.0,0.0,0.0,0.0,0.0,0.0,0.0,0.0,0.0,0.0,0.0,0.0,0.0,0.0,0.0,0.0,0.0,0.0,2.1093,0.0,0.0,0.0,0.0,0.0,0.0,0.0,0.0,0.0,0.0,0.0,0.0,0.0,0.0,0.0,0.0,2.3389,2.359,2.4088,2.4457,2.487,2.5446,2.5777,2.6192,2.7093,2.7364,2.7648,2.8287,2.8496,2.8647,2.8856,2.8905,2.9139,2.9818,3.0836,3.2082,3.3616,3.7426,4.0527,4.2136,4.3144,4.3711,4.3711,4.3711,4.3711,4.3711,4.3711,4.3711,4.3711,4.3711,4.3711,4.3711,4.3711,4.3133,4.2011,4.1341,4.0397,3.9218,3.8515,3.8216,3.8152,3.7009,0.0,0.0,3.4581,3.3814,3.3748,3.3073,3.28,3.28,3.28,3.28,3.28,0.0,0.0,0.0,0.0,0.0,0.0,0.0,0.0,0.0,0.0,0.0,0.0,0.0,0.0,0.0,0.0,0.0,0.0,0.0,0.0,0.0,0.0,0.0,0.0,0.0,0.0,0.0,0.0,0.0,0.0,0.0,0.0,0.0,0.0,0.0,0.0,0.0,0.0,0.0,0.0,0.0,0.0,0.0,0.0,0.0,0.0,0.0,0.0,0.0,0.0,0.0,0.0,0.0,0.0,0.0,0.0,0.0,0.0,0.0,0.0,2.3866,2.4155,2.4417,2.471,2.5097,2.5207,0.0,2.6699,2.72,2.7634,2.8307,2.8676,2.8905,2.8905,2.8934,2.9169,2.9818,3.0172,3.1497,3.4512,3.7988,4.0411,4.1121,4.2699,4.3711,4.3711,4.3711,4.3711,4.3711,4.3711,4.3711,4.3711,4.3711,4.3711,4.3711,4.3711,4.3649,4.3485,4.1802,4.0987,4.0924,3.9175,3.8473,0.0,3.8473,0.0,0.0,3.6313,3.551,3.532,3.3521,3.28,3.28,3.28,3.28,3.28,0.0,0.0,0.0,0.0,0.0,0.0,0.0,0.0,0.0,0.0,0.0,0.0,0.0,0.0,0.0,0.0,0.0,0.0,0.0,0.0,0.0,0.0,0.0,0.0,0.0,0.0,0.0,0.0,0.0,0.0,0.0,0.0,0.0,0.0,0.0,0.0,0.0,0.0,0.0,0.0,0.0,0.0,0.0,0.0,0.0,0.0,2.1093,2.1093,0.0,0.0,0.0,0.0,0.0,0.0,0.0,0.0,2.305,0.0,0.0,0.0,2.3906,2.4391,2.4546,0.0,0.0,0.0,0.0,0.0,0.0,2.7992,2.8661,2.8842,2.8905,2.8905,2.9125,2.9418,2.9848,3.2861,3.5919,3.8335,4.0828,4.2553,4.3013,4.3443,4.3711,4.3711,4.3711,4.3711,4.3711,4.3711,4.3711,4.3711,4.3711,4.3711,4.3711,4.3711,4.3009,4.1635,4.1197,4.0987,4.1005,4.0545,4.1113,4.2326,0.0,0.0,4.0083,3.6853,3.5504,3.5314,3.3499,3.28,3.28,3.28,3.28,3.28,0.0,0.0,0.0,0.0,0.0,0.0,0.0,0.0,0.0,0.0,0.0,0.0,0.0,0.0,0.0,0.0,0.0,0.0,0.0,0.0,0.0,0.0,0.0,0.0,0.0,0.0,0.0,0.0,0.0,0.0,0.0,0.0,0.0,0.0,0.0,0.0,0.0,0.0,0.0,0.0,2.1093,0.0,0.0,0.0,0.0,0.0,2.1093,2.1093,0.0,2.1807,2.2007,2.2101,0.0,0.0,0.0,0.0,2.3086,0.0,0.0,0.0,0.0,0.0,0.0,0.0,0.0,0.0,0.0,0.0,0.0,2.8277,2.8798,2.8905,2.8905,2.8905,2.9183,2.9828,3.1108,3.4363,3.7413,3.9638,4.1799,4.3263,4.3672,4.3711,4.3711,4.3711,4.3711,4.3711,4.3711,4.3711,4.3711,4.3711,4.3711,4.3711,4.3711,4.3711,4.3216,4.2241,4.2241,4.2241,4.2241,4.2241,4.278,4.3649,0.0,0.0,4.2011,3.9193,3.7526,3.6556,3.4741,3.3521,3.28,3.28,3.28,3.28,0.0,0.0,0.0,0.0,0.0,0.0,0.0,0.0,0.0,0.0,0.0,0.0,0.0,0.0,0.0,0.0,0.0,0.0,0.0,0.0,0.0,0.0,0.0,0.0,0.0,0.0,0.0,0.0,0.0,0.0,0.0,0.0,0.0,0.0,0.0,0.0,0.0,0.0,0.0,0.0,2.1093,0.0,0.0,0.0,0.0,0.0,0.0,0.0,0.0,2.1804,2.2034,2.2168,2.2719,0.0,0.0,0.0,0.0,0.0,0.0,0.0,0.0,0.0,0.0,0.0,0.0,0.0,0.0,0.0,0.0,2.8496,2.8827,2.8905,2.892,2.8978,2.93,3.034,3.2646,3.5131,3.7503,3.9656,4.1856,4.3341,4.3672,4.3711,4.3711,4.3711,4.3711,4.3711,4.3711,4.3711,4.3711,4.3711,4.3711,4.3711,4.3711,4.3711,4.3711,4.3711,4.3711,4.3711,4.3711,4.3711,4.3711,4.3711,0.0,0.0,4.3547,4.176,3.9893,3.8024,3.6205,3.4559,3.3205,3.3227,3.3389,3.3631,0.0,0.0,0.0,0.0,0.0,0.0,0.0,0.0,0.0,0.0,0.0,0.0,0.0,0.0,0.0,0.0,0.0,0.0,0.0,0.0,0.0,0.0,0.0,0.0,0.0,0.0,0.0,0.0,0.0,0.0,0.0,0.0,0.0,0.0,0.0,0.0,0.0,0.0,0.0,0.0,2.1093,0.0,0.0,0.0,0.0,0.0,0.0,0.0,0.0,2.1887,2.2151,2.2402,2.2769,0.0,0.0,0.0,0.0,0.0,2.379,0.0,0.0,0.0,0.0,0.0,0.0,0.0,0.0,0.0,2.7888,2.8496,2.8827,2.8905,2.8993,2.9286,2.9848,3.0973,3.3036,3.5555,3.7862,3.9675,4.2083,4.3633,4.3691,4.3711,4.3711,4.3711,4.3711,4.3711,4.3711,4.3711,4.3711,4.3711,4.3711,4.3711,4.3711,4.3711,4.3711,4.3711,4.3711,4.3711,4.3711,4.3711,4.3711,4.3711,0.0,4.3711,4.3547,4.176,3.9893,3.8024,3.6205,3.533,3.509,3.5096,3.6058,3.743,0.0,0.0,0.0,0.0,0.0,0.0,0.0,0.0,0.0,0.0,0.0,0.0,0.0,0.0,0.0,0.0,0.0,0.0,0.0,0.0,0.0,0.0,0.0,0.0,0.0,0.0,0.0,0.0,0.0,0.0,0.0,0.0,0.0,0.0,0.0,0.0,0.0,0.0,0.0,0.0,0.0,0.0,0.0,0.0,0.0,0.0,0.0,0.0,0.0,0.0,2.2178,2.2455,2.2783,0.0,0.0,0.0,0.0,0.0,2.3803,2.4195,0.0,0.0,0.0,0.0,0.0,0.0,0.0,0.0,0.0,2.8725,2.8871,2.8905,2.938,3.0855,3.1465,3.2872,3.6092,3.7786,3.942,4.1397,4.2849,4.3711,4.3711,4.3711,4.3711,4.3711,4.3711,4.3711,4.3711,4.3711,4.3711,4.3711,4.3711,4.3711,4.3711,4.3711,4.3711,4.3711,4.3711,4.3711,4.3711,4.3711,4.3711,4.3711,0.0,4.3711,4.3649,4.2801,4.1365,3.9639,3.8788,3.7848,3.6983,3.723,3.7876,3.8657,0.0,0.0,0.0,0.0,0.0,0.0,0.0,0.0,0.0,0.0,0.0,0.0,0.0,0.0,0.0,0.0,0.0,0.0,0.0,0.0,0.0,0.0,0.0,0.0,0.0,0.0,0.0,0.0,0.0,0.0,0.0,0.0,0.0,0.0,0.0,0.0,0.0,0.0,0.0,0.0,0.0,0.0,0.0,0.0,0.0,0.0,0.0,0.0,0.0,0.0,0.0,0.0,0.0,0.0,0.0,0.0,2.3388,2.3799,2.3866,2.4249,0.0,0.0,0.0,0.0,0.0,0.0,0.0,0.0,0.0,2.8905,2.8905,2.9037,2.975,3.1676,3.2588,3.4317,3.8056,3.9356,4.0696,4.2844,4.3477,4.3711,4.3711,4.3711,4.3711,4.3711,4.3711,4.3711,4.3711,4.3711,4.3711,4.3711,4.3711,4.3711,4.3711,4.3711,4.3711,4.3711,4.3711,4.3711,4.3711,4.3711,4.3711,4.3711,4.3711,4.3711,4.3711,4.3711,4.2616,4.0987,4.0987,4.018,3.9095,3.9886,4.0309,4.0579,0.0,0.0,0.0,0.0,0.0,0.0,0.0,0.0,0.0,0.0,0.0,0.0,0.0,0.0,0.0,0.0,0.0,0.0,0.0,0.0,0.0,0.0,0.0,0.0,0.0,0.0,0.0,0.0,0.0,0.0,0.0,0.0,0.0,0.0,0.0,0.0,0.0,0.0,0.0,0.0,0.0,0.0,0.0,0.0,0.0,0.0,0.0,0.0,0.0,0.0,0.0,0.0,0.0,0.0,0.0,0.0,0.0,2.3852,2.4102,2.4377,0.0,0.0,0.0,0.0,0.0,0.0,0.0,2.7798,0.0,0.0,2.8905,2.9403,2.9991,3.0465,3.2135,3.4164,3.647,3.8584,4.0696,4.2844,4.3477,4.3711,4.3711,4.3711,4.3711,4.3711,4.3711,4.3711,4.3711,4.3711,4.3711,4.3711,4.3711,4.3711,4.3711,4.3711,4.3711,4.3711,4.3711,4.3711,4.3711,4.3711,4.3711,4.3711,4.3711,4.3711,4.3711,4.3711,4.2616,4.0987,4.0987,4.1162,4.1558,4.3348,4.4522,4.5222,0.0,0.0,0.0,0.0,0.0,0.0,0.0,0.0,0.0,0.0,0.0,0.0,0.0,0.0,0.0,0.0,0.0,0.0,0.0,0.0,0.0,0.0,0.0,0.0,0.0,0.0,0.0,0.0,0.0,0.0,0.0,0.0,0.0,0.0,0.0,0.0,0.0,0.0,0.0,0.0,0.0,0.0,0.0,0.0,0.0,0.0,0.0,0.0,0.0,0.0,0.0,0.0,0.0,0.0,0.0,0.0,0.0,2.3852,2.4128,2.4404,0.0,0.0,0.0,0.0,0.0,0.0,0.0,2.8136,2.8574,0.0,2.9169,3.0605,3.1815,3.1919,3.4591,3.7125,3.8452,4.0272,4.1968,4.3317,4.3613,4.3711,4.3711,4.3711,4.3711,4.3711,4.3711,4.3711,4.3711,4.3711,4.3711,4.3711,4.3711,4.3711,4.3711,4.3711,4.3711,4.3711,4.3711,4.3711,4.3711,4.3711,4.3711,4.3711,4.3711,4.3711,4.3711,4.3711,4.3299,4.2697,4.2697,4.2964,4.3469,4.4434,4.5176,4.5552,0.0,0.0,0.0,0.0,0.0,0.0,0.0,0.0,0.0,0.0,0.0,0.0,0.0,0.0,0.0,0.0,0.0,0.0,0.0,0.0,0.0,0.0,0.0,0.0,0.0,0.0,0.0,0.0,0.0,0.0,0.0,0.0,0.0,0.0,0.0,0.0,0.0,0.0,0.0,0.0,0.0,0.0,0.0,0.0,0.0,0.0,0.0,0.0,0.0,0.0,0.0,0.0,0.0,0.0,0.0,0.0,0.0,0.0,2.4235,2.4471,2.4636,0.0,0.0,0.0,0.0,0.0,0.0,2.8335,2.8735,2.9198,2.9623,3.1445,3.2754,3.2312,3.5823,3.8702,3.9034,4.0994,4.2734,4.3594,4.3711,4.3711,4.3711,4.3711,4.3711,4.3711,4.3711,4.3711,4.3711,4.3711,4.3711,4.3711,4.3711,4.3711,4.3711,4.3711,4.3711,4.3711,4.3711,4.3711,4.3711,4.3711,4.3711,4.3711,4.3711,4.3711,4.3711,4.3711,4.3711,4.3711,4.3711,4.4062,4.4608,4.4901,4.5391,4.5725,0.0,0.0,0.0,0.0,0.0,0.0,0.0,0.0,0.0,0.0,0.0,0.0,0.0,0.0,0.0,0.0,0.0,0.0,0.0,0.0,0.0,0.0,0.0,0.0,0.0,0.0,0.0,0.0,0.0,0.0,0.0,0.0,0.0,0.0,0.0,0.0,0.0,0.0,0.0,0.0,0.0,0.0,0.0,0.0,0.0,0.0,0.0,0.0,0.0,0.0,0.0,0.0,0.0,0.0,0.0,0.0,2.3785,2.3919,2.4457,2.4599,2.4691,0.0,0.0,0.0,0.0,0.0,0.0,2.8335,2.8944,2.9608,3.0273,3.1767,3.2464,3.1049,3.5207,3.8302,3.7438,4.0265,4.2734,4.3613,4.3711,4.3711,4.3711,4.3711,4.3711,4.3711,4.3711,4.3711,4.3711,4.3711,4.3711,4.3711,4.3711,4.3711,4.3711,4.3711,4.3711,4.3711,4.3711,4.3711,4.3711,4.3711,4.3711,4.3711,4.3711,4.3711,4.3711,4.3711,4.3711,4.3711,4.3711,4.4258,4.4998,4.5018,4.5545,4.6308,0.0,0.0,0.0,0.0,0.0,0.0,0.0,0.0,0.0,0.0,0.0,0.0,0.0,0.0,0.0,0.0,0.0,0.0,0.0,0.0,0.0,0.0,0.0,0.0,0.0,0.0,0.0,0.0,0.0,0.0,0.0,0.0,0.0,0.0,0.0,0.0,0.0,0.0,0.0,0.0,0.0,0.0,0.0,0.0,0.0,0.0,0.0,0.0,0.0,0.0,0.0,0.0,0.0,0.0,0.0,0.0,2.3933,2.4155,2.4511,2.4802,2.5042,2.5171,2.5978,0.0,0.0,2.784,0.0,0.0,2.9637,3.0155,3.0361,3.1966,3.3097,3.2695,3.6217,3.9049,3.9111,4.1299,4.3086,4.3633,4.3711,4.3711,4.3711,4.3711,4.3711,4.3711,4.3711,4.3711,4.3711,4.3711,4.3711,4.3711,4.3711,4.3711,4.3711,4.3711,4.3711,4.3711,4.3711,4.3711,4.3711,4.3711,4.3711,4.3711,4.3711,4.3711,4.3711,4.3711,4.3711,4.373,4.4062,4.451,4.5037,4.5371,4.584,4.6092,0.0,0.0,0.0,0.0,0.0,0.0,0.0,0.0,0.0,0.0,0.0,0.0,0.0,0.0,0.0,0.0,0.0,0.0,0.0,0.0,0.0,0.0,0.0,0.0,0.0,0.0,0.0,0.0,0.0,0.0,0.0,0.0,0.0,0.0,0.0,0.0,0.0,0.0,0.0,0.0,0.0,0.0,0.0,0.0,0.0,0.0,0.0,0.0,0.0,0.0,0.0,0.0,0.0,0.0,0.0,2.3821,2.4062,2.428,2.4721,2.5023,2.5308,2.5765,2.6494,2.7295,2.8024,2.8511,2.8959,2.9491,3.0024,3.0624,3.144,3.3143,3.4433,3.4433,3.7712,4.0141,3.9923,4.1739,4.3243,4.3652,4.3711,4.3711,4.3711,4.3711,4.3711,4.3711,4.3711,4.3711,4.3711,4.3711,4.3711,4.3711,4.3711,4.3711,4.3711,4.3711,4.3711,4.3711,4.3711,4.3711,4.3711,4.3711,4.3711,4.3711,4.3711,4.3711,4.3711,4.3711,4.3711,4.375,4.4219,4.4648,4.5057,4.5529,4.5937,4.6114,0.0,0.0,0.0,0.0,0.0,0.0,0.0,0.0,0.0,0.0,0.0,0.0,0.0,0.0,0.0,0.0,0.0,0.0,0.0,0.0,0.0,0.0,0.0,0.0,0.0,0.0,0.0,0.0,0.0,0.0,0.0,0.0,0.0,0.0,0.0,0.0,0.0,0.0,0.0,0.0,0.0,0.0,0.0,0.0,0.0,0.0,0.0,0.0,0.0,0.0,0.0,0.0,0.0,0.0,2.3456,2.4017,2.424,2.4429,2.5029,2.5244,2.5585,2.6619,2.7205,2.7841,2.9105,2.9418,2.9535,2.9877,3.0214,3.1015,3.2828,3.4595,3.5813,3.5974,3.9171,4.1277,4.0267,4.1879,4.3302,4.3652,4.3711,4.3711,4.3711,4.3711,4.3711,4.3711,4.3711,4.3711,4.3711,4.3711,4.3711,4.3711,4.3711,4.3711,4.3711,4.3711,4.3711,4.3711,4.3711,4.3711,4.3711,4.3711,4.3711,4.3711,4.3711,4.3711,4.3711,4.3711,4.3711,4.375,4.4258,4.4687,4.5057,4.5588,4.5998,4.6308,0.0,0.0,0.0,0.0,0.0,0.0,0.0,0.0,0.0,0.0,0.0,0.0,0.0,0.0,0.0,0.0,0.0,0.0,0.0,0.0,0.0,0.0,0.0,0.0,0.0,0.0,0.0,0.0,0.0,0.0,0.0,0.0,0.0,0.0,0.0,0.0,0.0,0.0,0.0,0.0,0.0,0.0,0.0,0.0,0.0,0.0,0.0,0.0,0.0,0.0,0.0,0.0,2.3216,2.3487,2.3759,2.4102,2.457,2.5029,2.5157,2.5667,2.6269,2.6767,2.7547,2.8404,2.9222,2.9593,2.9892,3.0214,3.0516,3.0848,3.128,3.2772,3.4413,3.5773,3.8426,4.0657,4.1719,4.2862,4.3594,4.3691,4.3711,4.3711,4.3711,4.3711,4.3711,4.3711,4.3711,4.3711,4.3711,4.3711,4.3711,4.3711,4.3711,4.3711,4.3711,4.3711,4.3711,0.0,4.3711,4.3711,4.3711,4.3711,4.3711,4.3711,4.3711,4.3711,4.3711,4.3711,4.3711,4.3789,4.4549,4.492,4.5096,4.5879,4.623,4.6308,0.0,0.0,0.0,0.0,0.0,0.0,0.0,0.0,0.0,0.0,0.0,0.0,0.0,0.0,0.0,0.0,0.0,0.0,0.0,0.0,0.0,0.0,0.0,0.0,0.0,0.0,0.0,0.0,0.0,0.0,0.0,0.0,0.0,0.0,0.0,0.0,0.0,0.0,0.0,0.0,0.0,0.0,0.0,0.0,0.0,0.0,0.0,0.0,0.0,0.0,0.0,0.0,0.0,0.0,2.4035,2.4311,2.4644,2.5005,2.5391,2.5912,2.6562,2.7408,2.8128,2.8808,2.9491,2.9754,3.0018,3.0501,3.1383,3.2314,3.3126,3.4701,3.6456,3.821,3.9946,4.1397,4.2281,4.3144,4.3711,4.3711,4.3711,4.3711,4.3711,4.3711,4.3711,4.3711,4.3711,4.3711,4.3711,4.3711,4.3711,4.3711,4.3711,4.3711,4.3711,4.3711,4.3711,4.3711,4.3711,4.3711,4.3711,4.3711,4.3711,4.3711,4.3711,4.3711,4.3711,4.3711,4.3828,4.4101,4.4744,4.5135,4.541,4.6074,4.6308,4.6308,0.0,0.0,0.0,0.0,0.0,0.0,0.0,0.0,0.0,0.0,0.0,0.0,0.0,0.0,0.0,0.0,0.0,0.0,0.0,0.0,0.0,0.0,0.0,0.0,0.0,0.0,0.0,0.0,0.0,0.0,0.0,0.0,0.0,0.0,0.0,0.0,0.0,0.0,0.0,0.0,0.0,0.0,0.0,0.0,0.0,0.0,0.0,0.0,0.0,0.0,0.0,0.0,0.0,0.0,2.4244,2.4519,2.4655,2.4871,2.5594,2.6168,2.6862,2.809,2.8647,2.9081,2.976,2.9906,3.0062,3.0665,3.1943,3.349,3.5228,3.6977,3.8724,4.047,4.1677,4.2402,4.2402,4.3144,4.3711,4.3711,4.3711,4.3711,4.3711,4.3711,4.3711,4.3711,4.3711,4.3711,4.3711,4.3711,4.3711,4.3711,4.3711,4.3711,4.3711,4.3711,4.3711,4.3711,4.3711,4.3711,4.3711,4.3711,4.3711,4.3711,4.3711,4.3711,4.3711,4.3711,4.3984,4.4433,4.4842,4.5293,4.5744,4.6152,4.6308,4.6308,0.0,0.0,0.0,0.0,0.0,0.0,0.0,0.0,0.0,0.0,0.0,0.0,0.0,0.0,0.0,0.0,0.0,0.0,0.0,0.0,0.0,0.0,0.0,0.0,0.0,0.0,0.0,0.0,0.0,0.0,0.0,0.0,0.0,0.0,0.0,0.0,0.0,0.0,0.0,0.0,0.0,0.0,0.0,0.0,0.0,0.0,0.0,0.0,0.0,0.0,2.3269,0.0,0.0,0.0,2.4244,2.4519,2.4839,2.522,2.561,2.664,2.7721,2.8283,2.8647,2.9081,2.976,2.9906,3.0062,3.0665,3.0984,3.1674,3.3429,3.5167,3.6917,3.8665,4.0904,4.2402,4.2402,4.3144,4.3711,4.3711,4.3711,4.3711,4.3711,4.3711,4.3711,4.3711,4.3711,4.3711,4.3711,4.3711,4.3711,4.3711,4.3711,4.3711,4.3711,4.3711,4.3711,4.3711,4.3711,4.3711,4.3711,4.3711,4.3711,4.3711,4.3711,4.3711,4.3711,4.3711,4.3984,4.4433,4.4842,4.5293,4.5744,4.6152,4.6308,4.6308,0.0,0.0,0.0,0.0,0.0,0.0,0.0,0.0,0.0,0.0,0.0,0.0,0.0,0.0,0.0,0.0,0.0,0.0,0.0,0.0,0.0,0.0,0.0,0.0,0.0,0.0,0.0,0.0,0.0,0.0,0.0,2.1093,2.1093,0.0,0.0,0.0,0.0,0.0,0.0,0.0,0.0,0.0,0.0,0.0,0.0,0.0,0.0,0.0,0.0,0.0,0.0,2.3843,2.4128,0.0,0.0,0.0,2.4868,2.5339,2.6293,2.7162,2.7942,2.8535,2.8798,2.9037,2.9505,2.9774,3.0038,3.0487,3.07,3.1632,3.4372,3.6276,3.8031,3.9766,4.138,4.2402,4.2402,4.3144,4.3711,4.3711,4.3711,4.3711,4.3711,4.3711,4.3711,4.3711,4.3711,4.3711,4.3711,4.3711,4.3711,4.3711,4.3711,4.3711,4.3711,4.3711,4.3711,4.3711,4.3711,4.3711,4.3711,4.3711,4.3711,4.3711,4.3711,4.3711,4.3711,4.3711,4.4121,4.4744,4.494,4.5408,4.6055,4.623,4.6308,4.6308,0.0,0.0,0.0,0.0,0.0,0.0,0.0,0.0,0.0,0.0,0.0,0.0,0.0,0.0,0.0,0.0,0.0,0.0,0.0,0.0,0.0,0.0,0.0,0.0,0.0,0.0,0.0,0.0,0.0,0.0,2.1093,2.1093,2.1149,0.0,2.1232,0.0,0.0,0.0,0.0,0.0,0.0,0.0,0.0,0.0,0.0,0.0,0.0,0.0,0.0,0.0,0.0,0.0,2.4271,2.4444,0.0,0.0,0.0,2.5588,2.6732,2.7377,2.7897,2.8574,2.8808,2.8993,2.933,2.9672,3.0115,3.0888,3.0907,3.1989,3.5934,3.7357,3.8645,4.0841,4.1875,4.2402,4.2402,4.3144,4.3711,4.3711,4.3711,4.3711,4.3711,4.3711,4.3711,4.3711,4.3711,4.3711,4.3711,4.3711,4.3711,4.3711,4.3711,4.3711,4.3711,4.3711,4.3711,4.3711,4.3711,4.3711,4.3711,4.3711,4.3711,4.3711,4.3711,4.3711,4.3711,4.3828,4.4315,4.5018,4.5135,4.5644,4.6308,4.6308,4.6308,4.6308,0.0,0.0,0.0,0.0,0.0,0.0,0.0,0.0,0.0,0.0,0.0,0.0,0.0,0.0,0.0,0.0,0.0,0.0,0.0,0.0,0.0,0.0,0.0,0.0,0.0,0.0,0.0,0.0,0.0,0.0,2.1093,2.1093,2.1272,2.1569,2.1569,2.1585,2.1638,0.0,0.0,0.0,0.0,0.0,0.0,0.0,0.0,0.0,0.0,0.0,0.0,0.0,0.0,0.0,0.0,0.0,2.4653,0.0,0.0,0.0,2.6522,2.7117,2.7737,2.8216,2.8627,2.8993,2.933,2.9672,3.0444,3.2377,3.1735,3.2381,3.7516,3.7197,3.7255,4.0646,4.1875,4.2402,4.2402,4.3144,4.3711,4.3711,4.3711,4.3711,4.3711,4.3711,4.3711,4.3711,4.3711,4.3711,4.3711,4.3711,4.3711,4.3711,4.3711,4.3711,4.3711,4.3711,4.3711,4.3711,4.3711,4.3711,4.3711,4.3711,4.3711,4.3711,4.3711,4.3711,4.373,4.418,4.4629,4.5037,4.5488,4.5918,4.6308,4.6308,4.6308,4.6308,0.0,0.0,0.0,0.0,0.0,0.0,0.0,0.0,0.0,0.0,0.0,0.0,0.0,0.0,0.0,0.0,0.0,0.0,0.0,0.0,0.0,0.0,0.0,0.0,0.0,0.0,0.0,0.0,0.0,2.1093,2.1093,2.1325,2.1475,2.1598,2.1598,2.1796,2.2124,2.2321,0.0,0.0,0.0,0.0,0.0,0.0,0.0,0.0,0.0,0.0,0.0,0.0,0.0,0.0,0.0,0.0,0.0,0.0,2.5837,2.6135,2.6695,2.723,2.7712,2.8177,2.8607,2.8915,2.9052,2.933,3.0151,3.2228,3.1518,3.2181,3.7602,3.7177,3.7137,4.0626,4.166,4.2109,4.2363,4.293,4.3398,4.3672,4.3711,4.3711,4.3711,4.3711,4.3711,4.3711,4.3711,4.3711,4.3711,4.3711,4.3711,4.3711,4.3711,4.3711,4.3711,4.3711,4.3711,4.3711,4.3711,4.3711,4.3711,4.3711,4.3711,4.3711,4.3711,4.3711,4.373,4.4199,4.4648,4.5037,4.5529,4.5959,4.6308,4.6308,4.6308,4.6308,0.0,0.0,0.0,0.0,0.0,0.0,0.0,0.0,0.0,0.0,0.0,0.0,0.0,0.0,0.0,0.0,0.0,0.0,0.0,0.0,0.0,0.0,0.0,0.0,0.0,0.0,0.0,0.0,0.0,0.0,0.0,0.0,2.1705,2.1877,2.1877,0.0,0.0,0.0,0.0,2.2893,0.0,0.0,2.3063,0.0,0.0,0.0,0.0,0.0,0.0,0.0,0.0,0.0,0.0,0.0,0.0,0.0,0.0,2.6224,2.6681,2.7195,2.7673,2.7981,2.849,2.8905,2.8905,2.9242,3.0286,3.2827,3.1836,3.2365,3.8373,3.7077,3.6456,4.0548,4.1543,4.1953,4.2343,4.2793,4.3243,4.3652,4.3711,4.3711,4.3711,4.3711,4.3711,4.3711,4.3711,0.0,4.3711,4.3711,4.3711,4.3711,4.3711,4.3711,4.3711,4.3711,4.3711,4.3711,4.3711,4.3711,4.3711,4.3711,4.3711,4.3711,4.3711,4.3711,4.375,4.4355,4.4744,4.5057,4.5664,4.6055,4.6308,4.6308,4.6308,4.6308,0.0,0.0,0.0,0.0,0.0,0.0,0.0,0.0,0.0,0.0,0.0,0.0,0.0,0.0,0.0,0.0,0.0,0.0,0.0,0.0,0.0,0.0,0.0,0.0,0.0,0.0,0.0,0.0,0.0,0.0,0.0,0.0,2.19,0.0,2.2415,2.2415,2.2442,0.0,2.2893,2.2893,0.0,2.3077,2.3292,0.0,0.0,0.0,2.4115,2.4222,0.0,2.4506,0.0,0.0,0.0,0.0,0.0,0.0,0.0,0.0,0.0,0.0,0.0,2.7594,2.8275,2.89,2.89,2.9418,3.0861,3.4256,3.2718,3.2921,3.9845,3.6935,3.5163,4.0275,4.1445,4.1855,4.2304,4.2773,4.3243,4.3633,4.3691,4.3711,4.3711,4.3711,4.3711,4.3711,4.3711,4.3711,4.3711,4.3711,4.3711,4.3711,4.3711,4.3711,4.3711,4.3711,4.3711,4.3711,4.3711,4.3711,4.3711,4.3711,4.3711,4.3711,4.3711,4.3711,4.3769,4.4627,4.4998,4.5096,4.5957,4.6308,4.6308,4.6308,4.6308,4.6308,0.0,0.0,0.0,0.0,0.0,0.0,0.0,0.0,0.0,0.0,0.0,0.0,0.0,0.0,0.0,0.0,0.0,0.0,0.0,0.0,0.0,0.0,0.0,0.0,0.0,0.0,0.0,0.0,0.0,0.0,0.0,0.0,0.0,0.0,2.2645,2.2756,2.2773,2.2867,0.0,0.0,2.3113,2.3229,0.0,0.0,0.0,0.0,0.0,2.4497,2.4492,0.0,2.4764,2.505,0.0,0.0,0.0,0.0,0.0,0.0,2.6406,0.0,0.0,0.0,0.0,0.0,2.9257,2.9579,3.0575,3.2998,3.1889,3.2313,3.8234,3.7097,3.6175,3.8881,3.9408,4.0068,4.1716,4.2344,4.2773,4.3203,4.3516,4.3711,4.3711,4.3711,4.3711,0.0,4.3711,4.3711,4.3711,4.3711,4.3711,4.3711,4.3711,4.3711,4.3711,4.3711,4.3711,4.3711,4.3711,4.3711,4.3711,4.3711,4.3711,4.3711,4.3711,4.3711,4.3769,4.4627,4.4998,4.5096,4.5957,4.6308,4.6308,4.6308,4.6308,4.6308,0.0,0.0,0.0,0.0,0.0,0.0,0.0,0.0,0.0,0.0,0.0,0.0,0.0,0.0,0.0,0.0,0.0,0.0,0.0,0.0,0.0,0.0,0.0,0.0,0.0,0.0,0.0,0.0,0.0,0.0,0.0,0.0,0.0,0.0,0.0,0.0,0.0,0.0,0.0,0.0,2.3394,0.0,0.0,2.4075,2.4257,0.0,0.0,0.0,2.4613,2.4764,2.5104,0.0,0.0,0.0,0.0,0.0,0.0,0.0,0.0,0.0,0.0,0.0,0.0,0.0,2.9584,2.9877,3.0643,3.2494,3.1665,3.1987,3.6645,3.6095,3.5712,3.8192,3.8606,3.911,4.0512,4.0917,4.156,4.2947,4.3321,4.3516,4.3691,4.3711,4.3711,4.3711,4.3711,4.3361,4.2595,4.3278,4.334,4.2595,4.3299,4.3711,4.3711,4.3711,4.3711,4.3711,4.3711,4.3711,4.3711,4.3711,4.3711,4.3711,4.3711,4.3711,4.3769,4.4627,4.4998,4.5096,4.5957,4.6308,4.6308,4.6308,4.6308,4.6308,0.0,0.0,0.0,0.0,0.0,0.0,0.0,0.0,0.0,0.0,0.0,0.0,0.0,0.0,0.0,0.0,0.0,0.0,0.0,0.0,0.0,0.0,0.0,0.0,0.0,0.0,0.0,0.0,0.0,0.0,0.0,0.0,0.0,0.0,0.0,0.0,0.0,0.0,0.0,2.3429,2.3714,2.3986,0.0,0.0,2.4391,2.4599,2.4599,2.4626,2.4711,2.5082,2.5569,0.0,0.0,0.0,0.0,0.0,2.6406,0.0,0.0,0.0,0.0,0.0,0.0,0.0,2.9872,3.0214,3.0864,3.2361,3.1669,3.1819,3.5086,3.4433,3.4413,3.7516,3.8172,3.8516,3.9061,3.9173,3.999,4.2123,4.2603,4.2899,4.3326,4.353,4.357,4.3402,4.3402,4.2718,4.1089,4.2718,4.2884,4.1068,4.2759,4.3711,4.3711,4.3711,4.3711,4.3711,4.3711,4.3711,4.3711,4.3711,4.3711,4.3711,4.3711,4.3711,4.3769,4.4627,4.4998,4.5096,4.5957,4.6308,4.6308,4.6308,4.6308,4.6308,0.0,0.0,0.0,0.0,0.0,0.0,0.0,0.0,0.0,0.0,0.0,0.0,0.0,0.0,0.0,0.0,0.0,0.0,0.0,0.0,0.0,0.0,0.0,0.0,0.0,0.0,0.0,0.0,0.0,0.0,0.0,0.0,0.0,0.0,0.0,0.0,0.0,0.0,0.0,2.4017,2.4102,0.0,2.4222,2.4444,2.4546,2.4599,2.4599,2.4778,2.5096,2.565,2.5904,2.6038,0.0,0.0,0.0,2.6406,0.0,0.0,0.0,0.0,0.0,0.0,0.0,0.0,3.0206,3.053,3.0812,3.1129,3.0981,3.144,3.3531,3.3633,3.3613,3.429,3.5591,3.7032,3.8518,3.899,3.8864,3.7955,3.9438,4.0665,4.1095,4.2406,4.2746,4.1616,4.153,4.1383,4.1008,4.2718,4.2884,4.1068,4.2759,4.3711,4.3711,4.3711,4.3711,4.3711,4.3711,4.3711,4.3711,4.3711,4.3711,4.3711,4.3711,4.3711,4.3769,4.4627,4.4998,4.5096,4.5957,4.6308,4.6308,4.6308,4.6308,4.6308,0.0,0.0,0.0,0.0,0.0,0.0,0.0,0.0,0.0,0.0,0.0,0.0,0.0,0.0,0.0,0.0,0.0,0.0,0.0,0.0,0.0,0.0,0.0,0.0,0.0,0.0,0.0,0.0,0.0,0.0,0.0,0.0,0.0,0.0,0.0,0.0,0.0,0.0,2.4289,2.4404,2.4404,0.0,2.4417,2.4546,2.4599,2.4613,2.4778,2.5144,2.5596,2.5891,2.6091,0.0,0.0,2.6406,2.6406,0.0,2.6406,2.6525,0.0,0.0,0.0,2.8967,0.0,0.0,0.0,3.0715,3.0796,3.0796,3.0796,3.1067,3.1943,3.2813,3.3408,3.3408,3.4859,3.5994,3.6014,3.7674,3.8651,3.7986,3.887,3.9384,3.8962,4.0478,4.126,4.0678,4.0877,4.0207,3.8362,4.1721,4.2449,3.9702,4.2282,4.3711,4.3711,4.3711,4.3711,4.3711,4.3711,4.3711,4.3711,4.3711,4.3711,4.3711,4.3711,4.3711,4.375,4.4413,4.4822,4.5096,4.5957,4.6308,4.6308,4.6308,4.6308,4.6308,0.0,0.0,0.0,0.0,0.0,0.0,0.0,0.0,0.0,0.0,0.0,0.0,0.0,0.0,0.0,0.0,0.0,0.0,0.0,0.0,0.0,0.0,0.0,2.2021,0.0,0.0,0.0,0.0,0.0,0.0,0.0,0.0,0.0,0.0,0.0,0.0,0.0,0.0,0.0,2.4599,0.0,2.4639,2.4698,2.4698,2.4738,2.4831,2.5144,2.5596,2.5998,2.6065,2.6219,2.6406,2.6406,2.6406,0.0,0.0,0.0,0.0,0.0,0.0,0.0,0.0,0.0,2.9953,0.0,0.0,0.0,3.0796,3.0796,3.0796,3.0796,3.1943,3.2895,3.2895,3.4372,3.5022,3.3592,3.6115,3.796,3.7619,3.7895,3.7712,3.6764,3.807,3.921,3.9783,4.0204,3.915,3.6183,4.0569,4.1825,3.8835,4.1637,4.334,4.3711,4.3711,4.3711,4.3711,4.3711,4.3711,4.3711,4.3711,4.3711,4.3711,4.3711,4.3711,4.373,4.4199,4.4648,4.5076,4.5879,4.623,4.6308,4.6308,4.6308,4.6308,0.0,0.0,0.0,0.0,0.0,0.0,0.0,0.0,0.0,0.0,0.0,0.0,0.0,0.0,0.0,0.0,0.0,0.0,2.1697,0.0,0.0,0.0,0.0,0.0,2.2348,0.0,0.0,0.0,0.0,0.0,0.0,0.0,0.0,0.0,2.4022,0.0,0.0,0.0,2.4572,0.0,2.4599,2.4778,0.0,2.5042,2.5184,2.5432,2.5764,2.5931,2.6038,0.0,2.6379,2.6406,0.0,2.6406,2.6406,2.6406,0.0,0.0,0.0,0.0,0.0,0.0,2.9921,0.0,0.0,0.0,3.0796,3.0796,0.0,3.0796,3.0796,0.0,0.0,3.1108,3.2546,3.3633,3.3429,3.5066,3.5163,3.2112,3.3122,3.4174,3.4426,3.5143,3.626,3.7946,3.8351,3.8344,3.7917,4.0062,4.1092,4.0692,4.1092,4.2074,4.369,4.3711,4.3711,4.3711,4.3711,4.3711,4.3711,4.3711,4.3711,4.3711,4.3711,4.3711,4.373,4.4199,4.4648,4.5057,4.5588,4.5998,4.6308,4.6308,4.6308,4.6308,0.0,0.0,0.0,0.0,0.0,0.0,0.0,0.0,0.0,0.0,0.0,0.0,0.0,0.0,0.0,0.0,0.0,2.194,0.0,0.0,0.0,0.0,0.0,0.0,0.0,0.0,0.0,0.0,2.3126,0.0,0.0,0.0,0.0,0.0,2.4311,0.0,2.4457,0.0,2.489,0.0,0.0,0.0,0.0,2.5229,2.539,2.5804,2.5957,2.6105,2.6246,0.0,2.6406,0.0,0.0,0.0,0.0,2.6587,0.0,0.0,0.0,0.0,0.0,0.0,0.0,0.0,3.0707,0.0,3.0796,0.0,0.0,0.0,0.0,0.0,0.0,0.0,3.1419,3.1881,3.1881,3.2525,3.2834,3.2355,3.2936,3.3492,3.3676,3.319,3.3673,3.5689,3.6139,3.5978,3.5102,3.7809,3.8895,3.7826,3.989,4.1362,4.2137,4.3174,4.3174,4.2137,4.3195,4.3154,4.2178,4.3216,4.3711,4.3711,4.3711,4.3711,4.373,4.3906,4.4373,4.5018,4.5234,4.5703,4.6308,4.6308,4.6308,4.6308,0.0,0.0,0.0,0.0,0.0,0.0,0.0,0.0,0.0,0.0,0.0,0.0,2.0194,2.127,0.0,0.0,2.2111,2.2231,0.0,0.0,2.2649,0.0,0.0,0.0,0.0,0.0,0.0,0.0,0.0,0.0,0.0,0.0,0.0,0.0,0.0,2.4599,2.4613,0.0,2.5096,2.5122,2.5398,2.5711,2.5957,2.559,2.5724,2.6118,2.6118,2.6232,2.6426,2.6525,2.6564,0.0,2.6683,0.0,0.0,0.0,0.0,0.0,2.8441,0.0,0.0,0.0,0.0,0.0,0.0,0.0,0.0,0.0,0.0,0.0,0.0,0.0,0.0,0.0,0.0,3.0796,3.0796,3.0796,3.1274,3.2541,3.2705,3.2705,3.2705,3.1864,3.1917,3.3439,3.4449,3.4531,3.3459,3.5988,3.7096,3.627,3.8362,3.9741,4.0231,4.2053,4.2303,4.1008,4.2324,4.2512,4.1781,4.2593,4.3237,4.3711,4.3711,4.3711,4.3711,4.3711,4.4198,4.4998,4.4998,4.5525,4.6308,4.6308,4.6308,4.6308,0.0,1.4667,0.0,0.0,0.0,0.0,0.0,0.0,0.0,0.0,0.0,0.0,0.0,0.0,0.0,0.0,0.0,2.2525,2.2867,0.0,2.288,0.0,0.0,2.3023,0.0,0.0,0.0,0.0,0.0,0.0,0.0,0.0,0.0,0.0,0.0,2.4599,2.4613,2.4957,2.5096,2.5122,2.5398,2.5711,2.6024,0.0,2.6379,2.6393,2.6393,0.0,0.0,2.6854,2.6992,0.0,0.0,0.0,0.0,0.0,0.0,0.0,0.0,0.0,0.0,3.02,0.0,0.0,0.0,0.0,3.0796,0.0,0.0,0.0,0.0,0.0,0.0,0.0,0.0,0.0,0.0,3.0796,3.0817,3.088,3.088,3.088,3.088,3.1145,3.1336,3.1393,3.3642,3.498,3.4932,3.5357,3.6362,3.8066,3.6513,3.6529,3.828,4.0147,4.1068,4.0987,4.1068,4.1969,4.3547,4.1865,4.2032,4.3711,4.3711,4.3711,4.3711,4.3711,4.4198,4.4998,4.4998,4.5525,4.6308,4.6308,4.6308,4.6308,0.0,0.0,0.0,0.0,0.0,0.0,0.0,2.0964,0.0,0.0,2.2101,0.0,0.0,2.2462,2.2622,0.0,0.0,2.2769,2.2893,2.3077,0.0,0.0,0.0,2.3549,0.0,0.0,0.0,0.0,0.0,0.0,0.0,0.0,0.0,0.0,0.0,2.5037,0.0,0.0,0.0,0.0,0.0,2.6146,2.6272,0.0,0.0,2.6406,2.6406,2.6406,0.0,2.6564,2.6781,2.7059,2.7423,2.7737,2.8073,2.8612,2.9041,0.0,0.0,0.0,3.0603,3.0603,0.0,0.0,0.0,0.0,0.0,0.0,0.0,0.0,0.0,0.0,0.0,0.0,0.0,0.0,0.0,3.0796,3.0796,3.0796,3.0796,3.0796,3.0796,3.0899,3.106,3.1279,3.2078,3.2755,3.3192,3.3327,3.3762,3.461,3.5199,3.5792,3.641,3.9469,4.0376,3.9175,4.1616,4.247,4.1928,4.2512,4.3112,4.3711,4.3711,4.3711,4.3711,4.3711,4.4198,4.4998,4.4998,4.5525,4.6308,4.6308,4.6308,4.6308,1.8609,0.0,0.0,0.0,0.0,0.0,0.0,0.0,0.0,0.0,2.2392,0.0,2.2579,0.0,2.2934,0.0,2.305,2.309,2.3215,2.3367,0.0,2.3487,2.3679,0.0,0.0,0.0,0.0,0.0,0.0,2.4431,0.0,0.0,0.0,0.0,0.0,2.5331,2.5512,2.5844,2.5998,0.0,0.0,2.6485,0.0,0.0,2.6718,2.6637,0.0,2.7004,2.7037,2.7305,2.7565,2.7852,2.8241,2.8538,2.8844,2.9392,2.9754,3.0011,3.0329,3.0603,0.0,3.0796,3.0796,0.0,3.0796,0.0,0.0,0.0,0.0,0.0,0.0,0.0,0.0,0.0,0.0,0.0,0.0,3.0796,3.0796,3.0796,3.0796,3.0796,3.0796,3.0796,3.0884,3.1124,3.122,3.1549,3.2076,3.2244,3.2449,3.2785,3.3939,3.4544,3.4529,3.8173,3.9388,3.8238,4.1283,4.247,4.199,4.2491,4.3091,4.3711,4.3711,4.3711,4.3711,4.3711,4.4198,4.4998,4.4998,4.5525,4.6308,4.6308,4.6308,4.6308,2.1572,0.0,0.0,0.0,2.0952,0.0,0.0,0.0,2.2428,0.0,2.2716,2.2937,2.2954,2.2968,2.3071,2.3362,2.3375,2.3509,2.3825,2.387,0.0,0.0,2.3861,2.3977,2.4222,0.0,0.0,0.0,0.0,0.0,0.0,0.0,0.0,0.0,2.5411,0.0,2.5571,2.5871,2.6044,2.6057,2.6352,2.669,2.7086,2.7447,2.7379,2.7213,2.7886,2.8123,2.8225,2.8938,2.9179,2.928,2.9739,2.9915,2.9994,3.0317,3.0419,3.0478,3.0723,3.0796,3.0796,3.0796,0.0,0.0,0.0,0.0,3.0796,0.0,0.0,0.0,0.0,0.0,0.0,0.0,0.0,0.0,0.0,3.0796,3.0796,3.0796,3.0796,3.0796,3.0796,3.0796,3.0796,3.0796,3.1089,3.1432,3.1754,3.2076,3.2434,3.2756,3.2785,3.28,3.28,3.6405,3.8216,3.8216,4.0189,4.2032,4.3649,4.1928,4.2074,4.3711,4.3711,4.3711,4.3711,4.3711,4.4198,4.4979,4.4998,4.5525,4.6308,4.6308,4.6308,4.6308,2.1874,2.2061,2.2075,0.0,2.2011,2.2311,0.0,0.0,0.0,0.0,2.302,2.3311,2.361,2.3818,2.4086,2.4464,2.4482,0.0,0.0,0.0,0.0,2.4561,2.4725,2.4724,2.4511,2.4511,0.0,2.4599,0.0,0.0,2.497,0.0,0.0,0.0,0.0,2.5978,2.6172,2.6259,2.6476,2.6759,2.7078,2.746,2.7886,0.0,2.8706,2.8609,2.8498,2.8466,2.85,2.8685,2.8957,2.9263,2.9629,2.9987,3.0331,3.0612,3.07,3.0694,3.0782,3.0796,3.0796,3.0796,3.0796,3.0796,0.0,0.0,0.0,0.0,0.0,0.0,0.0,0.0,0.0,0.0,0.0,0.0,0.0,0.0,3.0796,3.0796,3.0796,3.0796,3.0796,3.0796,3.0796,3.0796,3.0884,3.1074,3.1417,0.0,0.0,3.2419,3.2668,3.28,3.28,3.6405,3.8216,3.8238,4.147,4.3257,4.369,4.3216,4.3257,4.3711,4.3711,4.3711,4.3711,4.3711,4.4043,4.4569,4.4881,4.5525,4.6308,4.6308,4.6308,4.6308,2.2151,2.2405,2.2622,2.2622,0.0,0.0,2.2622,2.2769,0.0,2.3063,2.3363,0.0,2.4036,2.4359,2.4719,2.509,2.5121,0.0,2.5286,0.0,0.0,2.5243,2.5386,2.5373,2.512,2.512,0.0,2.5078,0.0,0.0,2.5277,0.0,0.0,0.0,0.0,2.6259,2.6406,2.6584,2.6882,2.7237,2.7621,2.8093,0.0,2.9204,2.9557,2.9714,2.9598,2.9494,2.9408,2.9516,2.9703,2.993,3.0104,3.0347,3.0583,3.0753,3.0796,3.0796,3.0796,3.0796,3.0796,3.0796,3.0796,3.0796,3.0796,3.0796,3.0796,0.0,0.0,0.0,0.0,0.0,0.0,0.0,0.0,0.0,0.0,0.0,0.0,3.0776,3.0644,3.054,3.054,3.0707,3.0796,3.0796,3.0796,3.0943,0.0,0.0,3.1944,3.2288,3.2624,3.28,3.28,3.5603,3.7423,3.8216,4.0298,4.1742,4.2512,4.2512,4.2512,4.2553,4.3361,4.3711,4.3711,4.3711,4.3984,4.4453,4.5078,4.5723,4.6308,4.6308,4.6308,4.6308,2.2432,2.2702,0.0,0.0,0.0,0.0,0.0,2.3016,0.0,2.3463,0.0,2.4213,2.4534,2.4923,2.5309,2.5691,0.0,2.5828,2.6063,2.6091,2.6073,2.6018,2.6018,2.5962,2.5838,2.5907,2.5848,0.0,0.0,0.0,0.0,0.0,0.0,0.0,0.0,2.6426,2.6505,2.694,2.7356,2.7703,2.8133,2.8732,2.9381,2.9717,3.0114,3.0492,3.0729,3.0642,3.0492,3.0729,3.0796,3.0796,3.0796,3.0796,3.0796,3.0796,3.0796,3.0796,3.0796,3.0796,3.0796,3.0796,3.0796,3.0796,3.0796,3.0796,3.0796,3.0796,3.0796,3.0796,0.0,0.0,0.0,0.0,0.0,0.0,0.0,0.0,0.0,0.0,3.0499,0.0,3.0221,3.0561,3.0776,3.0728,3.0755,0.0,0.0,0.0,3.1929,3.2229,3.2595,3.28,3.28,0.0,3.641,3.8216,3.8451,3.9554,4.1362,4.1362,4.1362,4.1446,4.3029,4.3711,4.3711,4.3711,4.4004,4.4551,4.5293,4.5879,4.6308,4.6308,4.6308,4.6308,2.2813,2.2853,0.0,0.0,0.0,2.3724,2.3724,2.3724,2.3937,2.4552,2.4909,2.5368,2.5967,2.6328,2.6799,2.7409,2.7457,0.0,0.0,0.0,0.0,2.7135,2.7116,2.6777,2.6059,2.6437,2.6276,0.0,0.0,0.0,0.0,0.0,0.0,0.0,2.6393,2.6584,2.6947,2.7616,0.0,2.8625,2.9198,2.9727,3.0223,3.0503,3.0661,3.0744,3.0782,3.0767,3.0744,3.0782,3.0796,3.0796,3.0796,3.0796,3.0796,3.0796,3.0796,3.0796,3.0796,3.0796,3.0796,3.0796,3.0796,3.0796,3.0796,3.0796,3.0796,3.0796,3.0796,3.0796,3.0796,0.0,0.0,0.0,0.0,0.0,0.0,0.0,0.0,0.0,0.0,3.0561,0.0,0.0,3.0665,3.0332,3.0624,3.0826,0.0,0.0,3.1827,0.0,3.2478,0.0,0.0,0.0,3.6405,3.8216,3.9766,4.1449,4.3216,4.3216,4.3216,4.3237,4.3547,4.3711,4.3711,4.3711,4.4159,4.4901,4.5057,4.5603,4.6308,4.6308,4.6308,4.6308,2.2928,0.0,0.0,0.0,0.0,0.0,0.0,2.5101,2.5237,2.5356,2.5691,2.616,2.6848,2.7216,2.7548,2.7878,2.7892,2.7892,2.7892,2.7892,2.7836,2.7666,2.7666,2.7363,2.6738,2.6932,2.6846,2.6386,0.0,0.0,0.0,0.0,0.0,2.6716,2.6716,2.7035,0.0,0.0,0.0,2.9318,2.9844,3.0287,3.0612,3.0738,3.0796,3.0796,3.0796,3.0796,3.0796,3.0796,3.0796,3.0796,3.0796,3.0796,3.0796,3.0796,3.0796,3.0796,3.0796,3.1461,3.1922,3.1025,3.2154,3.3249,3.234,3.2149,3.2417,3.331,3.2051,3.0796,3.0796,3.0796,0.0,0.0,0.0,0.0,0.0,0.0,3.0561,0.0,0.0,0.0,0.0,0.0,3.0394,3.0221,3.0582,3.0796,3.0796,0.0,3.1622,0.0,0.0,0.0,0.0,0.0,0.0,3.6794,3.6751,3.819,4.0864,4.0864,4.1367,4.2345,4.3278,4.3711,4.3711,4.3711,4.4101,4.4705,4.492,4.541,4.5996,4.623,4.6308,4.6308,2.336,2.3755,0.0,0.0,2.4732,2.5406,2.6002,2.6448,2.659,2.6206,2.6502,2.6945,2.7558,2.7843,2.8024,2.8101,2.8116,2.8116,2.8116,2.8116,2.8116,2.8116,2.8116,2.7926,2.7511,2.7607,2.7511,0.0,0.0,0.0,0.0,0.0,0.0,0.0,0.0,0.0,0.0,0.0,2.941,2.9892,3.0299,3.0618,3.0796,3.0796,3.0796,3.0796,3.0796,3.0796,3.0796,3.0796,3.0796,3.0796,3.0796,3.0796,3.0859,3.1233,3.1087,3.088,3.1253,3.2133,3.2628,3.1253,3.301,3.4764,3.3362,3.3068,3.3445,3.4809,3.2866,3.0884,3.0811,3.0796,0.0,0.0,0.0,0.0,0.0,0.0,0.0,0.0,0.0,0.0,3.0221,0.0,3.0304,3.0221,3.0499,3.0707,3.0796,3.1198,3.1534,0.0,0.0,3.2537,3.2785,0.0,3.3719,3.5488,3.445,3.5662,3.8814,3.9197,4.0189,4.1656,4.3091,4.3711,4.3711,4.3711,4.3984,4.4433,4.4842,4.5293,4.5744,4.6152,4.6308,4.6308,0.0,0.0,0.0,0.0,0.0,2.6277,2.6342,2.7169,2.7665,2.7373,2.7592,2.7899,2.8282,2.8331,2.8486,2.8783,2.8798,2.8798,2.8798,2.8798,2.8798,2.8798,2.8798,2.8618,2.8209,2.8559,2.8365,0.0,0.0,0.0,0.0,0.0,0.0,0.0,0.0,0.0,0.0,2.981,3.027,3.0358,3.0636,3.0782,3.0796,3.0796,3.0796,3.0796,3.0796,3.0796,3.0796,3.0796,3.0796,3.0796,3.0796,3.0796,3.1108,3.2705,3.2046,3.115,3.2731,3.2337,3.1446,3.1292,3.173,3.2144,3.1994,3.1952,3.1994,3.2165,3.1694,3.1147,3.0855,3.0796,3.0796,0.0,0.0,0.0,0.0,0.0,3.0769,3.0796,0.0,0.0,3.0242,3.0519,3.0603,0.0,3.0242,3.0415,3.0776,3.1417,3.1768,3.1798,0.0,3.2756,3.28,3.28,3.3704,3.5516,3.6993,3.875,4.0798,4.2449,4.3278,4.3443,4.3628,4.3711,4.3711,4.3711,4.3984,4.4433,4.4842,4.5293,4.5744,4.6152,4.6308,4.6308,0.0,0.0,0.0,0.0,0.0,0.0,0.0,2.7817,2.816,2.8047,2.8131,2.8321,2.8661,2.871,2.8754,2.889,2.8905,2.8905,2.8905,2.8905,2.8993,2.9198,2.9008,2.8812,2.8601,2.8552,2.8373,0.0,0.0,0.0,0.0,0.0,0.0,0.0,0.0,2.931,2.9781,3.0226,3.0487,3.0642,3.0753,3.0796,3.0796,3.0796,3.0796,3.0796,3.0796,3.0796,3.0796,3.0796,3.0796,3.0796,3.0796,3.0943,3.1236,3.1933,3.1789,3.1551,3.2255,3.2788,3.2901,3.1848,3.3262,3.4651,3.3609,3.3354,3.3673,3.4714,3.3971,3.2731,3.1358,3.1089,3.103,0.0,0.0,0.0,0.0,0.0,0.0,3.0796,0.0,3.0749,3.0582,3.0478,3.0373,0.0,3.0415,3.0644,3.0776,3.1235,0.0,3.1783,0.0,3.2595,3.28,3.28,3.3161,3.3902,3.5706,3.7547,3.9367,4.1239,4.2657,4.3711,4.3711,4.3711,4.3711,4.3711,4.3808,4.4023,4.4473,4.4902,4.5332,4.5762,4.6094,4.6308,2.5808,0.0,2.6838,0.0,2.7509,2.8057,2.8057,2.8427,2.8691,2.8691,2.8778,2.8881,2.9037,2.9052,2.9095,2.9183,2.9198,2.9198,2.9198,2.9198,2.93,2.9535,2.9315,0.0,2.913,2.8894,2.8779,2.8779,2.8621,0.0,0.0,0.0,0.0,0.0,2.9543,2.9879,3.0405,3.0492,3.0633,3.0796,3.0796,3.0796,3.0796,3.0796,3.0796,3.0796,3.0796,3.0869,3.0943,3.0943,3.1016,3.1074,3.0972,3.1177,3.1552,3.2046,3.238,3.2596,3.256,3.3947,3.4964,3.3203,3.5082,3.703,3.5808,3.5512,3.5691,3.6287,3.5007,3.3294,3.1739,3.1446,3.1373,3.1133,0.0,0.0,0.0,3.0943,0.0,3.0811,3.0796,3.0796,3.0796,3.054,3.0373,0.0,0.0,0.0,0.0,0.0,0.0,0.0,0.0,0.0,0.0,3.28,3.28,3.2844,3.5177,3.6966,3.828,4.0695,4.2491,4.3711,4.3711,4.3711,4.3711,4.3711,4.3711,4.375,4.4219,4.4648,4.5057,4.5529,4.5937,4.6308,2.7746,2.7878,2.7878,2.7878,2.8174,2.8394,2.8394,2.8959,2.9388,2.9388,2.9687,2.976,2.9418,2.9388,2.952,2.9862,2.9892,2.9892,2.9892,2.9892,2.9892,0.0,0.0,2.9892,2.9892,2.9872,2.9872,2.9872,0.0,0.0,2.92,0.0,2.9462,2.9906,3.0243,3.039,3.0405,3.0685,3.0796,3.0796,3.0796,3.0796,3.0796,3.0796,3.0796,3.0796,3.0796,3.1016,3.1279,3.1279,3.152,3.1724,3.1402,3.1534,3.2126,3.3869,3.4419,3.444,3.4398,3.6033,3.7314,3.5435,3.6599,3.8178,3.8156,3.8156,3.7563,3.5457,3.3575,3.2221,3.1856,3.1798,3.1783,3.1783,0.0,0.0,0.0,0.0,0.0,3.084,3.0796,3.0796,3.0796,3.0796,3.0776,0.0,0.0,0.0,0.0,0.0,0.0,3.1798,3.2449,0.0,3.28,3.28,3.28,3.283,3.6448,3.8195,3.8323,4.1992,4.369,4.3711,4.3711,4.3711,4.3711,4.3711,4.3711,4.375,4.4219,4.4648,4.5057,4.5529,4.5937,4.6308,2.7849,2.8068,2.8247,2.8247,2.8705,2.9076,2.9076,2.9462,2.9745,2.9745,2.9833,2.995,3.0068,2.9877,2.9789,0.0,2.9906,2.9906,0.0,2.9906,2.9994,3.0229,3.0024,3.0009,3.0229,3.0024,2.9906,2.9906,0.0,0.0,0.0,2.9592,2.9794,3.0243,3.0525,3.0671,3.0671,3.0753,3.0796,3.0796,3.0796,3.0796,3.0796,3.0796,3.0796,3.0826,3.106,3.1206,3.1323,3.1563,3.2678,3.3971,3.3863,3.3052,3.2488,3.4271,3.4986,3.544,3.6666,3.7517,3.7921,3.7341,3.7703,3.8216,3.8216,3.7251,3.6178,3.5475,3.3903,3.2537,3.2193,3.2134,3.2083,3.1827,3.1798,0.0,0.0,0.0,3.1607,3.1505,3.1285,3.1133,3.1133,3.0928,0.0,0.0,0.0,0.0,0.0,0.0,0.0,0.0,3.2566,0.0,3.28,3.28,3.28,3.2844,3.5221,3.7676,4.0189,4.2595,4.3711,4.3711,4.3711,4.3711,4.3711,4.3711,4.3711,4.3711,4.3867,4.4199,4.4648,4.5078,4.5508,4.594,2.8247,2.8544,2.8783,2.8783,2.9242,2.9599,2.9599,2.9877,3.0082,3.0082,3.0185,3.0325,3.053,3.0369,0.0,3.0238,3.0238,3.0238,3.0238,3.0238,3.034,3.0545,3.0355,3.034,3.0545,0.0,0.0,3.0238,3.0238,3.0238,3.0232,3.0149,3.0256,3.056,3.0744,3.0796,3.0796,3.0796,3.0796,3.0796,3.0796,3.0796,3.0796,3.0796,3.0884,3.1016,3.122,3.1461,3.1817,3.2701,3.3978,3.53,3.5993,3.5435,3.4739,3.5886,3.6849,3.7659,3.8088,3.9218,4.0087,3.9409,3.9748,4.0256,4.0256,3.8878,3.7359,3.6664,3.5068,3.3549,3.2653,3.2493,3.2419,3.2214,3.2185,3.212,3.2024,0.0,3.1929,0.0,0.0,0.0,0.0,3.1315,3.1144,0.0,0.0,0.0,0.0,0.0,0.0,3.2302,3.2624,0.0,3.28,3.28,3.28,3.2808,3.4625,3.7418,4.1047,4.2178,4.3071,4.3711,4.3711,4.3711,4.3711,4.3711,4.3711,4.3711,4.3711,4.3984,4.4453,4.4842,4.5312,4.5764,2.8871,2.9183,2.9403,0.0,2.9696,0.0,2.9936,3.0214,3.0419,3.0419,3.0642,3.0796,3.0796,3.0796,3.0838,3.0963,0.0,0.0,0.0,3.0796,3.0796,3.0796,3.0796,3.0796,3.0796,3.0796,3.0796,3.0796,3.0796,3.0796,3.0796,3.0796,3.0796,3.0796,3.0796,3.0796,3.0796,3.0796,3.0796,3.0796,3.0796,3.0796,3.0811,3.0826,3.103,3.1315,3.1337,3.1854,3.2759,3.4453,3.5412,3.6183,3.7852,3.8494,3.8558,3.843,3.9639,4.065,3.9027,4.1095,4.3299,4.1614,4.2449,4.3711,4.3711,4.2303,4.0482,3.8601,3.6751,3.4953,3.3139,3.28,3.28,3.28,3.28,3.2683,3.239,0.0,0.0,0.0,0.0,0.0,0.0,3.1812,3.1812,0.0,0.0,0.0,0.0,0.0,3.2332,3.2332,3.2639,3.28,3.28,3.28,3.28,3.2808,3.4625,3.7306,4.0629,4.0882,4.1928,4.3505,4.3649,4.3711,4.3711,4.3711,4.3711,4.3711,4.3711,4.3965,4.4394,4.4803,4.5254,4.5705,0.0,0.0,2.9476,2.9745,3.0053,3.0273,3.0273,3.053,3.0715,3.0715,3.0753,3.0796,3.0796,3.0796,3.1336,3.2685,3.1585,3.0796,3.0796,3.0796,3.0796,3.0796,3.0796,3.0796,3.0796,3.0796,3.0796,3.0796,3.0796,3.0796,3.0796,3.0796,3.0796,3.0796,3.0796,3.0796,3.0796,3.0796,3.0796,3.0796,3.0796,3.0796,3.0826,3.1074,3.122,3.1373,3.1871,3.3043,3.4469,3.5158,3.7292,3.9784,4.0207,4.1281,4.2118,4.0756,4.065,4.1197,4.2139,4.305,4.3588,4.3174,4.3381,4.3711,4.3711,4.2303,4.0482,3.8601,3.6751,3.4953,3.3139,3.28,3.28,3.28,3.28,3.2771,3.2683,3.2683,0.0,0.0,3.2346,3.2163,3.2163,3.1944,3.19,0.0,0.0,0.0,0.0,3.2683,3.2683,3.2683,3.2756,3.28,3.28,3.28,3.28,3.2808,3.4625,3.596,3.6896,3.972,4.1236,4.1719,4.3091,4.3711,4.3711,4.3711,4.3711,4.3711,4.3711,4.3769,4.3926,4.4375,4.4824,4.5213,2.9579,2.976,3.0148,3.1098,3.0886,3.0842,3.1664,3.1217,3.1087,3.1881,3.1984,3.2293,3.3085,3.3167,3.3556,3.4514,3.2998,3.2319,3.3126,3.3167,3.3167,3.3167,3.2402,3.1984,3.1984,3.1212,3.0796,3.0796,3.0796,3.0796,3.0796,3.0796,3.0796,3.0796,3.0796,3.0796,3.0796,3.0796,3.0796,3.0796,3.0796,3.0899,3.1045,3.122,3.1985,3.3029,3.3394,3.4796,3.6616,3.7656,3.9342,4.1152,4.1969,4.2905,4.3505,4.2512,4.222,4.2449,4.3423,4.3711,4.3711,4.3711,4.3711,4.3485,4.2636,4.1719,4.0228,3.7526,3.6183,3.4953,3.3139,3.28,3.28,3.28,3.28,3.28,3.28,3.28,0.0,3.28,3.2639,3.2537,3.2537,3.2361,3.2332,3.2522,3.2537,0.0,3.2785,3.28,3.28,3.28,3.28,3.28,3.28,3.28,3.28,3.2808,3.3807,3.4697,3.5597,3.843,4.0189,4.111,4.2905,4.3711,4.3711,4.3711,4.3711,4.3628,4.2801,4.2967,4.3647,4.3258,4.3795,4.4824,2.9965,3.0423,3.1166,3.2377,3.1807,3.1694,3.3162,3.2149,3.1819,3.3572,3.3797,3.4351,3.5833,3.5994,3.6115,3.6376,3.5042,3.4595,3.5551,3.5611,3.549,3.5228,3.3801,3.2998,3.2998,3.1565,3.0796,3.0796,3.0796,3.0796,3.0796,3.0796,3.0796,3.0796,3.0796,3.0796,3.0796,3.0796,3.0942,3.1191,3.1271,3.1616,3.2122,3.2227,3.3588,3.5414,3.5478,3.6851,3.8878,4.046,4.1194,4.1677,4.3216,4.3711,4.3711,4.3711,4.3711,4.3711,4.3711,4.3711,4.3711,4.3711,4.3711,4.3299,4.176,4.1215,4.0038,3.6616,3.57,3.4953,3.3139,3.28,3.28,3.28,3.28,3.28,3.28,0.0,3.28,3.28,3.28,3.28,3.28,3.28,3.28,3.28,3.28,3.28,3.28,3.28,3.28,3.28,3.28,3.28,3.28,3.28,3.28,3.28,3.28,3.3594,3.5146,3.7251,3.9069,4.0692,4.2782,4.3711,4.3711,4.3711,4.3711,4.3566,4.2011,4.2345,4.3564,4.2364,4.2974,4.4512,3.0258,3.1493,3.2209,3.1285,3.2144,3.308,3.3367,3.3162,3.3633,3.5369,3.5591,3.5692,3.5974,3.5994,3.6597,3.8053,3.7934,3.6657,3.3964,3.3797,3.3162,3.1674,3.1357,3.1212,3.1212,3.0942,3.0796,3.0796,3.0796,3.0796,3.0796,3.0796,3.0796,3.0796,3.0796,3.0796,3.0796,3.0796,3.1653,3.3029,3.3431,3.447,3.5851,3.6531,3.7039,3.7407,3.7606,3.8932,4.0608,4.0882,4.2011,4.3319,4.3608,4.3711,4.3711,4.3711,4.3711,4.3711,4.3711,4.3711,4.3711,4.3711,4.3711,4.3628,4.334,4.2095,4.0397,3.8238,3.6556,3.4953,3.3139,3.28,3.28,3.28,3.28,3.28,3.28,0.0,3.28,3.28,3.28,3.28,3.28,3.28,3.28,3.28,3.28,3.28,3.28,3.28,3.28,3.28,3.28,3.28,3.28,3.28,3.28,3.28,3.28,3.294,3.3323,3.6669,3.8366,3.8835,4.2222,4.3711,4.3711,4.3711,4.3711,4.3671,4.3381,4.3443,4.367,4.3459,4.3814,4.4473,3.0775,3.2002,3.3258,3.3544,3.3474,3.4026,3.5914,3.5389,3.543,3.7177,3.7396,3.7755,3.8703,3.8802,3.9118,3.9923,4.0001,3.8921,3.6376,3.7095,3.6817,3.5086,3.4988,3.4559,3.3617,3.3597,3.3597,3.3597,3.2669,3.2211,3.219,3.1233,3.0796,3.0796,3.0796,3.0796,3.0859,3.1798,3.2799,3.3875,3.5011,3.616,3.7276,3.7658,3.8527,3.9538,3.9653,4.0903,4.2449,4.2449,4.3009,4.3711,4.3711,4.3711,4.3711,4.3711,4.3711,4.3711,4.3711,4.3711,4.3711,4.3711,4.3711,4.3443,4.247,4.0821,3.898,3.7139,3.5308,3.3785,3.294,3.28,3.28,3.28,3.28,0.0,0.0,3.28,3.28,3.28,3.28,3.28,3.28,3.28,3.28,3.28,3.28,3.28,3.28,3.28,3.28,3.28,3.28,3.28,3.28,3.28,3.28,3.28,3.28,3.28,3.2918,3.6556,3.8216,3.8408,4.2097,4.3711,4.3711,4.3711,4.3711,4.3588,4.2635,4.2241,4.2241,4.2241,4.2373,4.2766,3.1756,3.3142,3.4778,3.5288,3.4961,3.5511,3.8192,3.7456,3.7237,3.8981,3.9216,3.9707,4.1055,4.1191,4.1191,4.1191,4.1191,4.0451,3.8705,4.0236,4.0236,3.8073,3.7993,3.7377,3.6035,3.5994,3.5793,3.5389,3.4046,3.3183,3.2788,3.1839,3.1399,3.1419,3.1839,3.2025,3.2108,3.3549,3.4604,3.5423,3.6912,3.8111,3.9032,3.9142,4.0192,4.1635,4.1635,4.2512,4.3711,4.3711,4.3711,4.3711,4.3711,4.3711,4.3711,4.3711,4.3711,4.3711,4.3711,4.3711,4.3711,4.3711,4.3711,4.334,4.1949,4.0189,3.8451,3.7052,3.4981,3.3448,3.3448,3.3073,3.28,3.28,0.0,0.0,0.0,3.28,3.28,3.28,3.28,3.28,3.28,3.28,3.28,3.28,3.28,3.28,3.28,3.28,3.28,3.28,3.28,3.28,3.28,3.28,3.28,3.28,3.28,3.3029,3.3543,3.6734,3.8451,3.9027,4.2284,4.3711,4.3711,4.3711,4.3711,4.3547,4.2178,4.1383,4.105,4.1467,4.1362,4.1334,3.3551,3.5914,3.7237,3.4127,3.6155,3.8291,3.8566,3.8489,3.9039,4.0782,4.1016,4.1055,4.1191,4.1191,4.1191,4.1191,4.1191,4.0451,3.8705,4.0236,3.9688,3.6336,3.6195,3.6135,3.5994,3.5994,3.5224,3.3592,3.3449,3.2582,3.1025,3.252,3.3203,3.3285,3.4883,3.5611,3.5649,3.615,3.7337,3.8902,3.9832,4.1212,4.2738,4.3126,4.3362,4.3485,4.3485,4.3608,4.3711,4.3711,4.3711,4.3711,4.3711,4.3711,4.3711,4.3711,4.3711,4.3711,4.3711,4.3711,4.3711,4.3711,4.3711,4.367,4.3526,4.2095,4.0756,4.0629,3.7762,3.5308,3.5308,3.3939,3.28,3.28,0.0,0.0,3.28,3.28,3.28,3.28,3.28,3.28,3.28,3.28,3.28,3.28,3.28,3.28,3.28,3.28,3.28,3.28,3.28,3.28,3.28,3.28,3.28,3.28,3.28,3.3682,3.5364,3.7316,3.9154,4.0903,4.2863,4.3711,4.3711,4.3711,4.3711,4.369,4.3566,4.247,4.1197,4.2884,4.2428,4.1334,3.5126,3.6957,3.8172,3.6857,3.7715,3.8961,4.0041,4.0216,4.0451,4.1113,4.1191,4.1191,4.1191,4.1191,4.1191,4.1191,4.1191,4.0919,4.0255,4.0821,4.0607,3.9294,3.9235,3.9235,3.9235,3.817,3.7297,3.6617,3.4453,3.3613,3.4009,3.3613,3.3964,3.5042,3.5692,3.5994,3.6109,3.7581,3.8752,3.9774,4.1432,4.267,4.3476,4.3633,4.3711,4.3711,4.3711,4.3711,4.3711,4.3711,4.3711,4.3711,4.3711,4.3711,4.3711,4.3711,4.3711,4.3711,4.3711,4.3711,4.3711,4.3711,4.3711,4.3711,4.3711,4.2303,4.0671,3.9494,3.7246,3.5156,3.4027,3.3271,3.28,3.28,0.0,3.28,3.28,3.28,3.28,3.28,3.28,3.28,3.28,3.28,3.28,3.28,3.28,3.28,3.28,3.28,3.28,3.28,3.28,3.28,3.28,3.28,3.28,3.28,3.28,3.3763,3.5553,3.7359,3.9218,4.111,4.2905,4.3711,4.3711,4.3711,4.3711,4.3711,4.3711,4.2574,4.1236,4.3029,4.2553,4.1276,3.6917,3.823,3.9256,3.8705,3.904,3.9825,4.1036,4.1191,4.1191,4.1191,4.1191,4.1191,4.1191,4.1191,4.1191,4.1191,4.1191,4.1191,4.1191,4.1191,4.1191,4.1191,4.1191,4.1191,4.1191,4.0021,3.9157,3.8606,3.6195,3.5349,3.5994,3.5329,3.5672,3.6837,3.7394,3.7687,3.793,3.9529,4.0481,4.1036,4.2637,4.3437,4.3711,4.3711,4.3711,4.3711,4.3711,4.3711,4.3711,4.3711,4.3711,4.3711,4.3711,4.3711,4.3711,4.3711,4.3711,4.3711,4.3711,4.3711,4.3711,4.3711,4.3711,4.3711,4.3711,4.2739,4.1323,3.9452,3.7633,3.5792,3.3983,3.3183,3.28,3.28,3.28,3.28,3.28,3.28,3.28,3.28,3.28,3.28,3.28,3.28,3.28,3.28,3.28,3.28,3.28,3.28,3.28,3.28,3.28,3.28,3.28,3.28,3.28,3.28,3.28,3.4055,3.6399,3.7638,3.9536,4.1928,4.3154,4.3711,4.3711,4.3711,4.3711,4.3711,4.3711,4.2574,4.1236,4.3029,4.2553,4.1257,3.8961,4.0001,4.0665,3.8922,4.0041,4.1191,4.1191,4.1191,4.1191,4.1191,4.1191,4.1191,4.1191,4.1191,4.1191,4.1191,4.1191,4.1191,4.1191,4.1191,4.1191,4.1191,4.1191,4.1191,4.1191,4.1191,4.0334,3.8606,3.8586,3.7695,3.6055,3.7795,3.8606,3.8705,4.0431,4.1426,4.1836,4.2226,4.2656,4.3126,4.3535,4.3711,4.3711,4.3711,4.3711,4.3711,4.3711,4.3711,4.3711,4.3711,4.3711,4.3711,4.3711,4.3711,4.3711,4.3711,4.3711,4.3711,4.3711,4.3711,4.3711,4.3711,4.3711,4.3711,4.3711,4.3711,4.3174,4.1362,3.9512,3.7638,3.583,3.4005,3.28,3.28,3.28,3.28,3.28,3.28,3.28,3.28,3.28,3.28,3.28,3.28,3.28,3.28,3.28,3.28,3.28,3.28,3.28,3.28,3.28,3.28,3.28,3.28,3.28,3.28,3.28,3.4697,3.8216,3.8216,4.0213,4.3711,4.3711,4.3711,4.3711,4.3711,4.3711,4.3711,4.3711,4.2595,4.1236,4.305,4.2553,4.1278,4.0294,4.0841,4.1036,4.0529,4.0841,4.1191,4.1191,4.1191,4.1191,4.1191,4.1191,4.1191,4.1191,4.1191,4.1191,4.1191,4.1191,4.1191,4.1191,4.1191,4.1191,4.1191,4.1191,4.1191,4.1191,4.0001,3.9138,3.8606,3.7377,3.7137,3.7834,3.835,3.9256,4.047,4.1249,4.168,4.1855,4.2578,4.2969,4.3126,4.3535,4.3711,4.3711,4.3711,4.3711,4.3711,4.3711,4.3711,4.3711,4.3711,4.3711,4.3711,4.3711,4.3711,4.3711,4.3711,4.3711,4.3711,4.3711,4.3711,4.3711,4.3711,4.3711,4.3711,4.3711,4.3711,4.2803,3.9685,3.8601,3.7251,3.4165,3.3161,3.28,3.28,3.28,3.28,3.28,3.28,3.28,3.28,3.28,3.28,3.28,3.28,3.28,3.28,3.28,3.28,3.28,3.28,3.28,3.28,3.28,3.28,3.28,3.28,3.28,3.28,3.28,3.4697,3.8216,3.8216,4.0213,4.3711,4.3711,4.3711,4.3711,4.3711,4.3711,4.3711,4.3711,4.3361,4.2967,4.3485,4.3361,4.2967,4.0997,4.1191,4.1191,4.1191,4.1191,4.1191,4.1191,4.1191,4.1191,4.1191,4.1191,4.1191,4.1191,4.1191,4.1191,4.1191,4.1191,4.1191,4.1191,4.1191,4.1191,4.1191,4.1191,4.1191,4.1191,4.0177,3.9629,3.9629,3.8566,3.8604,3.9629,3.9629,4.0273,4.1445,4.168,4.1992,4.2344,4.2872,4.3204,4.336,4.3594,4.3711,4.3711,4.3711,4.3711,4.3711,4.3711,4.3711,4.3711,4.3711,4.3711,4.3711,4.3711,4.3711,4.3711,4.3711,4.3711,4.3711,4.3711,4.3711,4.3711,4.3711,4.3711,4.3711,4.3711,4.3711,4.2657,3.8963,3.8216,3.7079,3.3477,3.28,3.28,3.28,3.28,3.28,3.28,3.28,3.28,3.28,3.28,3.28,3.28,3.28,3.28,3.28,3.28,3.28,3.28,3.28,3.28,3.28,3.28,3.28,3.28,3.28,3.28,3.28,3.28,3.4319,3.7122,3.7122,3.9133,4.2616,4.2616,4.305,4.3711,4.3711,4.3711,4.3711,4.3711,4.3711,4.3711,4.3711,4.3711,4.3711,4.1191,4.1191,4.1191,4.1191,4.1191,4.1191,4.1191,4.1191,4.1191,4.1191,4.1191,4.1191,4.1191,4.1191,4.1191,4.1191,4.1191,4.1191,4.1191,4.1191,4.1191,4.1191,4.1191,4.1191,4.1191,4.1191,4.1191,4.1191,4.1191,4.1191,4.1191,4.1191,4.1406,4.1797,4.1836,4.2305,4.3106,4.3145,4.338,4.3711,4.3711,4.3711,4.3711,4.3711,4.3711,4.3711,4.3711,4.3711,4.3711,4.3711,4.3711,4.3711,4.3711,4.3711,4.3711,4.3711,4.3711,4.3711,4.3711,4.3711,4.3711,4.3711,4.3711,4.3711,4.3711,4.3711,4.2657,3.8963,3.8216,3.7079,3.3477,3.28,3.28,3.28,3.28,3.28,3.28,3.28,3.28,3.28,3.28,3.28,3.28,3.28,3.28,3.28,3.28,3.28,3.28,3.28,3.28,3.28,3.28,3.28,3.28,3.28,3.28,3.28,3.28,3.3741,3.5504,3.5678,3.7655,4.1026,4.1155,4.2178,4.3711,4.3711,4.3711,4.3711,4.3711,4.3711,4.3711,4.3711,4.3711,4.3711,4.1191,4.1191,4.1191,4.1191,4.1191,4.1191,4.1191,4.1191,4.1191,4.1191,4.1191,4.1191,4.1191,4.1191,4.1191,4.1191,4.1191,4.1191,4.1191,4.1191,4.1191,4.1191,4.1191,4.1191,4.1191,4.1191,4.1191,4.1191,4.1191,4.1191,4.1191,4.1191,4.1406,4.1816,4.2128,4.2578,4.3126,4.3437,4.3613,4.3711,4.3711,4.3711,4.3711,4.3711,4.3711,4.3711,4.3711,4.3711,4.3711,4.3711,4.3711,4.3711,4.3711,4.3711,4.3711,4.3711,4.3711,4.3711,4.3711,4.3711,4.3711,4.3711,4.3711,4.3711,4.3711,4.3711,4.2657,3.8963,3.8216,3.7079,3.3477,3.28,3.28,3.28,3.28,3.28,3.28,3.28,3.28,3.28,3.28,3.28,3.28,3.28,3.28,3.28,3.28,3.28,3.28,3.28,3.28,3.28,3.28,3.28,3.28,3.28,3.28,3.28,3.28,3.3741,3.5548,3.6966,3.8852,4.1089,4.2491,4.334,4.3711,4.3711,4.3711,4.3711,4.3711,4.3711,4.3711,4.3711,4.3711,4.3711,4.1191,4.1191,4.1191,4.1191,4.1191,4.1191,4.1191,4.1191,4.1191,4.1191,4.1191,4.1191,4.1191,4.1191,4.1191,4.1191,4.1191,4.1191,4.1191,4.1191,4.1191,4.1191,4.1191,4.1191,4.1191,4.1191,4.1191,4.1191,4.1191,4.1191,4.1191,4.1191,4.1523,4.2109,4.2304,4.2753,4.3398,4.3613,4.3711,4.3711,4.3711,4.3711,4.3711,4.3711,4.3711,4.3711,4.3711,4.3711,4.3711,4.3711,4.3711,4.3711,4.3711,4.3711,4.3711,4.3711,4.3711,4.3711,4.3711,4.3711,4.3711,4.3711,4.3711,4.3711,4.3711,4.3029,4.1616,3.8792,3.7509,3.6058,3.3315,3.28,3.28,3.28,3.28,3.28,3.28,3.28,3.28,3.28,3.28,3.28,3.28,3.28,3.28,3.28,3.28,3.28,3.28,3.28,3.28,3.28,3.28,3.28,3.28,3.28,3.28,3.28,3.28,3.3741,3.5526,3.647,3.8404,4.105,4.2011,4.2905,4.3711,4.3711,4.3711,4.3711,4.3711,4.3711,4.3711,4.3711,4.3711,4.3711,4.1191,4.1191,4.1191,4.1191,4.1191,4.1191,4.1191,4.1191,4.1191,4.1191,4.1191,4.1191,4.1191,4.1191,4.1191,4.1191,4.1191,4.1191,4.1191,4.1191,4.1191,4.1191,4.1191,4.1191,4.1191,4.1191,4.1191,4.1191,4.1191,4.1191,4.1191,4.1191,4.1621,4.2402,4.2402,4.289,4.3711,4.3711,4.3711,4.3711,4.3711,4.3711,4.3711,4.3711,4.3711,4.3711,4.3711,4.3711,4.3711,4.3711,4.3711,4.3711,4.3711,4.3711,4.3711,4.3711,4.3711,4.3711,4.3711,4.3711,4.3711,4.3711,4.3711,4.3711,4.3711,4.2303,4.0482,3.8601,3.6751,3.4953,3.3139,3.28,3.28,3.28,3.28,3.28,3.28,3.28,3.28,3.28,3.28,3.28,3.28,3.28,3.28,3.28,3.28,3.28,3.28,3.28,3.28,3.28,3.28,3.28,3.28,3.28,3.28,3.28,3.28,3.3741,3.5504,3.5814,3.7805,4.1008,4.1341,4.2303,4.3711,4.3711,4.3711,4.3711,4.3711,4.3711,4.3711,4.3711,4.3711,4.3711,4.1191,4.1191,4.1191,4.1191,4.1191,4.1191,4.1191,4.1191,4.1191,4.1191,4.1191,4.1191,4.1191,4.1191,4.1191,4.1191,4.1191,4.1191,4.1191,4.1191,4.1191,4.1191,4.1191,4.1191,4.1191,4.1191,4.1191,4.1191,4.1191,4.1191,4.1191,4.1191,4.1621,4.2402,4.2402,4.289,4.3711,4.3711,4.3711,4.3711,4.3711,4.3711,4.3711,4.3711,4.3711,4.3711,4.3711,4.3711,4.3711,4.3711,4.3711,4.3711,4.3711,4.3711,4.3711,4.3711,4.3711,4.3711,4.3711,4.3711,4.3711,4.3711,4.3711,4.3711,4.3711,4.2303,4.0482,3.8601,3.6751,3.4953,3.3139,3.28,3.28,3.28,3.28,3.28,3.28,3.28,3.28,3.28,3.28,3.28,3.28,3.28,3.28,3.28,3.28,3.28,3.28,3.28,3.28,3.28,3.28,3.28,3.28,3.28,3.28,3.28,3.28,3.3741,3.5548,3.7117,3.8984,4.1092,4.2676,4.3464,4.3711,4.3711,4.3711,4.3711,4.3711,4.3711,4.3711,4.3711,4.3711,4.3711,4.1191,4.1191,4.1191,4.1191,4.1191,4.1191,4.1191,4.1191,4.1191,4.1191,4.1191,4.1191,4.1191,4.1191,4.1191,4.1191,4.1191,4.1191,4.1191,4.1191,4.1191,4.1191,4.1191,4.1191,4.1191,4.1191,4.1191,4.1191,4.1191,4.1191,4.1191,4.1426,4.1836,4.2421,4.2656,4.3125,4.3711,4.3711,4.3711,4.3711,4.3711,4.3711,4.3711,4.3711,4.3711,4.3711,4.3711,4.3711,4.3711,4.3711,4.3711,4.3711,4.3711,4.3711,4.3711,4.3711,4.3711,4.3711,4.3711,4.3711,4.3711,4.3711,4.3711,4.3423,4.2407,4.0758,3.9197,3.8366,3.595,3.3741,3.294,3.28,3.28,3.28,3.28,3.28,3.28,3.28,3.28,3.28,3.28,3.28,3.28,3.28,3.28,3.28,3.28,3.28,3.28,3.28,3.28,3.28,3.28,3.28,3.28,3.28,3.28,3.28,3.28,3.3748,3.5559,3.738,3.9218,4.111,4.2905,4.3711,4.3711,4.3711,4.3711,4.3711,4.3711,4.3711,4.3711,4.3711,4.3711,4.3711]}]]